Date StartTime U_cm/s V_cm/s W_cm/s Ustd_cm/s Vstd_cm/s Wstd_cm/s Uvar_(cm/s)^2 Vvar_(cm/s)^2 Wvar_(cm/s)^2 KE_(m/s)^2 TurbulentKE_(m/s)^2 HorizWindSpeed_cm/s FrictionSpeec_cm/s DragCoef SpeedOfSound_m/s SonicTemperature_C Pressure_mb 
07/21/2014  00:00:00      -54.290       -7.870        3.408       47.924       22.156       15.910     2296.671      490.879      253.125        0.303        0.152       54.857       19.067        0.121      342.631       18.174      863.182
07/21/2014  00:01:00      -78.945       15.055        4.326       16.864       20.188       13.194      284.384      407.548      174.089        0.367        0.043       80.368        8.605        0.011      342.609       18.138      863.165
07/21/2014  00:02:00      -53.144        2.213       -1.294       17.620       12.919        9.233      310.474      166.903       85.250        0.170        0.028       53.190        9.355        0.031      342.621       18.160      863.157
07/21/2014  00:03:00       -5.865      -50.097       -3.254       12.261       19.379        9.034      150.331      375.563       81.606        0.158        0.030       50.439        5.995        0.014      342.665       18.232      863.152
07/21/2014  00:04:00        1.097       -1.850        8.852       12.533        9.970       10.079      157.077       99.400      101.584        0.022        0.018        2.151        7.759       13.013      342.676       18.254      863.134
07/21/2014  00:05:00      -54.412        8.592       -0.851       23.985       16.943       11.286      575.266      287.070      127.380        0.201        0.049       55.086        7.843        0.020      342.644       18.195      863.119
07/21/2014  00:06:00      -49.156        5.173       -4.404       14.452       13.654        9.099      208.859      186.443       82.801        0.147        0.024       49.428        8.928        0.033      342.591       18.109      863.132
07/21/2014  00:07:00      -48.038       13.148       -4.801       12.428       11.687       11.800      154.452      136.579      139.233        0.147        0.022       49.805        7.229        0.021      342.618       18.150      863.115
07/21/2014  00:08:00      -17.593       22.862        2.107       16.463       12.494       13.387      271.018      156.093      179.216        0.072        0.030       28.848        8.103        0.079      342.617       18.151      863.096
07/21/2014  00:09:00      -59.748       11.555       -2.861       20.559       15.528       12.260      422.663      241.124      150.302        0.226        0.041       60.855        4.401        0.005      342.705       18.302      863.088
07/21/2014  00:10:00      -38.484        3.005       -1.729       16.155       14.387       10.768      260.970      206.972      115.956        0.104        0.029       38.601        6.879        0.032      342.699       18.290      863.077
07/21/2014  00:11:00      -62.320      -47.564       -5.353       29.829       33.364       16.088      889.769     1113.137      258.833        0.422        0.113       78.397       13.866        0.031      342.703       18.297      863.067
07/21/2014  00:12:00      -94.798      -54.514      -10.477       20.872       27.930       15.293      435.626      780.094      233.861        0.676        0.072      109.355       11.698        0.011      342.754       18.387      863.055
07/21/2014  00:13:00      -84.523      -17.804       -9.044       19.497       21.497       18.213      380.136      462.133      331.720        0.436        0.059       86.378       13.741        0.025      342.754       18.386      863.039
07/21/2014  00:14:00      -46.023      -56.954       -2.603       21.784       15.367       17.053      474.550      236.144      290.819        0.318        0.050       73.225       13.191        0.032      342.743       18.366      863.034
07/21/2014  00:15:00      -81.144      -39.603       -3.213       25.989       19.757       17.735      675.440      390.357      314.546        0.477        0.069       90.293       16.608        0.034      342.801       18.465      863.035
07/21/2014  00:16:00      -95.299      -26.646       -7.590       16.690       22.103       12.253      278.566      488.544      150.136        0.538        0.046       98.954        7.837        0.006      342.760       18.395      863.028
07/21/2014  00:17:00      -55.988      -10.847       -0.282       27.254       29.896       15.480      742.758      893.778      239.621        0.256        0.094       57.029       12.180        0.046      342.763       18.401      863.022
07/21/2014  00:18:00      -76.018       -7.976       -5.784       19.878       20.744       13.556      395.131      430.301      183.777        0.344        0.050       76.435        9.302        0.015      342.731       18.346      863.007
07/21/2014  00:19:00      -53.044        6.330       -3.063       32.678       13.140       10.422     1067.831      172.672      108.614        0.211        0.067       53.420       13.458        0.063      342.738       18.359      863.002
07/21/2014  00:20:00      -24.623      -20.789        1.035       15.101       23.808       13.443      228.049      566.800      180.725        0.101        0.049       32.225        3.778        0.014      342.746       18.370      862.992
07/21/2014  00:21:00       11.509      -49.803        4.238       16.580       47.426       22.285      274.892     2249.238      496.639        0.283        0.151       51.116       16.897        0.109      342.776       18.420      862.996
07/21/2014  00:22:00       -5.695      -15.097       17.335       24.903       27.884       15.291      620.141      777.505      233.819        0.110        0.082       16.136       13.481        0.698      342.777       18.425      863.012
07/21/2014  00:23:00      -16.889      -47.490       20.988       21.941       32.633       26.327      481.401     1064.886      693.108        0.261        0.112       50.404       13.153        0.068      342.829       18.512      863.027
07/21/2014  00:24:00       -8.077        9.871       15.369       19.068       19.039       12.292      363.582      362.477      151.101        0.064        0.044       12.754       10.442        0.670      342.724       18.333      863.039
07/21/2014  00:25:00        4.123       20.510       -7.890       20.850       20.859       18.680      434.736      435.114      348.924        0.086        0.061       20.920        8.550        0.167      342.639       18.190      863.057
07/21/2014  00:26:00       13.287       42.467      -11.948       12.313       12.560        9.758      151.613      157.749       95.226        0.126        0.020       44.497        4.285        0.009      342.554       18.045      863.074
07/21/2014  00:27:00       21.615       24.551        0.545       16.187       16.173       11.646      262.031      261.557      135.630        0.086        0.033       32.711        9.482        0.084      342.607       18.136      863.080
07/21/2014  00:28:00       37.965       36.428       18.127       20.003       19.453       13.139      400.131      378.408      172.640        0.202        0.048       52.615       13.360        0.064      342.573       18.076      863.085
07/21/2014  00:29:00       39.550       39.318        3.869       23.587       13.514       17.493      556.358      182.640      306.004        0.208        0.052       55.768        7.995        0.021      342.540       18.020      863.089
07/21/2014  00:30:00       37.637       42.399        4.758       20.465       13.643       10.242      418.833      186.139      104.897        0.197        0.035       56.694        5.550        0.010      342.517       17.983      863.088
07/21/2014  00:31:00       52.253       41.281        6.963       28.183       20.663       18.909      794.282      426.961      357.532        0.303        0.079       66.592        7.939        0.014      342.496       17.947      863.075
07/21/2014  00:32:00       92.261       59.406       16.928       13.847       12.364       11.732      191.745      152.862      137.631        0.640        0.024      109.732        4.271        0.002      342.505       17.963      863.062
07/21/2014  00:33:00       60.656       43.122        7.047       14.484       17.087       14.865      209.797      291.976      220.960        0.316        0.036       74.422       11.750        0.025      342.532       18.009      863.066
07/21/2014  00:34:00       45.010       40.915        6.469       15.573       18.856       13.722      242.506      355.552      188.288        0.226        0.039       60.828       12.298        0.041      342.529       18.003      863.053
07/21/2014  00:35:00       -2.351        3.029        1.602       12.289       16.349       11.245      151.016      267.281      126.457        0.028        0.027        3.835        8.063        4.422      342.522       17.992      863.041
07/21/2014  00:36:00       -8.039       29.517       -5.220        8.260        8.065        4.562       68.234       65.051       20.810        0.056        0.008       30.592        2.210        0.005      342.564       18.061      863.032
07/21/2014  00:37:00      -27.206       12.976       -3.295       14.923       13.522        7.819      222.705      182.848       61.138        0.069        0.023       30.142        7.067        0.055      342.664       18.233      863.028
07/21/2014  00:38:00      -62.525       13.461        2.206       14.803       17.056       12.117      219.139      290.903      146.814        0.238        0.033       63.958        9.838        0.024      342.685       18.266      863.019
07/21/2014  00:39:00      -47.132      -25.166       -0.207       19.090       24.099       11.583      364.416      580.771      134.169        0.197        0.054       53.430        8.258        0.024      342.726       18.338      863.015
07/21/2014  00:40:00      -40.843      -25.961        7.097       29.770       22.550       15.989      886.263      508.492      255.642        0.202        0.083       48.396       17.756        0.135      342.751       18.380      863.015
07/21/2014  00:41:00      -65.793      -42.355        1.884       41.919       26.244       23.709     1757.201      688.756      562.111        0.457        0.150       78.248       23.612        0.091      342.784       18.434      863.013
07/21/2014  00:42:00      -48.208      -32.503       -1.522       34.648       21.981       15.866     1200.474      483.184      251.728        0.266        0.097       58.142       15.608        0.072      342.739       18.358      863.009
07/21/2014  00:43:00      -30.980      -37.204       -3.316       33.780       14.992        9.849     1141.056      224.757       96.995        0.191        0.073       48.414        6.078        0.016      342.774       18.416      863.000
07/21/2014  00:44:00      -61.923      -47.727       -9.142       22.018       19.726       14.629      484.814      389.112      214.000        0.364        0.054       78.181       14.493        0.034      342.792       18.448      862.994
07/21/2014  00:45:00      -19.696      -74.973       -5.317       16.948       12.584       12.227      287.232      158.349      149.510        0.332        0.030       77.517        9.065        0.014      342.803       18.466      862.979
07/21/2014  00:46:00      -40.852      -35.710      -10.834       25.530       21.619       15.347      651.758      467.370      235.541        0.221        0.068       54.259       11.076        0.042      342.829       18.511      862.962
07/21/2014  00:47:00      -68.847      -24.994      -12.076       24.164       23.041       10.742      583.892      530.866      115.384        0.337        0.062       73.244        9.861        0.018      342.795       18.453      862.957
07/21/2014  00:48:00      -66.094       -6.931       -1.494       20.617       15.912       13.337      425.064      253.182      177.869        0.264        0.043       66.457       12.460        0.035      342.759       18.394      862.948
07/21/2014  00:49:00      -58.776      -29.578       -2.089       17.649       14.161        9.447      311.493      200.537       89.248        0.247        0.030       65.799        6.426        0.010      342.758       18.391      862.932
07/21/2014  00:50:00      -54.438      -29.145        1.778       22.362       20.086       15.235      500.077      403.432      232.100        0.248        0.057       61.749       13.823        0.050      342.767       18.407      862.919
07/21/2014  00:51:00      -63.259      -40.593       -1.846       19.260       17.221       11.765      370.958      296.553      138.414        0.323        0.040       75.163        4.110        0.003      342.684       18.264      862.901
07/21/2014  00:52:00      -51.537      -75.333       -4.138       43.417       68.294       18.752     1885.037     4664.014      351.625        0.762        0.345       91.275       19.806        0.047      342.775       18.420      862.888
07/21/2014  00:53:00      -25.558     -115.690        6.687       38.637       34.285       31.389     1492.802     1175.449      985.243        0.887        0.183      118.479       28.164        0.057      342.775       18.420      862.877
07/21/2014  00:54:00      -49.107     -116.376       -5.390       25.128       33.234       19.929      631.423     1104.517      397.148        0.906        0.107      126.313       11.362        0.008      342.749       18.374      862.853
07/21/2014  00:55:00      -25.088      -84.783       -6.887       24.104       23.262       20.867      580.985      541.133      435.437        0.471        0.078       88.417       10.906        0.015      342.811       18.482      862.828
07/21/2014  00:56:00      -31.534      -60.452       -2.408       20.622       19.718       17.554      425.269      388.801      308.152        0.289        0.056       68.182        5.124        0.006      342.835       18.524      862.802
07/21/2014  00:57:00      -18.476      -16.961        3.176       20.906       17.974       10.228      437.070      323.064      104.609        0.075        0.043       25.081        8.317        0.110      342.807       18.474      862.798
07/21/2014  00:58:00      -22.920      -17.778        6.782       31.223       16.149       13.071      974.889      260.797      170.852        0.115        0.070       29.007        9.673        0.111      342.816       18.490      862.795
07/21/2014  00:59:00      -13.314        2.132        8.853       19.323       15.664       12.728      373.383      245.347      162.002        0.052        0.039       13.483       12.648        0.880      342.763       18.401      862.800
07/21/2014  01:00:00       14.470       -1.936       -2.658       10.026       20.589       16.875      100.525      423.918      284.751        0.051        0.040       14.599       12.244        0.703      342.822       18.504      862.806
07/21/2014  01:01:00       -9.477       33.394        0.898       15.418       39.055       12.449      237.722     1525.290      154.978        0.156        0.096       34.713       14.134        0.166      342.815       18.490      862.802
07/21/2014  01:02:00      -23.212       13.909       15.288       24.003       26.630       26.719      576.125      709.166      713.914        0.148        0.100       27.060       16.600        0.376      342.794       18.451      862.798
07/21/2014  01:03:00      -24.350      -16.348        9.435       26.062       31.331       15.733      679.246      981.624      247.529        0.143        0.095       29.329       11.011        0.141      342.858       18.562      862.791
07/21/2014  01:04:00      -44.809        5.048       -3.093       19.618       10.673       14.702      384.847      113.923      216.154        0.138        0.036       45.093        8.341        0.034      342.787       18.441      862.793
07/21/2014  01:05:00      -11.902       26.101       43.496       13.078       21.409       22.121      171.024      458.337      489.348        0.192        0.056       28.687       16.890        0.347      342.956       18.729      862.776
07/21/2014  01:06:00       79.159       48.105       22.986       52.112       25.021       29.798     2715.646      626.062      887.901        0.667        0.211       92.630       32.771        0.125      342.724       18.334      862.754
07/21/2014  01:07:00       68.111       49.390        4.739       36.776       29.959       22.979     1352.462      897.569      528.031        0.494        0.139       84.133       20.591        0.060      342.551       18.041      862.756
07/21/2014  01:08:00       76.928       66.050       -0.624       33.254       23.519       23.297     1105.824      553.128      542.733        0.624        0.110      101.393       15.510        0.023      342.504       17.960      862.755
07/21/2014  01:09:00       82.807       53.366        0.031       44.911       35.023       24.635     2016.970     1226.580      606.893        0.678        0.193       98.513       20.720        0.044      342.530       18.003      862.757
07/21/2014  01:10:00       73.839       55.061       13.218       32.592       30.643       26.091     1062.218      938.963      680.733        0.567        0.134       92.108       17.918        0.038      342.540       18.021      862.768
07/21/2014  01:11:00       54.053       78.475       -4.391       29.735       47.779       31.557      884.170     2282.824      995.840        0.663        0.208       95.289       29.963        0.099      342.524       17.995      862.791
07/21/2014  01:12:00       46.306       43.939       -5.608       36.494       29.898       19.711     1331.777      893.878      388.522        0.336        0.131       63.834       11.956        0.035      342.516       17.981      862.813
07/21/2014  01:13:00       46.025       50.048        4.806       31.271       26.520       21.272      977.878      703.332      452.494        0.339        0.107       67.994       17.911        0.069      342.497       17.948      862.833
07/21/2014  01:14:00       35.634       35.460        5.905       13.587       19.958       16.295      184.606      398.333      265.520        0.171        0.042       50.271        8.977        0.032      342.487       17.928      862.843
07/21/2014  01:15:00       51.645       35.149        1.134       25.096       14.874       15.491      629.800      221.224      239.980        0.250        0.055       62.471       10.652        0.029      342.500       17.952      862.846
07/21/2014  01:16:00       81.149       62.930        5.812       16.355       19.540       20.275      267.484      381.817      411.091        0.582        0.053      102.690       14.272        0.019      342.482       17.924      862.845
07/21/2014  01:17:00       29.915       68.733       59.814       42.110       33.448       33.349     1773.260     1118.736     1112.173        0.660        0.200       74.961       20.128        0.072      342.545       18.031      862.835
07/21/2014  01:18:00      120.594       68.717       34.371       46.062       42.738       29.256     2121.693     1826.522      855.924        1.262        0.240      138.798       15.677        0.013      342.510       17.971      862.840
07/21/2014  01:19:00      121.873       79.802       18.904       55.100       34.053       30.713     3036.009     1159.614      943.295        1.336        0.257      145.676       24.475        0.028      342.453       17.874      862.840
07/21/2014  01:20:00      129.448       79.739       26.987       37.078       35.305       39.950     1374.763     1246.416     1596.011        1.403        0.211      152.036       17.940        0.014      342.441       17.856      862.835
07/21/2014  01:21:00      137.054       57.982       22.421       71.284       41.988       41.110     5081.390     1762.992     1690.070        1.559        0.427      148.815       33.382        0.050      342.462       17.887      862.844
07/21/2014  01:22:00      141.384      107.714       10.511       51.770       37.952       37.080     2680.173     1440.379     1374.922        1.860        0.275      177.741       18.921        0.011      342.444       17.859      862.851
07/21/2014  01:23:00      112.094       91.727       10.153       56.010       35.724       40.640     3137.135     1276.199     1651.588        1.357        0.303      144.841       20.977        0.021      342.442       17.857      862.857
07/21/2014  01:24:00       80.627       53.515       29.451       36.620       37.192       26.633     1341.023     1383.268      709.294        0.683        0.172       96.771       18.869        0.038      342.467       17.897      862.858
07/21/2014  01:25:00       95.192       76.864        2.427       36.828       37.980       29.269     1356.303     1442.469      856.674        0.931        0.183      122.350       20.264        0.027      342.456       17.879      862.864
07/21/2014  01:26:00       72.049       58.256       12.209       39.938       28.006       29.761     1595.057      784.358      885.742        0.600        0.163       92.654       28.876        0.097      342.467       17.896      862.871
07/21/2014  01:27:00       80.334       54.568       17.082       36.867       34.947       24.120     1359.162     1221.316      581.766        0.644        0.158       97.114       18.703        0.037      342.490       17.936      862.876
07/21/2014  01:28:00      116.286       83.699       12.391       50.054       39.841       38.253     2505.371     1587.296     1463.284        1.312        0.278      143.276       21.956        0.023      342.471       17.905      862.882
07/21/2014  01:29:00      130.566       88.990       19.134       49.849       45.808       36.056     2484.907     2098.366     1300.070        1.561        0.294      158.008       31.958        0.041      342.473       17.908      862.896
07/21/2014  01:30:00      143.172       92.533       19.751       40.948       26.314       36.860     1676.774      692.434     1358.659        1.659        0.186      170.471       16.561        0.009      342.447       17.865      862.906
07/21/2014  01:31:00       78.917       50.021       50.360       59.610       46.217       38.574     3553.395     2135.998     1487.974        0.922        0.359       93.435       26.357        0.080      342.640       18.190      862.913
07/21/2014  01:32:00      170.796       93.066       20.460       63.319       61.074       38.074     4009.259     3729.980     1449.652        2.372        0.459      194.507       21.754        0.013      342.472       17.903      862.927
07/21/2014  01:33:00      104.732       58.869       37.561       70.990       58.383       47.979     5039.599     3408.583     2302.025        1.330        0.538      120.143       35.135        0.086      342.488       17.932      862.931
07/21/2014  01:34:00      171.243       92.177       17.056       86.320       64.471       44.365     7451.120     4156.496     1968.229        2.584        0.679      194.476       35.914        0.034      342.464       17.889      862.946
07/21/2014  01:35:00      157.848       72.716       23.833       79.754       53.886       50.362     6360.722     2903.692     2536.307        2.128        0.590      173.791       36.306        0.044      342.465       17.892      862.950
07/21/2014  01:36:00      114.322       80.319       21.823       53.493       50.845       40.930     2861.525     2585.236     1675.275        1.356        0.356      139.716       30.670        0.048      342.480       17.919      862.941
07/21/2014  01:37:00      109.256       54.885       42.041       65.405       42.328       52.477     4277.770     1791.648     2753.788        1.277        0.441      122.268       38.176        0.097      342.596       18.115      862.935
07/21/2014  01:38:00       76.038       35.829       61.970       79.213       55.858       49.759     6274.745     3120.146     2475.941        1.139        0.594       84.057       50.149        0.356      342.560       18.053      862.936
07/21/2014  01:39:00       76.826       19.735       26.982       73.115       45.199       39.464     5345.770     2042.927     1557.440        0.798        0.447       79.320       39.804        0.252      342.564       18.063      862.950
07/21/2014  01:40:00       38.347       54.112       54.968       40.952       41.161       35.057     1677.044     1694.208     1228.962        0.601        0.230       66.322       27.760        0.175      342.646       18.201      862.952
07/21/2014  01:41:00       58.554       77.257       63.920       46.394       38.413       30.365     2152.423     1475.556      922.012        0.902        0.227       96.939       16.701        0.030      342.655       18.217      862.951
07/21/2014  01:42:00      116.715       86.170       53.015       36.260       29.660       36.129     1314.776      879.722     1305.323        1.368        0.175      145.078       17.399        0.014      342.533       18.010      862.938
07/21/2014  01:43:00       74.744       70.091       52.330       71.884       45.177       55.976     5167.357     2040.947     3133.349        1.179        0.517      102.467       47.848        0.218      342.571       18.073      862.953
07/21/2014  01:44:00      113.907       43.117       38.475       68.133       70.621       47.406     4642.069     4987.321     2247.282        1.409        0.594      121.794       34.894        0.082      342.536       18.015      862.961
07/21/2014  01:45:00       49.637      -11.108        7.046       38.682       69.934       31.867     1496.264     4890.784     1015.529        0.502        0.370       50.865       28.078        0.305      342.559       18.054      862.982
07/21/2014  01:46:00       62.589       54.900       45.010       34.478       29.458       38.575     1188.699      867.745     1488.040        0.625        0.177       83.255       16.991        0.042      342.635       18.183      862.999
07/21/2014  01:47:00       39.528       57.959       78.522       46.023       32.818       24.203     2118.102     1077.020      585.781        0.743        0.189       70.155       17.580        0.063      342.689       18.274      862.984
07/21/2014  01:48:00       58.921       68.461       69.950       55.865       45.013       44.133     3120.911     2026.213     1947.765        1.007        0.355       90.325       29.919        0.110      342.636       18.184      862.988
07/21/2014  01:49:00       23.491       44.318       80.924       45.949       71.083       48.068     2111.335     5052.777     2310.569        0.927        0.474       50.159       51.126        1.039      342.722       18.331      862.979
07/21/2014  01:50:00        6.281       52.287       80.083       35.617       46.915       29.274     1268.557     2201.007      856.986        0.676        0.216       52.663       23.010        0.191      342.711       18.311      862.962
07/21/2014  01:51:00       21.713        7.644       55.287       45.388       59.377       34.330     2060.053     3525.598     1178.537        0.517        0.338       23.019       32.010        1.934      342.713       18.316      862.956
07/21/2014  01:52:00       61.055       40.658       70.211       49.075       45.474       31.106     2408.347     2067.905      967.558        0.788        0.272       73.354       17.496        0.057      342.728       18.341      862.963
07/21/2014  01:53:00       27.617       17.699       51.138       50.811       51.951       37.448     2581.707     2698.894     1402.385        0.519        0.334       32.802       34.726        1.121      342.754       18.385      862.973
07/21/2014  01:54:00       38.391      -28.197       45.625       48.550       57.629       32.926     2357.133     3321.083     1084.096        0.556        0.338       47.633       30.902        0.421      342.809       18.478      862.973
07/21/2014  01:55:00       45.519       30.459       53.170       34.910       45.668       22.107     1218.703     2085.572      488.730        0.481        0.190       54.770       13.556        0.061      342.681       18.261      862.977
07/21/2014  01:56:00       55.186       41.787       32.748       40.070       30.710       35.511     1605.580      943.131     1261.006        0.484        0.190       69.222       21.691        0.098      342.593       18.110      862.984
07/21/2014  01:57:00       14.397      -14.857       25.062       18.089       30.070       18.947      327.202      904.202      358.972        0.132        0.080       20.688       18.431        0.794      342.733       18.349      862.994
07/21/2014  01:58:00       40.026       39.539       42.738       22.233       23.356       19.545      494.287      545.514      381.991        0.321        0.071       56.262       11.150        0.039      342.558       18.052      863.009
07/21/2014  01:59:00        0.684      -53.940       17.416       24.421       37.877       22.107      596.396     1434.676      488.734        0.287        0.126       53.945       20.926        0.150      342.677       18.254      863.012
07/21/2014  02:00:00       83.474       39.492       32.763       61.192       68.721       23.239     3744.416     4722.549      540.065        0.930        0.450       92.345       24.291        0.069      342.570       18.072      863.000
07/21/2014  02:01:00      122.826       67.268       24.349       29.147       24.691       18.695      849.532      609.657      349.512        1.101        0.090      140.040        7.317        0.003      342.513       17.976      862.985
07/21/2014  02:02:00      104.430       34.599        2.102       54.125       36.950       29.397     2929.468     1365.307      864.178        0.863        0.258      110.013       14.615        0.018      342.537       18.017      862.968
07/21/2014  02:03:00       95.741       54.917       29.725       41.263       47.455       33.629     1702.665     2251.931     1130.921        0.907        0.254      110.373       25.899        0.055      342.549       18.035      862.980
07/21/2014  02:04:00       64.472       51.533       44.706       32.690       35.843       26.721     1068.636     1284.690      714.022        0.594        0.153       82.537       21.466        0.068      342.572       18.076      862.976
07/21/2014  02:05:00       99.565       58.199       24.020       20.998       19.675       30.863      440.924      387.109      952.503        0.783        0.089      115.327       20.139        0.030      342.542       18.025      862.978
07/21/2014  02:06:00       81.188       35.663       12.151       51.007       34.006       30.997     2601.714     1156.409      960.789        0.636        0.236       88.675       27.291        0.095      342.511       17.972      862.998
07/21/2014  02:07:00       62.201       53.206       38.634       23.785       25.521       26.223      565.737      651.311      687.653        0.505        0.095       81.852       15.540        0.036      342.517       17.980      863.004
07/21/2014  02:08:00      103.425       76.829       46.122       25.369       15.846       28.062      643.567      251.083      787.482        1.020        0.084      128.838       16.366        0.016      342.522       17.988      862.993
07/21/2014  02:09:00       40.482       44.133       41.961       52.368       34.642       18.469     2742.437     1200.054      341.092        0.481        0.214       59.888       21.073        0.124      342.541       18.021      862.986
07/21/2014  02:10:00       10.237       27.715       53.226       34.890       35.112       15.608     1217.290     1232.855      243.616        0.320        0.135       29.545        7.651        0.067      342.667       18.237      863.000
07/21/2014  02:11:00       24.127       38.263       50.906       31.729       30.405       17.438     1006.745      924.489      304.098        0.344        0.112       45.235       14.640        0.105      342.632       18.178      862.997
07/21/2014  02:12:00       30.691       38.486       51.011       29.361       23.496       14.610      862.083      552.079      213.464        0.333        0.081       49.225        8.626        0.031      342.595       18.115      862.992
07/21/2014  02:13:00       15.787       50.617       61.557       26.591       32.341       22.502      707.085     1045.921      506.328        0.443        0.113       53.022       19.436        0.134      342.670       18.242      862.974
07/21/2014  02:14:00       88.594       58.529       43.025       53.696       27.174       29.752     2883.269      738.438      885.157        0.882        0.225      106.182       25.640        0.058      342.702       18.295      862.953
07/21/2014  02:15:00       38.716       41.928       41.011       35.515       34.776       25.873     1261.325     1209.366      669.393        0.404        0.157       57.069       15.920        0.078      342.668       18.237      862.969
07/21/2014  02:16:00       -4.066      -68.131       16.578       31.020       29.466       26.305      962.240      868.264      691.968        0.373        0.126       68.252        9.738        0.020      342.893       18.622      862.997
07/21/2014  02:17:00       20.693      -80.286        3.084       23.907       26.864       19.785      571.538      721.678      391.442        0.428        0.084       82.910       18.862        0.052      342.762       18.397      863.011
07/21/2014  02:18:00       -1.344      -23.098       14.358       17.308       30.850       18.302      299.559      951.731      334.951        0.116        0.079       23.137       14.804        0.409      342.822       18.500      863.008
07/21/2014  02:19:00       47.419       25.131       20.129       40.052       25.719       21.893     1604.169      661.480      479.312        0.301        0.137       53.667       12.546        0.055      342.701       18.294      863.017
07/21/2014  02:20:00       41.926       29.884       33.204       19.305       15.590       14.525      372.675      243.037      210.964        0.229        0.041       51.486       10.552        0.042      342.636       18.183      863.018
07/21/2014  02:21:00       64.422       49.184       39.466       33.516       19.191       21.505     1123.318      368.288      462.455        0.504        0.098       81.051       14.471        0.032      342.700       18.294      863.029
07/21/2014  02:22:00       59.532       64.004       36.120       29.449       14.618       21.099      867.236      213.694      445.173        0.524        0.076       87.411       11.733        0.018      342.728       18.336      863.033
07/21/2014  02:23:00       58.552       44.881       38.877       31.576       23.467       21.506      997.047      550.716      462.520        0.448        0.101       73.775        7.903        0.011      342.722       18.330      863.032
07/21/2014  02:24:00       50.438       56.192       42.727       21.623       20.073       25.159      467.536      402.941      632.977        0.451        0.075       75.508       15.994        0.045      342.717       18.320      863.033
07/21/2014  02:25:00       32.841       53.974       71.583       27.312       28.211       14.269      745.962      795.875      203.606        0.543        0.087       63.180        8.317        0.017      342.762       18.399      863.034
07/21/2014  02:26:00       26.233       61.273       69.009       32.188       27.035       17.896     1036.079      730.898      320.277        0.565        0.104       66.652        6.881        0.011      342.794       18.453      863.029
07/21/2014  02:27:00      -15.354       19.054       45.678       19.380       34.937       28.649      375.603     1220.625      820.764        0.255        0.121       24.470       17.086        0.488      342.805       18.472      863.027
07/21/2014  02:28:00       33.165      -82.358       10.907       27.398       25.093       28.578      750.655      629.646      816.694        0.510        0.110       88.785       18.357        0.043      342.821       18.498      863.042
07/21/2014  02:29:00       32.092      -71.021        9.424       24.707       22.717       22.401      610.460      516.055      501.807        0.390        0.081       77.935       14.241        0.033      342.884       18.607      863.043
07/21/2014  02:30:00       64.950      -85.874        4.459       30.881       24.264       25.802      953.630      588.755      665.721        0.691        0.110      107.671       12.835        0.014      342.990       18.786      863.030
07/21/2014  02:31:00       13.361      -20.156       14.846       31.920       53.747       20.997     1018.917     2888.739      440.893        0.258        0.217       24.183       23.054        0.909      342.806       18.473      863.018
07/21/2014  02:32:00       58.064       42.576       15.814       30.220       19.657       19.569      913.251      386.406      382.934        0.356        0.084       72.001       11.711        0.026      342.685       18.269      862.999
07/21/2014  02:33:00       85.355       53.900        9.373       18.823       20.950       19.064      354.310      438.922      363.435        0.572        0.058      100.949       10.613        0.011      342.626       18.167      862.994
07/21/2014  02:34:00       37.962       26.315       -4.546       39.183       17.773       16.982     1535.290      315.875      288.390        0.215        0.107       46.191       11.381        0.061      342.592       18.109      863.006
07/21/2014  02:35:00       29.152       21.600        6.611       22.132       16.423       14.911      489.819      269.726      222.340        0.117        0.049       36.283       12.036        0.110      342.574       18.077      863.007
07/21/2014  02:36:00       26.631       36.216        1.204       13.891       17.281       14.130      192.968      298.629      199.646        0.136        0.035       44.954       10.671        0.056      342.556       18.045      863.013
07/21/2014  02:37:00       36.978       49.287        6.112       27.026       16.873       16.460      730.429      284.682      270.927        0.256        0.064       61.617        9.341        0.023      342.573       18.077      863.019
07/21/2014  02:38:00       72.169       46.832        5.480       16.729       13.142       14.034      279.851      172.703      196.966        0.404        0.032       86.033       10.788        0.016      342.581       18.091      863.014
07/21/2014  02:39:00       95.942       53.665        2.511       13.993       11.975       15.792      195.799      143.399      249.387        0.634        0.029      109.931        7.190        0.004      342.561       18.055      863.002
07/21/2014  02:40:00       87.444       39.683        4.756       28.141       24.897       18.506      791.892      619.841      342.477        0.550        0.088       96.027        9.004        0.009      342.580       18.091      863.009
07/21/2014  02:41:00       56.205       23.144        4.781       28.782       22.814       15.626      828.393      520.468      244.157        0.265        0.080       60.784        6.706        0.012      342.592       18.112      863.023
07/21/2014  02:42:00       57.148       46.857       10.628       32.066       15.465       15.818     1028.225      239.152      250.210        0.355        0.076       73.902       15.858        0.046      342.612       18.143      863.033
07/21/2014  02:43:00       17.046       27.801       32.506       21.767       20.775       18.444      473.819      431.608      340.184        0.168        0.062       32.611        9.829        0.091      342.628       18.170      863.056
07/21/2014  02:44:00       43.677       36.649       25.875       12.605       11.823       13.817      158.890      139.793      190.896        0.220        0.024       57.016        8.330        0.021      342.577       18.086      863.074
07/21/2014  02:45:00       53.639       39.193       18.069        9.777        8.213        8.629       95.597       67.449       74.461        0.249        0.012       66.432        5.653        0.007      342.585       18.099      863.083
07/21/2014  02:46:00       64.932       33.795       10.991        9.945        8.615        7.746       98.909       74.221       60.004        0.286        0.012       73.200        4.276        0.003      342.580       18.093      863.089
07/21/2014  02:47:00       56.264       30.607       14.514        6.419        6.575        8.438       41.204       43.234       71.206        0.223        0.008       64.050        3.629        0.003      342.582       18.097      863.091
07/21/2014  02:48:00       55.585       34.821        5.662        9.327        9.335       13.948       86.994       87.150      194.533        0.235        0.018       65.591        5.296        0.007      342.596       18.119      863.089
07/21/2014  02:49:00       49.107       40.135       15.807       12.122       16.606       15.502      146.938      275.749      240.320        0.247        0.033       63.421        8.255        0.017      342.598       18.121      863.084
07/21/2014  02:50:00       33.986       41.835       12.620       19.766       13.307       16.604      390.680      177.069      275.697        0.195        0.042       53.900       13.498        0.063      342.634       18.180      863.082
07/21/2014  02:51:00       50.416       54.182       45.452       12.383       14.641       16.591      153.336      214.373      275.248        0.409        0.032       74.010       10.807        0.021      342.589       18.104      863.070
07/21/2014  02:52:00       32.470       47.239       59.305       25.706       24.829       10.039      660.800      616.469      100.781        0.409        0.069       57.322       10.920        0.036      342.645       18.197      863.063
07/21/2014  02:53:00       52.443       52.111       40.233       19.368       22.697       13.847      375.126      515.174      191.747        0.408        0.054       73.932       10.350        0.020      342.609       18.138      863.075
07/21/2014  02:54:00       16.133        8.079       26.996       16.803       19.977       12.736      282.346      399.071      162.198        0.095        0.042       18.043       13.308        0.544      342.723       18.332      863.081
07/21/2014  02:55:00       17.118      -64.486       -4.976       24.732       21.595       15.602      611.654      466.329      243.424        0.290        0.066       66.720       11.630        0.030      342.891       18.617      863.089
07/21/2014  02:56:00       16.790      -45.667       -5.588       13.547       13.883       12.228      183.513      192.741      149.514        0.146        0.026       48.656        7.306        0.023      342.837       18.530      863.095
07/21/2014  02:57:00       19.964      -43.909        5.081       17.483       17.250       20.273      305.654      297.546      410.984        0.168        0.051       48.234       15.856        0.108      342.784       18.435      863.092
07/21/2014  02:58:00       17.198        2.800       14.140       11.959       14.787       11.653      143.023      218.662      135.785        0.050        0.025       17.425        7.084        0.165      342.728       18.337      863.095
07/21/2014  02:59:00       23.187       32.155       12.703       20.086       15.442       21.594      403.446      238.459      466.320        0.142        0.055       39.643       14.022        0.125      342.660       18.224      863.091
07/21/2014  03:00:00       53.578       19.912       19.025       27.021       21.107       17.556      730.151      445.521      308.211        0.256        0.074       57.159       10.682        0.035      342.648       18.203      863.090
07/21/2014  03:01:00       45.268       31.854       26.350       15.621       13.495       14.108      244.002      182.107      199.031        0.219        0.031       55.352        8.448        0.023      342.648       18.203      863.104
07/21/2014  03:02:00       57.357       26.888        7.314       13.006       24.129       11.409      169.147      582.216      130.157        0.247        0.044       63.346        9.756        0.024      342.643       18.194      863.111
07/21/2014  03:03:00       50.809       39.483        7.196       11.370       17.378       15.478      129.286      301.986      239.576        0.243        0.034       64.347        9.841        0.023      342.660       18.225      863.114
07/21/2014  03:04:00       48.499       54.840       36.969        9.014       10.657        7.911       81.254      113.562       62.590        0.349        0.013       73.209        5.932        0.007      342.656       18.217      863.127
07/21/2014  03:05:00       49.665       51.081       19.084       14.625       12.568       14.825      213.905      157.956      219.779        0.302        0.030       71.245        7.381        0.011      342.658       18.221      863.136
07/21/2014  03:06:00       40.833       43.810       24.055       19.639       13.837       14.080      385.685      191.463      198.258        0.247        0.039       59.889        7.829        0.017      342.647       18.202      863.137
07/21/2014  03:07:00       50.884       33.310       21.297       15.113       11.753       13.097      228.404      138.123      171.522        0.235        0.027       60.817        9.770        0.026      342.642       18.192      863.142
07/21/2014  03:08:00       50.186       27.233        7.620        8.623       10.551        9.677       74.360      111.319       93.647        0.180        0.014       57.099        6.453        0.013      342.634       18.177      863.152
07/21/2014  03:09:00       54.660       39.588        6.884       10.191        7.525        9.413      103.858       56.630       88.595        0.243        0.012       67.490        5.842        0.007      342.640       18.187      863.158
07/21/2014  03:10:00       68.299       46.191       14.074       13.528       10.080       11.010      183.008      101.603      121.214        0.370        0.020       82.452        5.243        0.004      342.681       18.260      863.158
07/21/2014  03:11:00       74.560       45.359       21.906       17.281       15.554       19.445      298.643      241.912      378.099        0.451        0.046       87.273       10.500        0.014      342.684       18.266      863.174
07/21/2014  03:12:00       92.419       50.585       14.233       18.322       15.721       18.222      335.679      247.156      332.049        0.611        0.046      105.357        4.277        0.002      342.664       18.230      863.180
07/21/2014  03:13:00       48.531       40.864        5.572       23.021       20.226       17.672      529.985      409.077      312.306        0.265        0.063       63.444       11.786        0.035      342.548       18.034      863.187
07/21/2014  03:14:00       29.097       14.082        9.461       20.914       22.035       18.434      437.388      485.557      339.801        0.120        0.063       32.325       14.542        0.202      342.571       18.072      863.187
07/21/2014  03:15:00       65.522       43.756        9.317       18.546       21.115       21.553      343.938      445.857      464.546        0.377        0.063       78.789       12.038        0.023      342.548       18.032      863.182
07/21/2014  03:16:00       85.554       43.870       11.840       23.585       20.647       20.414      556.240      426.312      416.749        0.539        0.070       96.146       17.441        0.033      342.545       18.030      863.187
07/21/2014  03:17:00       71.662       47.993        9.320       23.907       20.500       19.976      571.532      420.241      399.042        0.446        0.070       86.248       16.946        0.039      342.550       18.037      863.207
07/21/2014  03:18:00       60.995       47.728       19.272       14.830       11.394       14.037      219.933      129.823      197.047        0.346        0.027       77.449        8.712        0.013      342.563       18.060      863.222
07/21/2014  03:19:00       49.710       43.900       22.665       16.216       12.820       10.311      262.963      164.352      106.317        0.272        0.027       66.320        9.302        0.020      342.571       18.074      863.225
07/21/2014  03:20:00       63.832       57.126       33.301       14.756       13.521       14.883      217.740      182.804      221.518        0.453        0.031       85.661        8.589        0.010      342.611       18.141      863.214
07/21/2014  03:21:00       80.475       59.944       31.645       11.565       14.012       12.843      133.752      196.341      164.934        0.578        0.025      100.347        5.747        0.003      342.566       18.063      863.205
07/21/2014  03:22:00       73.811       53.915       18.651       12.867        9.044       11.014      165.568       81.798      121.313        0.454        0.018       91.405        5.980        0.004      342.564       18.060      863.215
07/21/2014  03:23:00       58.531       47.136       34.478       26.463       23.027       20.325      700.305      530.230      413.105        0.424        0.082       75.151        8.224        0.012      342.598       18.119      863.224
07/21/2014  03:24:00       65.393       22.399       13.183       38.041       18.056       24.901     1447.132      326.023      620.042        0.367        0.120       69.123       20.654        0.089      342.586       18.099      863.231
07/21/2014  03:25:00       53.005       41.920        2.533       19.580       27.118       15.962      383.377      735.368      254.795        0.297        0.069       67.578       10.898        0.026      342.520       17.988      863.234
07/21/2014  03:26:00       69.971       42.823       11.586       14.552       11.257       16.503      211.751      126.711      272.346        0.374        0.031       82.034        6.971        0.007      342.531       18.004      863.247
07/21/2014  03:27:00       43.465       34.936       -3.839       10.746       16.273        7.880      115.476      264.818       62.088        0.178        0.022       55.765        7.486        0.018      342.527       18.000      863.256
07/21/2014  03:28:00       15.087       44.059       -4.739       15.687        9.565       12.173      246.071       91.490      148.179        0.134        0.024       46.571        8.236        0.031      342.524       17.995      863.251
07/21/2014  03:29:00       10.211       31.695       -2.256       12.313       35.107       15.737      151.603     1232.479      247.669        0.137        0.082       33.299       18.826        0.320      342.516       17.984      863.247
07/21/2014  03:30:00       13.925       57.408       -8.781       10.383       23.088        9.925      107.797      533.046       98.501        0.215        0.037       59.072        9.298        0.025      342.499       17.955      863.242
07/21/2014  03:31:00       24.797       37.395        2.536       20.451       21.431       13.128      418.234      459.295      172.348        0.153        0.052       44.869       10.257        0.052      342.499       17.956      863.230
07/21/2014  03:32:00       19.911       54.041       -3.749       12.831       17.908       14.281      164.636      320.698      203.935        0.201        0.034       57.592        7.438        0.017      342.498       17.952      863.228
07/21/2014  03:33:00        2.097       46.000       -6.970       16.650       10.828        8.726      277.217      117.241       76.152        0.132        0.024       46.048        8.503        0.034      342.515       17.980      863.240
07/21/2014  03:34:00       -3.175       55.921       -5.081       13.537       21.624       10.506      183.251      467.605      110.370        0.196        0.038       56.011       10.696        0.036      342.517       17.984      863.255
07/21/2014  03:35:00        6.401       79.239       -6.725        8.727       11.722        9.486       76.164      137.401       89.984        0.333        0.015       79.497        6.574        0.007      342.499       17.953      863.252
07/21/2014  03:36:00       24.677       45.925       -0.379       17.663       24.486       13.132      311.965      599.543      172.439        0.190        0.054       52.135       11.566        0.049      342.491       17.940      863.244
07/21/2014  03:37:00       37.965       21.399       -3.534       18.883       12.398       13.210      356.559      153.701      174.506        0.130        0.034       43.581       10.660        0.060      342.513       17.977      863.237
07/21/2014  03:38:00       56.764       29.042       -0.259       15.137       17.427       10.441      229.134      303.690      109.022        0.235        0.032       63.762        7.271        0.013      342.524       17.994      863.239
07/21/2014  03:39:00       71.321       35.788       -2.778       17.520       13.066       10.583      306.938      170.729      112.003        0.348        0.029       79.796        2.774        0.001      342.499       17.953      863.235
07/21/2014  03:40:00       60.914       45.638        6.900       17.670       15.516       17.169      312.229      240.762      294.786        0.334        0.042       76.114       12.905        0.029      342.503       17.957      863.237
07/21/2014  03:41:00       41.259       34.862        4.574       22.161       17.828       15.265      491.094      317.841      233.034        0.199        0.052       54.015       11.320        0.044      342.498       17.950      863.241
07/21/2014  03:42:00       19.072       15.298        1.717       27.425       14.740       13.474      752.106      217.258      181.536        0.088        0.058       24.449       15.518        0.403      342.467       17.895      863.232
07/21/2014  03:43:00       -5.261        3.363       -5.281       16.734       10.718        9.215      280.016      114.866       84.924        0.027        0.024        6.244       10.171        2.654      342.457       17.877      863.225
07/21/2014  03:44:00      -24.934       -5.826       -5.268       11.777        7.228        6.658      138.690       52.244       44.334        0.046        0.012       25.606        5.211        0.041      342.481       17.917      863.228
07/21/2014  03:45:00      -17.532        9.644       -4.032       10.546       13.465       10.393      111.215      181.317      108.012        0.041        0.020       20.009        4.535        0.051      342.548       18.034      863.236
07/21/2014  03:46:00      -43.294       11.340        4.991       21.207       11.505       11.433      449.720      132.372      130.721        0.137        0.036       44.754       13.535        0.091      342.516       17.981      863.247
07/21/2014  03:47:00       18.486       18.596       13.943       15.124        9.162        9.023      228.730       83.935       81.414        0.064        0.020       26.221        6.308        0.058      342.489       17.934      863.256
07/21/2014  03:48:00       30.582       32.815       12.487       18.532       13.825       10.713      343.448      191.128      114.763        0.141        0.032       44.856        9.215        0.042      342.493       17.941      863.264
07/21/2014  03:49:00      116.802       82.740       19.541       24.863       19.836       23.088      618.157      393.466      533.044        1.121        0.077      143.138       13.371        0.009      342.521       17.989      863.261
07/21/2014  03:50:00       78.672       47.884       35.135       41.941       27.144       26.525     1759.074      736.785      703.586        0.646        0.160       92.099       23.041        0.063      342.557       18.049      863.252
07/21/2014  03:51:00       80.417       32.488       16.479       42.948       29.839       33.344     1844.495      890.348     1111.802        0.582        0.192       86.732       17.351        0.040      342.510       17.972      863.250
07/21/2014  03:52:00       53.711       42.545       24.251       25.178       22.569       26.979      633.952      509.361      727.889        0.358        0.094       68.520       12.044        0.031      342.517       17.982      863.274
07/21/2014  03:53:00       28.245       34.748        5.243       17.437       19.867       17.898      304.051      394.711      320.348        0.153        0.051       44.780        5.118        0.013      342.512       17.973      863.289
07/21/2014  03:54:00        9.245        8.375       -1.224       22.162       17.222       15.293      491.165      296.613      233.875        0.059        0.051       12.474        8.996        0.520      342.435       17.844      863.289
07/21/2014  03:55:00       13.430      -27.960        3.912       21.333       35.025       13.547      455.077     1226.735      183.511        0.142        0.093       31.018       15.724        0.257      342.531       18.007      863.278
07/21/2014  03:56:00       15.643       33.598       25.660       30.747       27.122       21.639      945.349      735.593      468.228        0.209        0.107       37.062        9.998        0.073      342.581       18.091      863.262
07/21/2014  03:57:00      104.199       82.888       47.719       46.342       33.504       38.255     2147.626     1122.524     1463.422        1.237        0.237      133.146       30.007        0.051      342.570       18.072      863.257
07/21/2014  03:58:00       84.794       51.489       54.790       53.198       33.773       34.583     2830.045     1140.620     1195.984        0.900        0.258       99.203       31.384        0.100      342.510       17.971      863.251
07/21/2014  03:59:00       15.039       22.808       34.214       25.259       23.850       19.943      638.018      568.844      397.742        0.176        0.080       27.319        9.562        0.123      342.556       18.049      863.258
07/21/2014  04:00:00      131.087       91.967       31.258       56.647       41.825       36.626     3208.851     1749.299     1341.487        1.646        0.315      160.131       35.074        0.048      342.543       18.026      863.245
07/21/2014  04:01:00       83.732       66.114       33.168       45.064       26.290       39.627     2030.765      691.185     1570.270        0.839        0.215      106.687       26.459        0.062      342.587       18.103      863.228
07/21/2014  04:02:00       -8.114        8.285       30.673       28.099       31.884       36.280      789.531     1016.559     1316.247        0.210        0.156       11.597       34.058        8.625      342.579       18.088      863.232
07/21/2014  04:03:00      -19.361      -56.914       -6.474       20.185       36.273       20.597      407.446     1315.702      424.224        0.290        0.107       60.117       12.897        0.046      342.736       18.355      863.248
07/21/2014  04:04:00       37.595       52.051      -18.493       31.492       44.987       25.395      991.746     2023.810      644.895        0.406        0.183       64.208       25.516        0.158      342.563       18.061      863.253
07/21/2014  04:05:00      107.680       63.662       17.139       38.690       25.737       21.615     1496.922      662.382      467.201        0.928        0.131      125.091       14.345        0.013      342.503       17.957      863.246
07/21/2014  04:06:00      102.492       51.656       29.827       54.362       32.075       32.433     2955.266     1028.836     1051.896        0.955        0.252      114.773       26.573        0.054      342.463       17.891      863.241
07/21/2014  04:07:00      -10.720       -5.971       37.842       26.973       44.615       23.696      727.553     1990.480      561.517        0.243        0.164       12.271       20.253        2.724      342.578       18.084      863.245
07/21/2014  04:08:00       48.009     -100.547      -12.605       38.083       46.958       31.455     1450.352     2205.038      989.448        0.861        0.232      111.421       29.478        0.070      342.534       18.009      863.252
07/21/2014  04:09:00       77.790      -92.739       -4.413       35.201       63.507       28.117     1239.083     4033.177      790.559        1.037        0.303      121.045       28.844        0.057      342.502       17.957      863.254
07/21/2014  04:10:00       10.151       67.408       42.195       35.929       45.338       34.060     1290.881     2055.537     1160.081        0.547        0.225       68.168       23.635        0.120      342.619       18.156      863.257
07/21/2014  04:11:00      -27.720       16.261       -5.763       28.038       35.511       19.007      786.119     1261.046      361.270        0.174        0.120       32.137       11.010        0.117      342.675       18.250      863.268
07/21/2014  04:12:00      -10.736       38.264       -4.286       36.046       25.502       20.533     1299.300      650.363      421.597        0.198        0.119       39.742       18.707        0.222      342.652       18.213      863.271
07/21/2014  04:13:00      -59.676      -22.223        4.479       36.327       39.034       24.530     1319.618     1523.652      601.743        0.376        0.172       63.679       18.463        0.084      342.633       18.178      863.281
07/21/2014  04:14:00       10.022     -100.226       -8.781       37.859       41.327       31.813     1433.340     1707.943     1012.066        0.719        0.208      100.726       23.048        0.052      342.673       18.248      863.295
07/21/2014  04:15:00       -0.933       22.700       53.856       38.377       52.355       42.257     1472.822     2741.088     1785.627        0.471        0.300       22.719       42.224        3.454      342.645       18.200      863.282
07/21/2014  04:16:00      -21.539      -27.565        6.848       28.844       31.461       34.951      831.980      989.783     1221.550        0.216        0.152       34.983       27.710        0.627      342.669       18.240      863.291
07/21/2014  04:17:00      -29.426      -32.853      -20.900       27.013       31.838       17.910      729.688     1013.686      320.757        0.222        0.103       44.105       17.041        0.149      342.557       18.051      863.319
07/21/2014  04:18:00      -14.498       25.425       -1.973       19.359       19.835       17.475      374.788      393.420      305.387        0.097        0.054       29.268       16.531        0.319      342.483       17.925      863.325
07/21/2014  04:19:00       43.545      -62.736      -12.054       43.849       39.403       26.251     1922.730     1552.580      689.101        0.507        0.208       76.367       28.889        0.143      342.571       18.072      863.320
07/21/2014  04:20:00       49.417      -17.594       19.537       41.953       51.699       48.736     1760.088     2672.811     2375.171        0.497        0.340       52.455       42.798        0.666      342.485       17.927      863.325
07/21/2014  04:21:00       28.458      -61.642       -1.756       34.533       59.756       35.880     1192.504     3570.811     1287.348        0.533        0.303       67.894       32.666        0.231      342.519       17.986      863.332
07/21/2014  04:22:00        4.733       50.672       83.019       35.153       45.029       35.780     1235.729     2027.631     1280.224        0.701        0.227       50.892       33.503        0.433      342.661       18.227      863.299
07/21/2014  04:23:00        3.650       20.586       65.360       28.038       45.987       25.966      786.116     2114.843      674.249        0.414        0.179       20.907       26.575        1.616      342.643       18.197      863.293
07/21/2014  04:24:00       17.699       33.645       42.884       26.156       25.819       25.783      684.118      666.631      664.783        0.265        0.101       38.017       14.287        0.141      342.568       18.068      863.298
07/21/2014  04:25:00      -35.052       28.541       -7.689       28.468       20.018       10.657      810.428      400.731      113.568        0.171        0.066       45.202        9.907        0.048      342.436       17.846      863.308
07/21/2014  04:26:00       -3.757        8.080        3.699       16.595       14.802       16.821      275.390      219.097      282.947        0.044        0.039        8.910       11.073        1.545      342.413       17.804      863.301
07/21/2014  04:27:00       36.560       13.204       17.532       51.120       20.603       18.595     2613.257      424.471      345.761        0.260        0.169       38.871        9.030        0.054      342.422       17.822      863.290
07/21/2014  04:28:00       -4.044       -6.420       -2.730       17.481        8.815       11.060      305.573       77.709      122.329        0.029        0.025        7.587        6.706        0.781      342.374       17.738      863.287
07/21/2014  04:29:00       92.068       58.849       21.592       79.948       50.538       37.550     6391.717     2554.102     1410.020        1.138        0.518      109.269       44.229        0.164      342.427       17.830      863.256
07/21/2014  04:30:00      162.903       92.912       13.230       32.594       30.672       29.813     1062.361      940.747      888.822        1.912        0.145      187.537       14.697        0.006      342.399       17.781      863.217
07/21/2014  04:31:00       78.763       69.607        5.076       34.902       35.336       28.959     1218.130     1248.652      838.632        0.719        0.165      105.112       17.178        0.027      342.368       17.728      863.197
07/21/2014  04:32:00       45.760       72.572       -5.959       31.135       35.472       25.100      969.389     1258.284      630.017        0.513        0.143       85.794       12.088        0.020      342.306       17.622      863.180
07/21/2014  04:33:00       68.661       73.344        3.943       27.369       34.215       28.876      749.076     1170.638      833.832        0.643        0.138      100.467       20.398        0.041      342.264       17.550      863.137
07/21/2014  04:34:00       53.678      111.962       -6.023       32.594       45.129       28.177     1062.350     2036.623      793.950        0.967        0.195      124.164       24.160        0.038      342.292       17.598      863.069
07/21/2014  04:35:00       38.483      161.056      -14.793       37.725       52.608       35.573     1423.139     2767.652     1265.414        1.655        0.273      165.590       32.166        0.038      342.248       17.524      863.022
07/21/2014  04:36:00       69.686      104.578        5.637       64.282       52.948       47.256     4132.203     2803.450     2233.152        1.249        0.458      125.669       32.231        0.066      342.228       17.491      862.985
07/21/2014  04:37:00       58.517      120.498       -6.106       50.981       55.479       46.827     2599.064     3077.973     2192.728        1.292        0.393      133.955       36.308        0.073      342.225       17.485      862.950
07/21/2014  04:38:00       55.555       79.660       12.332       75.169       59.427       44.087     5650.410     3531.533     1943.626        1.035        0.556       97.119       29.676        0.093      342.235       17.503      862.928
07/21/2014  04:39:00       34.026       99.384       -5.797       60.774       69.462       31.400     3693.493     4824.905      985.933        1.028        0.475      105.047       27.200        0.067      342.250       17.527      862.916
07/21/2014  04:40:00       41.071       80.674        5.529       42.932       54.306       29.954     1843.188     2949.195      897.249        0.696        0.284       90.527       24.917        0.076      342.223       17.482      862.915
07/21/2014  04:41:00       58.203       61.931        7.672       31.350       40.870       34.468      982.823     1670.385     1188.036        0.556        0.192       84.988       25.919        0.093      342.239       17.510      862.926
07/21/2014  04:42:00       67.695       38.059       -4.034       33.436       29.791       22.723     1117.959      887.516      516.324        0.428        0.126       77.660       13.576        0.031      342.232       17.496      862.928
07/21/2014  04:43:00       81.451       63.810        0.896       44.473       29.103       30.658     1977.835      846.983      939.911        0.723        0.188      103.470       18.000        0.030      342.255       17.534      862.937
07/21/2014  04:44:00       19.380       22.796       -5.452       24.713       14.483       20.447      610.740      209.751      418.089        0.108        0.062       29.920       17.632        0.347      342.378       17.747      862.946
07/21/2014  04:45:00        5.867        7.589       12.617       11.893       21.753       15.513      141.434      473.195      240.638        0.055        0.043        9.593       12.356        1.659      342.439       17.848      862.978
07/21/2014  04:46:00       16.711      -48.277       -7.469       23.242       24.622       22.714      540.192      606.222      515.909        0.216        0.083       51.088       12.961        0.064      342.515       17.979      863.012
07/21/2014  04:47:00        7.034      -46.065       -4.118       26.877       17.215       21.771      722.351      296.344      473.968        0.184        0.075       46.599        9.828        0.044      342.537       18.016      863.026
07/21/2014  04:48:00      -15.837      -39.426       -3.308       15.865       12.315       12.226      251.704      151.650      149.468        0.118        0.028       42.488        6.227        0.021      342.413       17.806      863.027
07/21/2014  04:49:00      -14.605        2.302       -2.836       10.017        9.026        6.523      100.349       81.467       42.549        0.023        0.011       14.785        4.492        0.092      342.378       17.746      863.016
07/21/2014  04:50:00       21.483       14.162        8.349       30.281       15.526       20.953      916.938      241.070      439.016        0.116        0.080       25.731       10.251        0.159      342.384       17.756      863.010
07/21/2014  04:51:00       57.648       35.015       18.069       27.073       27.255       17.948      732.923      742.820      322.135        0.334        0.090       67.448       16.672        0.061      342.414       17.806      863.006
07/21/2014  04:52:00       12.687       52.119       68.893       37.362       33.220       22.407     1395.924     1103.563      502.081        0.531        0.150       53.641       20.467        0.146      342.424       17.825      863.015
07/21/2014  04:53:00       18.766       37.368       33.065       25.655       27.936       16.038      658.160      780.395      257.202        0.227        0.085       41.815       14.097        0.114      342.361       17.717      863.057
07/21/2014  04:54:00        0.483      -13.446       14.601       15.418       34.926       21.485      237.724     1219.842      461.614        0.116        0.096       13.455       23.670        3.095      342.444       17.859      863.098
07/21/2014  04:55:00       25.171      -40.159       -0.641       31.571       24.401       24.526      996.731      595.393      601.541        0.222        0.110       47.395       22.209        0.220      342.468       17.900      863.119
07/21/2014  04:56:00       -2.046      -30.924       24.023       18.079       41.620       27.260      326.861     1732.249      743.125        0.217        0.140       30.992       15.963        0.265      342.398       17.780      863.139
07/21/2014  04:57:00       33.671      -40.419       17.062       36.817       38.003       31.164     1355.513     1444.232      971.186        0.341        0.189       52.607       27.416        0.272      342.344       17.687      863.165
07/21/2014  04:58:00       35.007      -64.873        5.813       33.136       30.965       29.014     1098.003      958.818      841.807        0.418        0.145       73.716       24.519        0.111      342.398       17.780      863.184
07/21/2014  04:59:00       71.476      -81.070      -19.080       23.825       23.175       15.898      567.612      537.077      252.761        0.670        0.068      108.079        7.529        0.005      342.382       17.750      863.189
07/21/2014  05:00:00       56.313      -85.745      -10.714       33.698       38.125       23.601     1135.585     1453.506      557.027        0.689        0.157      102.583       16.529        0.026      342.503       17.958      863.194
07/21/2014  05:01:00       33.006      -49.397       13.285       39.667       54.652       30.458     1573.443     2986.888      927.670        0.460        0.274       59.410       35.292        0.353      342.535       18.012      863.203
07/21/2014  05:02:00       39.060      -79.380       -3.286       37.831       47.234       35.521     1431.183     2231.090     1261.748        0.638        0.246       88.470       23.936        0.073      342.512       17.973      863.207
07/21/2014  05:03:00       20.568      -68.974        8.876       42.345       47.653       37.901     1793.061     2270.826     1436.451        0.538        0.275       71.976       25.833        0.129      342.583       18.095      863.221
07/21/2014  05:04:00       23.467      -56.017        4.703       36.678       42.672       32.368     1345.265     1820.931     1047.703        0.396        0.211       60.734       24.689        0.165      342.613       18.144      863.238
07/21/2014  05:05:00       39.728      -36.965        6.117       34.531       42.034       23.948     1192.368     1766.882      573.496        0.326        0.177       54.266       26.808        0.244      342.423       17.821      863.251
07/21/2014  05:06:00       34.929      -22.042       16.263       37.720       42.070       30.677     1422.773     1769.906      941.052        0.305        0.207       41.302       33.053        0.640      342.414       17.805      863.258
07/21/2014  05:07:00       51.630       36.532       32.380       36.084       47.028       29.032     1302.059     2211.672      842.860        0.470        0.218       63.247       28.905        0.209      342.494       17.943      863.268
07/21/2014  05:08:00      101.698       53.625       31.355       34.108       29.438       31.466     1163.347      866.605      990.135        0.861        0.151      114.970       21.926        0.036      342.390       17.766      863.294
07/21/2014  05:09:00       90.231       38.574       28.382       37.838       26.382       29.646     1431.680      695.993      878.864        0.672        0.150       98.130       24.830        0.064      342.396       17.778      863.301
07/21/2014  05:10:00       64.306       28.983       25.077       43.768       41.646       30.473     1915.632     1734.376      928.605        0.509        0.229       70.536       12.811        0.033      342.311       17.632      863.306
07/21/2014  05:11:00       90.386       48.848       27.888       45.394       41.502       33.512     2060.617     1722.422     1123.021        0.812        0.245      102.741       29.656        0.083      342.335       17.672      863.312
07/21/2014  05:12:00       70.538       51.929       42.294       40.787       27.919       33.870     1663.607      779.458     1147.156        0.652        0.180       87.592       26.337        0.090      342.390       17.765      863.328
07/21/2014  05:13:00       72.254       35.233       25.971       41.432       31.945       31.960     1716.651     1020.487     1021.454        0.545        0.188       80.386       22.490        0.078      342.415       17.807      863.338
07/21/2014  05:14:00       62.708       45.146       37.669       26.644       21.630       20.772      709.903      467.857      431.456        0.450        0.080       77.268       15.504        0.040      342.357       17.711      863.350
07/21/2014  05:15:00       46.401       34.598       25.331       31.672       23.238       23.636     1003.124      540.017      558.658        0.305        0.105       57.880       18.569        0.103      342.364       17.723      863.372
07/21/2014  05:16:00       59.713       48.195       19.016       20.876       13.745       14.546      435.790      188.923      211.584        0.354        0.042       76.736       13.916        0.033      342.343       17.687      863.395
07/21/2014  05:17:00       68.550       55.924       19.331       26.415       18.523       15.963      697.770      343.120      254.819        0.475        0.065       88.468        8.323        0.009      342.292       17.598      863.425
07/21/2014  05:18:00       39.716       31.490       -2.637       23.831       11.102       14.093      567.909      123.249      198.600        0.173        0.044       50.685       14.804        0.085      342.285       17.587      863.437
07/21/2014  05:19:00       29.467       23.210        3.705       28.654       22.748       14.680      821.050      517.494      215.504        0.149        0.078       37.510        9.589        0.065      342.277       17.574      863.445
07/21/2014  05:20:00       52.915       47.020        3.019       38.069       27.127       22.562     1449.222      735.889      509.022        0.386        0.135       70.788       16.247        0.053      342.319       17.645      863.454
07/21/2014  05:21:00       -4.254       57.053       -6.916       12.939       20.713       12.161      167.408      429.044      147.894        0.203        0.037       57.211       11.177        0.038      342.195       17.434      863.469
07/21/2014  05:22:00       -7.156       15.702       -4.163       15.158       19.595        9.386      229.764      383.970       88.093        0.051        0.035       17.256        7.999        0.215      342.289       17.594      863.476
07/21/2014  05:23:00       11.303       -4.657        3.652       22.839       16.697       14.974      521.619      278.784      224.210        0.059        0.051       12.224        9.057        0.549      342.281       17.580      863.480
07/21/2014  05:24:00       37.824       27.173        7.939       17.641       16.111       13.976      311.197      259.577      195.321        0.150        0.038       46.573        9.624        0.043      342.282       17.582      863.479
07/21/2014  05:25:00       21.320       16.444       -5.057       15.595       12.970       13.180      243.196      168.221      173.714        0.067        0.029       26.925       11.204        0.173      342.268       17.560      863.487
07/21/2014  05:26:00       -1.442       15.996        6.586        6.457        9.372       12.904       41.696       87.840      166.526        0.030        0.015       16.060        6.482        0.163      342.270       17.563      863.494
07/21/2014  05:27:00      -16.397       -7.248       10.459       15.159       20.809       10.887      229.801      433.029      118.533        0.061        0.039       17.927        8.787        0.240      342.346       17.689      863.492
07/21/2014  05:28:00       22.960       29.723       32.349       42.962       26.793       25.681     1845.764      717.869      659.534        0.284        0.161       37.558        9.479        0.064      342.317       17.642      863.485
07/21/2014  05:29:00       48.582       72.231       63.176       43.244       27.887       29.705     1870.070      777.712      882.390        0.755        0.177       87.049       27.429        0.099      342.330       17.664      863.481
07/21/2014  05:30:00      102.738       68.388       40.479       30.956       26.304       36.997      958.248      691.907     1368.787        0.994        0.151      123.418       24.877        0.041      342.230       17.493      863.488
07/21/2014  05:31:00       31.872       46.144       56.689       32.633       26.032       24.130     1064.907      677.691      582.245        0.434        0.116       56.081       18.874        0.113      342.329       17.660      863.507
07/21/2014  05:32:00       16.754       37.795       45.964       28.612       27.594       17.541      818.624      761.406      307.670        0.285        0.094       41.342       12.786        0.096      342.322       17.651      863.531
07/21/2014  05:33:00       30.495       53.761       68.988       42.306       27.378       17.148     1789.812      749.569      294.048        0.571        0.142       61.808       15.709        0.065      342.302       17.616      863.560
07/21/2014  05:34:00       -9.218       29.167       48.391       18.361       21.753       18.715      337.128      473.189      350.270        0.222        0.058       30.589       12.676        0.172      342.299       17.611      863.585
07/21/2014  05:35:00        4.802       29.594       38.618       39.357       34.628       21.272     1548.970     1199.069      452.501        0.279        0.160       29.982       18.952        0.400      342.449       17.865      863.600
07/21/2014  05:36:00       40.721       37.156       22.748       23.184       22.060       15.980      537.501      486.623      255.375        0.242        0.064       55.125        5.905        0.011      342.267       17.556      863.598
07/21/2014  05:37:00       39.269       27.493        2.200       31.983       17.097       19.882     1022.892      292.319      395.311        0.201        0.086       47.937       16.816        0.123      342.235       17.502      863.593
07/21/2014  05:38:00       51.000       38.734        5.643       22.056       20.208       21.757      486.446      408.349      473.387        0.275        0.068       64.041       13.824        0.047      342.221       17.479      863.587
07/21/2014  05:39:00       66.960       43.949       18.937       15.583       11.042       14.036      242.815      121.929      196.997        0.367        0.028       80.095        7.908        0.010      342.232       17.496      863.586
07/21/2014  05:40:00       61.930       27.867       14.863       25.863       18.757       18.975      668.885      351.822      360.032        0.311        0.069       67.911       14.939        0.048      342.258       17.542      863.592
07/21/2014  05:41:00       71.174       36.474        2.280       25.952       19.426       17.350      673.516      377.355      301.027        0.388        0.068       79.976       15.268        0.036      342.178       17.407      863.593
07/21/2014  05:42:00       52.226       30.327        8.107       20.726       16.777       17.840      429.551      281.481      318.282        0.237        0.051       60.393       10.230        0.029      342.134       17.331      863.598
07/21/2014  05:43:00       14.430       17.081       -2.128       13.031       10.512       17.841      169.816      110.496      318.303        0.055        0.030       22.360        9.978        0.199      342.162       17.378      863.615
07/21/2014  05:44:00       -0.769       19.681        6.556       12.615       14.379       18.753      159.148      206.749      351.678        0.057        0.036       19.696        9.901        0.253      342.170       17.391      863.637
07/21/2014  05:45:00       11.413        8.276       15.298       11.772       13.589        9.801      138.573      184.672       96.054        0.043        0.021       14.098        9.060        0.413      342.230       17.492      863.653
07/21/2014  05:46:00       12.716       20.880        1.642       11.589        8.476        9.850      134.295       71.839       97.025        0.045        0.015       24.447        7.054        0.083      342.252       17.528      863.660
07/21/2014  05:47:00      -11.726       -3.197       13.209       13.977       29.657       14.190      195.369      879.542      201.352        0.080        0.064       12.154       10.324        0.722      342.284       17.587      863.676
07/21/2014  05:48:00        3.601      -15.624       31.963       25.410       45.271       28.084      645.684     2049.452      788.710        0.238        0.174       16.033       19.403        1.465      342.330       17.665      863.680
07/21/2014  05:49:00       43.580     -104.783       -3.137       25.391       29.060       22.731      644.678      844.473      516.681        0.745        0.100      113.484       11.042        0.009      342.321       17.648      863.693
07/21/2014  05:50:00       38.456      -79.986       -1.867       31.535       45.081       26.545      994.425     2032.291      704.653        0.580        0.187       88.750       14.666        0.027      342.393       17.771      863.707
07/21/2014  05:51:00       12.664      -45.535       25.287       28.415       42.949       25.212      807.429     1844.618      635.636        0.308        0.164       47.263       20.824        0.194      342.480       17.918      863.739
07/21/2014  05:52:00       41.012      -32.674       16.043       27.268       30.276       17.975      743.565      916.665      323.116        0.249        0.099       52.437       19.020        0.132      342.318       17.644      863.745
07/21/2014  05:53:00       -4.722       20.563       42.185       14.669       33.690       22.470      215.176     1135.041      504.922        0.204        0.093       21.099       19.039        0.814      342.334       17.671      863.740
07/21/2014  05:54:00       -6.397        8.395       42.516       18.585       29.018       19.735      345.404      842.064      389.487        0.175        0.079       10.555       16.385        2.410      342.408       17.796      863.748
07/21/2014  05:55:00       19.721        8.706       36.357       34.812       36.993       21.843     1211.900     1368.513      477.123        0.242        0.153       21.557       24.181        1.258      342.367       17.728      863.766
07/21/2014  05:56:00       67.172      -25.741       17.260       37.793       48.109       25.535     1428.283     2314.515      652.062        0.493        0.220       71.935       32.192        0.200      342.314       17.636      863.777
07/21/2014  05:57:00       51.136      -46.127        6.508       31.416       31.599       27.154      986.966      998.509      737.315        0.375        0.136       68.866       22.361        0.105      342.285       17.588      863.790
07/21/2014  05:58:00       44.135      -57.217       16.184       42.341       55.640       28.190     1792.779     3095.802      794.691        0.558        0.284       72.261       37.926        0.275      342.329       17.663      863.810
07/21/2014  05:59:00       36.035      -40.751       16.954       36.978       43.025       28.436     1367.344     1851.137      808.600        0.364        0.201       54.398       25.310        0.216      342.341       17.682      863.823
07/21/2014  06:00:00       12.254      -20.749       25.585       25.761       41.049       24.598      663.616     1685.025      605.078        0.209        0.148       24.097       24.408        1.026      342.325       17.656      863.835
07/21/2014  06:01:00        2.885       26.907       46.319       19.199       31.073       14.216      368.584      965.504      202.108        0.221        0.077       27.061       11.850        0.192      342.350       17.699      863.840
07/21/2014  06:02:00        6.353       -7.700       25.774       19.720       23.275       19.951      388.893      541.704      398.061        0.105        0.066        9.982       15.725        2.482      342.374       17.739      863.855
07/21/2014  06:03:00       -7.487       -0.573       23.782       18.243       25.123       18.581      332.794      631.160      345.258        0.097        0.065        7.509       17.202        5.248      342.386       17.757      863.862
07/21/2014  06:04:00       -9.108      -62.153       -6.408       21.141       24.341       24.266      446.945      592.507      588.833        0.281        0.081       62.816       11.922        0.036      342.549       18.036      863.872
07/21/2014  06:05:00        9.141      -53.665       -1.758       25.579       31.324       21.413      654.279      981.170      458.499        0.253        0.105       54.438       17.457        0.103      342.487       17.931      863.891
07/21/2014  06:06:00      -40.450      -48.908        7.397       40.356       29.891       22.625     1628.644      893.464      511.877        0.356        0.152       63.468       21.501        0.115      342.387       17.760      863.905
07/21/2014  06:07:00      -58.017      -23.181        3.550       25.967       22.622       15.615      674.309      511.759      243.817        0.267        0.071       62.477       11.570        0.034      342.291       17.597      863.907
07/21/2014  06:08:00      -67.576      -33.829       -4.984       27.197       18.211       15.497      739.660      331.653      240.156        0.352        0.066       75.570       13.821        0.033      342.222       17.481      863.910
07/21/2014  06:09:00      -52.630      -36.082        3.336       38.258       24.165       19.583     1463.652      583.944      383.499        0.326        0.122       63.810       18.721        0.086      342.204       17.451      863.913
07/21/2014  06:10:00      -58.165      -43.055        8.045       36.299       29.891       17.840     1317.611      893.465      318.250        0.391        0.126       72.367       18.600        0.066      342.207       17.455      863.927
07/21/2014  06:11:00      -70.698      -43.052       -1.470       30.852       27.255       17.255      951.852      742.822      297.721        0.442        0.100       82.775        6.472        0.006      342.218       17.475      863.947
07/21/2014  06:12:00      -55.612      -33.194        1.700       27.893       27.413       17.744      778.030      751.470      314.855        0.302        0.092       64.765       13.096        0.041      342.237       17.507      863.968
07/21/2014  06:13:00      -58.068      -48.112        2.676       40.533       29.892       24.613     1642.910      893.525      605.814        0.442        0.157       75.410       14.393        0.036      342.240       17.512      863.985
07/21/2014  06:14:00      -86.724      -51.820       -6.382       31.264       25.760       16.797      977.437      663.558      282.156        0.608        0.096      101.027       13.276        0.017      342.172       17.397      863.989
07/21/2014  06:15:00      -58.021      -41.291       -0.845       28.753       27.187       15.064      826.713      739.118      226.923        0.343        0.090       71.214       14.103        0.039      342.205       17.452      863.975
07/21/2014  06:16:00      -58.245      -52.755       -2.408       21.192       23.786       16.852      449.116      565.797      283.994        0.374        0.065       78.585       11.314        0.021      342.230       17.495      863.969
07/21/2014  06:17:00      -59.587      -32.629        0.284       28.009       20.747       16.357      784.513      430.451      267.543        0.305        0.074       67.936       11.664        0.029      342.260       17.545      863.971
07/21/2014  06:18:00      -27.732      -32.149       -0.339       32.397       23.369       12.476     1049.536      546.130      155.652        0.178        0.088       42.458       10.710        0.064      342.307       17.624      863.979
07/21/2014  06:19:00       -9.040        4.906       -0.532       28.574       16.320       14.415      816.458      266.358      207.785        0.070        0.065       10.286        9.271        0.812      342.283       17.583      863.987
07/21/2014  06:20:00      -27.378       -9.155       -0.414       27.000       24.012       10.726      728.975      576.566      115.052        0.113        0.071       28.868        7.832        0.074      342.238       17.508      863.983
07/21/2014  06:21:00      -55.421      -35.155       -3.272       18.642       10.347        9.701      347.511      107.057       94.107        0.243        0.027       65.631        7.330        0.012      342.169       17.392      863.985
07/21/2014  06:22:00      -23.067      -29.252        4.524       25.046       15.939       11.643      627.301      254.053      135.551        0.121        0.051       37.253       11.422        0.094      342.218       17.473      863.998
07/21/2014  06:23:00      -62.514      -26.956       -2.539       18.342       24.642       13.569      336.435      607.246      184.106        0.288        0.056       68.078       11.275        0.027      342.212       17.464      864.007
07/21/2014  06:24:00      -16.133      -12.173        7.966       22.095       16.252       13.148      488.169      264.132      172.880        0.070        0.046       20.210       10.772        0.284      342.222       17.483      864.025
07/21/2014  06:25:00      -55.401      -52.810       -1.058       45.304       24.104       16.575     2052.445      581.009      274.716        0.438        0.145       76.538       22.116        0.083      342.218       17.472      864.042
07/21/2014  06:26:00      -92.698      -62.841       -2.179       24.255       22.002       15.576      588.317      484.094      242.599        0.693        0.066      111.991       15.723        0.020      342.157       17.370      864.067
07/21/2014  06:27:00      -38.105      -20.096        1.418       21.995       25.575       15.896      483.771      654.058      252.680        0.162        0.070       43.080       14.690        0.116      342.222       17.481      864.085
07/21/2014  06:28:00      -16.188      -18.849       -4.763       16.339       17.738       11.812      266.969      314.643      139.529        0.068        0.036       24.846       11.130        0.201      342.232       17.498      864.083
07/21/2014  06:29:00       -8.019      -17.146        6.309       13.334       19.290       10.710      177.805      372.112      114.705        0.053        0.033       18.928        9.513        0.253      342.178       17.406      864.082
07/21/2014  06:30:00       -1.757       -1.274        7.754       13.272       22.535       16.008      176.157      507.837      256.251        0.050        0.047        2.171       11.203       26.637      342.150       17.358      864.085
07/21/2014  06:31:00      -12.976      -15.164        7.899       21.000       23.322       12.480      441.014      543.905      155.745        0.080        0.057       19.958        6.829        0.117      342.128       17.322      864.091
07/21/2014  06:32:00      -12.865      -11.077        1.475       12.756        9.507        9.161      162.714       90.385       83.924        0.031        0.017       16.977        5.169        0.093      342.139       17.338      864.094
07/21/2014  06:33:00      -33.194      -51.923       -4.689       29.346       34.964       16.705      861.196     1222.511      279.051        0.309        0.118       61.627       11.348        0.034      342.263       17.548      864.097
07/21/2014  06:34:00      -69.029      -50.943       -4.680       29.488       23.299       17.655      869.545      542.821      311.698        0.455        0.086       85.792       11.161        0.017      342.261       17.545      864.109
07/21/2014  06:35:00      -44.375      -38.413       -5.049       44.275       18.906       15.558     1960.250      357.424      242.060        0.301        0.128       58.691       17.180        0.086      342.240       17.511      864.114
07/21/2014  06:36:00        8.708      -15.787        0.008       23.002       13.362       13.051      529.086      178.553      170.336        0.060        0.044       18.030        9.865        0.299      342.315       17.638      864.113
07/21/2014  06:37:00      -22.491       10.424       21.098       19.577       19.405       17.071      383.246      376.537      291.403        0.106        0.053       24.789       12.817        0.267      342.373       17.736      864.114
07/21/2014  06:38:00        9.127      -18.805       20.501       19.249       28.882       22.691      370.540      834.163      514.904        0.129        0.086       20.903       18.132        0.752      342.506       17.963      864.127
07/21/2014  06:39:00       32.527      -13.244       12.243       24.621       29.088       26.203      606.178      846.106      686.594        0.176        0.107       35.120       19.106        0.296      342.433       17.840      864.131
07/21/2014  06:40:00       -4.293      -10.475       12.864       15.986       18.331       18.193      255.562      336.037      330.979        0.061        0.046       11.321        9.639        0.725      342.461       17.887      864.136
07/21/2014  06:41:00       16.737        3.203       35.759       31.802       48.293       28.296     1011.384     2332.167      800.658        0.286        0.207       17.041       32.539        3.646      342.449       17.866      864.138
07/21/2014  06:42:00       13.084       27.534       56.829       26.957       29.438       25.718      726.685      866.574      661.441        0.321        0.113       30.485       13.438        0.194      342.406       17.794      864.139
07/21/2014  06:43:00       -9.294       25.851       64.677       15.211       38.053       19.147      231.364     1448.034      366.596        0.349        0.102       27.471       20.943        0.581      342.433       17.840      864.131
07/21/2014  06:44:00       -4.443       -2.806       57.663       11.407       33.826       15.089      130.131     1144.167      227.683        0.243        0.075        5.255       15.868        9.119      342.436       17.846      864.133
07/21/2014  06:45:00      -11.780      -42.112        3.462       23.958       42.376       24.523      573.983     1795.736      601.353        0.245        0.149       43.728       15.800        0.131      342.451       17.870      864.143
07/21/2014  06:46:00      -12.374        4.821       20.084       14.135       16.628       18.033      199.808      276.502      325.178        0.069        0.040       13.280       14.262        1.153      342.475       17.911      864.155
07/21/2014  06:47:00       -1.398      -61.065       10.331       18.491       45.992       22.339      341.926     2115.247      499.040        0.340        0.148       61.081       11.525        0.036      342.468       17.898      864.164
07/21/2014  06:48:00       -4.609      -10.749       17.090       14.452       33.784       17.224      208.866     1141.359      296.658        0.104        0.082       11.695       18.448        2.488      342.526       17.996      864.169
07/21/2014  06:49:00        8.087      -18.541       21.607       24.787       32.850       24.490      614.398     1079.096      599.772        0.158        0.115       20.228       19.475        0.927      342.493       17.941      864.181
07/21/2014  06:50:00       54.150      -38.225        8.638       37.198       49.358       27.154     1383.661     2436.227      737.331        0.451        0.228       66.283       30.724        0.215      342.383       17.754      864.196
07/21/2014  06:51:00      -11.131       -6.087       42.164       19.734       35.730       21.079      389.415     1276.627      444.337        0.202        0.106       12.686       19.693        2.410      342.520       17.986      864.213
07/21/2014  06:52:00        8.213      -37.099       10.216       23.927       48.035       21.226      572.502     2307.355      450.550        0.244        0.167       37.997       18.303        0.232      342.551       18.040      864.226
07/21/2014  06:53:00       21.450        3.370       23.175       31.145       44.086       33.265      969.982     1943.549     1106.532        0.251        0.201       21.713       37.592        2.997      342.459       17.882      864.239
07/21/2014  06:54:00       12.706      -38.749       25.076       21.841       41.458       26.335      477.032     1718.802      693.538        0.259        0.144       40.779       27.698        0.461      342.511       17.972      864.255
07/21/2014  06:55:00       15.364      -15.493       19.756       24.585       44.335       26.833      604.426     1965.592      720.021        0.208        0.165       21.820       27.413        1.578      342.572       18.075      864.268
07/21/2014  06:56:00        2.523        4.938       40.440       23.351       36.883       28.256      545.290     1360.382      798.383        0.218        0.135        5.545       24.839       20.064      342.539       18.019      864.280
07/21/2014  06:57:00      -12.478        2.296       25.684       13.712       17.913       12.199      188.027      320.875      148.805        0.074        0.033       12.687        8.169        0.415      342.554       18.044      864.282
07/21/2014  06:58:00      -15.919       16.981       37.974       12.426       16.412       20.033      154.395      269.347      401.324        0.140        0.041       23.276       13.077        0.316      342.572       18.075      864.281
07/21/2014  06:59:00        6.918      -37.034       24.014       28.456       35.062       31.637      809.770     1229.318     1000.874        0.252        0.152       37.675       16.607        0.194      342.577       18.082      864.295
07/21/2014  07:00:00      -11.066       31.338       33.752       11.937       16.395       16.175      142.492      268.781      261.635        0.146        0.034       33.235        4.540        0.019      342.485       17.928      864.298
07/21/2014  07:01:00      -34.042        9.397       14.001       16.710       20.293       16.010      279.229      411.818      256.306        0.120        0.047       35.315       14.011        0.157      342.435       17.842      864.305
07/21/2014  07:02:00      -15.974       37.071        2.073       15.084       12.540       16.383      227.520      157.254      268.396        0.114        0.033       40.366        8.006        0.039      342.386       17.760      864.301
07/21/2014  07:03:00      -21.158       19.697       -0.333       10.542       16.455        9.824      111.131      270.753       96.502        0.066        0.024       28.907        6.026        0.043      342.406       17.792      864.289
07/21/2014  07:04:00      -19.067       10.455       -8.883       12.462       11.113        6.792      155.302      123.496       46.134        0.044        0.016       21.745        6.930        0.102      342.357       17.707      864.293
07/21/2014  07:05:00      -21.207      -13.593        1.250       10.253        9.629       10.271      105.131       92.726      105.500        0.047        0.015       25.189        6.017        0.057      342.457       17.881      864.293
07/21/2014  07:06:00       -4.415      -27.805       -3.374       12.767       20.580       11.873      162.997      423.517      140.966        0.077        0.036       28.154        3.828        0.018      342.536       18.016      864.300
07/21/2014  07:07:00      -21.037      -42.195        1.126       20.786       20.352       22.328      432.037      414.192      498.533        0.178        0.067       47.149       12.958        0.076      342.619       18.153      864.300
07/21/2014  07:08:00      -19.406       -3.662        9.051       19.633       12.556        9.498      385.465      157.664       90.212        0.055        0.032       19.749       10.341        0.274      342.546       18.033      864.307
07/21/2014  07:09:00      -12.015      -51.004       11.633       18.203       49.090       23.270      331.348     2409.845      541.508        0.308        0.164       52.400       14.479        0.076      342.622       18.160      864.310
07/21/2014  07:10:00       -7.442      -29.952       40.351       16.668       50.034       26.535      277.834     2503.382      704.089        0.303        0.174       30.863       30.683        0.988      342.667       18.237      864.307
07/21/2014  07:11:00        1.399      -42.122       21.247       31.659       28.060       21.554     1002.268      787.391      464.569        0.224        0.113       42.146       16.071        0.145      342.622       18.162      864.322
07/21/2014  07:12:00      -32.694      -12.122        6.284       27.084       48.255       21.653      733.558     2328.532      468.854        0.239        0.177       34.869       16.778        0.232      342.516       17.982      864.343
07/21/2014  07:13:00      -35.041       -3.737        1.053       15.901       19.709       11.835      252.829      388.444      140.069        0.101        0.039       35.239        6.199        0.031      342.523       17.994      864.353
07/21/2014  07:14:00       -8.261       -0.771        1.974       17.849       14.551       17.645      318.599      211.723      311.342        0.046        0.042        8.297       12.486        2.265      342.616       18.149      864.340
07/21/2014  07:15:00      -27.101      -22.943        4.594       21.447       24.387       11.608      459.982      594.743      134.748        0.124        0.059       35.508       11.784        0.110      342.555       18.046      864.342
07/21/2014  07:16:00      -15.345      -15.712        6.128       19.304       13.726       10.253      372.651      188.408      105.129        0.059        0.033       21.962        8.980        0.167      342.570       18.071      864.339
07/21/2014  07:17:00       12.574       17.166       17.387       16.521       15.251       10.508      272.942      232.578      110.418        0.069        0.031       21.278        7.428        0.122      342.574       18.079      864.336
07/21/2014  07:18:00       -2.496       16.041       16.334       24.343       19.962       11.593      592.566      398.463      134.399        0.083        0.056       16.234        9.376        0.334      342.583       18.095      864.338
07/21/2014  07:19:00        4.844        0.083       12.597       13.799       14.934        9.706      190.418      223.029       94.200        0.034        0.025        4.844        3.838        0.628      342.713       18.314      864.339
07/21/2014  07:20:00       -6.235       11.685        8.873       24.207       13.742       14.708      585.956      188.842      216.330        0.062        0.050       13.244       14.825        1.253      342.631       18.175      864.337
07/21/2014  07:21:00      -11.545        3.881       -1.613       10.233        6.387        9.719      104.705       40.796       94.461        0.020        0.012       12.180        6.556        0.290      342.617       18.152      864.343
07/21/2014  07:22:00      -16.842       16.030        7.662       15.144       18.351       10.474      229.346      336.777      109.699        0.064        0.034       23.251       10.435        0.201      342.548       18.034      864.350
07/21/2014  07:23:00       20.295       31.912        3.033       18.457       13.798       13.146      340.655      190.376      172.821        0.107        0.035       37.819        8.225        0.047      342.530       18.005      864.344
07/21/2014  07:24:00       33.585       47.952        3.550       21.730       15.144       14.391      472.203      229.355      207.098        0.217        0.045       58.543       10.688        0.033      342.496       17.948      864.345
07/21/2014  07:25:00       22.524       20.386        9.279       29.660       24.005       13.661      879.735      576.235      186.631        0.133        0.082       30.380       12.221        0.162      342.479       17.917      864.339
07/21/2014  07:26:00       69.751       54.647        7.927       32.979       23.653       21.836     1087.606      559.442      476.806        0.502        0.106       88.608       14.020        0.025      342.436       17.846      864.330
07/21/2014  07:27:00       69.172       57.988        4.227       23.693       19.613       19.014      561.375      384.652      361.529        0.474        0.065       90.263       11.261        0.016      342.410       17.802      864.328
07/21/2014  07:28:00       34.727       43.003       -5.824       20.475       15.952       10.385      419.237      254.457      107.849        0.194        0.039       55.274        9.444        0.029      342.369       17.732      864.347
07/21/2014  07:29:00        0.143       39.622       -7.045       13.624        9.872        7.234      185.612       97.461       52.336        0.098        0.017       39.623        6.732        0.029      342.378       17.746      864.375
07/21/2014  07:30:00      -10.365        4.927       -2.334        9.289       16.094        6.563       86.281      259.025       43.079        0.026        0.019       11.476        5.921        0.266      342.407       17.792      864.391
07/21/2014  07:31:00      -39.606       16.105       -0.517       22.894       18.157        9.745      524.114      329.669       94.961        0.139        0.047       42.755       12.694        0.088      342.421       17.819      864.412
07/21/2014  07:32:00      -89.880       32.457      -13.918       21.805       18.666       14.944      475.454      348.409      223.329        0.519        0.052       95.561       11.964        0.016      342.313       17.637      864.439
07/21/2014  07:33:00      -65.071        3.419      -13.909       27.294       21.227       13.345      744.984      450.589      178.080        0.291        0.069       65.161       12.420        0.036      342.285       17.588      864.445
07/21/2014  07:34:00      -83.442        2.743       -4.244       25.938       39.908       17.777      672.765     1592.661      316.022        0.478        0.129       83.487       12.663        0.023      342.380       17.749      864.448
07/21/2014  07:35:00      -89.435      -14.055       -9.541       25.645       32.656       19.263      657.656     1066.445      371.059        0.519        0.105       90.532       13.051        0.021      342.297       17.607      864.464
07/21/2014  07:36:00      -65.722       -4.401       -4.642       37.872       18.877       15.626     1434.267      356.340      244.187        0.320        0.102       65.870       19.506        0.088      342.326       17.656      864.477
07/21/2014  07:37:00      -82.242       -5.783       -4.198       27.831       23.694       17.949      774.568      561.414      322.150        0.424        0.083       82.445       11.976        0.021      342.338       17.678      864.481
07/21/2014  07:38:00      -62.287      -24.336       -8.409       24.905       28.145       16.292      620.247      792.130      265.422        0.311        0.084       66.872       16.181        0.059      342.316       17.637      864.493
07/21/2014  07:39:00      -71.051      -24.389       -4.264       25.437       21.033       16.835      647.046      442.366      283.417        0.352        0.069       75.121       10.879        0.021      342.440       17.852      864.507
07/21/2014  07:40:00      -26.290        5.419       -9.089       21.620       34.697       12.962      467.424     1203.912      168.006        0.132        0.092       26.842       13.256        0.244      342.381       17.749      864.527
07/21/2014  07:41:00       -9.709       48.643        8.756       16.983       22.461       17.010      288.433      504.495      289.350        0.181        0.054       49.602       12.922        0.068      342.410       17.801      864.528
07/21/2014  07:42:00      -11.453       18.780       -4.175       17.111       26.573       13.847      292.777      706.150      191.735        0.085        0.060       21.997       12.887        0.343      342.453       17.874      864.521
07/21/2014  07:43:00      -49.082        7.881       -2.614       18.053       24.526       13.512      325.909      601.510      182.584        0.179        0.056       49.711       12.491        0.063      342.483       17.924      864.519
07/21/2014  07:44:00      -24.051       30.384        2.831       26.136       23.407       17.123      683.094      547.868      293.208        0.152        0.076       38.751       13.610        0.123      342.523       17.992      864.523
07/21/2014  07:45:00      -42.143       14.329       -2.279       30.590       23.210       14.809      935.746      538.708      219.306        0.184        0.085       44.512       13.721        0.095      342.430       17.837      864.525
07/21/2014  07:46:00      -28.245       64.276       -1.121       20.031       18.688       15.488      401.232      349.240      239.890        0.296        0.050       70.208       11.537        0.027      342.418       17.814      864.530
07/21/2014  07:47:00      -44.228       88.936        0.433       21.403       29.351       19.566      458.081      861.459      382.845        0.578        0.085       99.327       13.074        0.017      342.389       17.764      864.543
07/21/2014  07:48:00       -7.713       14.404        7.509       21.110       30.095       17.599      445.615      905.727      309.727        0.099        0.083       16.339       10.398        0.405      342.497       17.949      864.566
07/21/2014  07:49:00     -119.219      -37.355      -14.355       24.444       30.029       14.697      597.506      901.715      216.008        0.876        0.086      124.934        4.665        0.001      342.363       17.720      864.590
07/21/2014  07:50:00      -81.429      -38.742      -10.374       26.773       34.622       18.668      716.796     1198.656      348.477        0.525        0.113       90.176       13.656        0.023      342.387       17.761      864.591
07/21/2014  07:51:00      -42.510      -48.672       12.404       51.228       33.691       30.386     2624.340     1135.068      923.319        0.451        0.234       64.622       27.512        0.181      342.433       17.840      864.595
07/21/2014  07:52:00      -78.830      -10.616       -1.603       38.399       26.841       15.353     1474.493      720.439      235.723        0.438        0.122       79.542       11.299        0.020      342.402       17.787      864.600
07/21/2014  07:53:00      -61.662      -33.779       -9.804       44.301       22.185       16.229     1962.601      492.168      263.376        0.388        0.136       70.308        8.131        0.013      342.399       17.781      864.599
07/21/2014  07:54:00      -70.977      -22.499       -7.604       17.687       15.031       13.119      312.824      225.943      172.105        0.316        0.036       74.457        8.121        0.012      342.414       17.808      864.593
07/21/2014  07:55:00      -48.278      -32.592       -2.598       34.232       17.550       13.797     1171.839      307.989      190.368        0.253        0.084       58.250       11.638        0.040      342.511       17.972      864.590
07/21/2014  07:56:00      -34.506      -20.057        4.328       29.487       25.341       19.338      869.468      642.165      373.940        0.175        0.094       39.912       20.859        0.273      342.514       17.977      864.592
07/21/2014  07:57:00      -45.452       -1.011        3.779       30.662       34.943       18.538      940.184     1220.987      343.650        0.229        0.125       45.464       19.563        0.185      342.509       17.969      864.590
07/21/2014  07:58:00      -13.195       35.889       -1.037       15.699       18.143       13.133      246.450      329.166      172.464        0.111        0.037       38.238        9.701        0.064      342.565       18.063      864.594
07/21/2014  07:59:00      -26.064        5.072        5.706       24.423       33.073       18.904      596.500     1093.844      357.355        0.139        0.102       26.552       11.750        0.196      342.628       18.169      864.588
07/21/2014  08:00:00      -53.825       18.026      -12.202       33.053       31.497       17.847     1092.531      992.066      318.503        0.289        0.120       56.764       12.507        0.049      342.513       17.975      864.583
07/21/2014  08:01:00       -6.746       63.190      -14.147       18.113       56.031       17.042      328.075     3139.518      290.415        0.400        0.188       63.549       10.595        0.028      342.470       17.901      864.589
07/21/2014  08:02:00      -10.314       65.936       10.877       16.444       30.470       23.656      270.412      928.441      559.596        0.316        0.088       66.738       14.663        0.048      342.519       17.986      864.600
07/21/2014  08:03:00      -13.687       97.666       -6.429       16.095       39.673       17.787      259.061     1573.965      316.364        0.596        0.107       98.621       20.967        0.045      342.480       17.920      864.613
07/21/2014  08:04:00      -23.698       84.415       -3.563       19.953       32.763       18.411      398.106     1073.396      338.956        0.475        0.091       87.679        8.373        0.009      342.494       17.944      864.615
07/21/2014  08:05:00      -21.521       70.342       -3.427       22.696       38.693       20.529      515.102     1497.131      421.459        0.393        0.122       73.560       21.746        0.087      342.512       17.973      864.623
07/21/2014  08:06:00      -12.624       48.894        0.000       14.336       24.124       16.799      205.510      581.977      282.203        0.181        0.053       50.498       13.536        0.072      342.575       18.082      864.641
07/21/2014  08:07:00       21.942        4.675        5.599       34.027       14.611       15.630     1157.819      213.485      244.298        0.107        0.081       22.434       12.762        0.324      342.642       18.195      864.655
07/21/2014  08:08:00       65.674       29.607       15.158       32.629       21.756       21.330     1064.643      473.327      454.964        0.371        0.100       72.039       18.624        0.067      342.560       18.056      864.655
07/21/2014  08:09:00       50.649       16.371       18.159       24.890       20.662       20.692      619.513      426.924      428.160        0.232        0.074       53.229       14.470        0.074      342.616       18.149      864.673
07/21/2014  08:10:00       61.214        7.082        7.285       33.822       33.711       19.161     1143.952     1136.411      367.135        0.325        0.132       61.623       16.148        0.069      342.531       18.007      864.686
07/21/2014  08:11:00       61.464       32.683        6.875       28.538       19.687       17.622      814.417      387.581      310.531        0.320        0.076       69.614       11.473        0.027      342.517       17.982      864.677
07/21/2014  08:12:00        1.213        9.164       -3.070       21.846       16.976       13.822      477.256      288.186      191.042        0.053        0.048        9.243       11.483        1.543      342.622       18.161      864.673
07/21/2014  08:13:00       -1.640        9.724       11.190       19.330       14.391       21.789      373.632      207.110      474.751        0.064        0.053        9.861       16.481        2.793      342.714       18.315      864.678
07/21/2014  08:14:00      -10.838       -7.319        9.139       11.755       12.580       13.671      138.183      158.248      186.893        0.037        0.024       13.078       13.495        1.065      342.845       18.540      864.683
07/21/2014  08:15:00       -0.818      -21.027        4.182       18.384       14.134       16.627      337.986      199.763      276.457        0.064        0.041       21.043       14.257        0.459      342.654       18.213      864.685
07/21/2014  08:16:00       20.754      -47.600       11.294       17.601       27.124       25.200      309.809      735.729      635.022        0.225        0.084       51.927       18.318        0.124      342.676       18.252      864.677
07/21/2014  08:17:00       -4.884       -1.018        9.915       19.651       11.989       13.693      386.156      143.745      187.512        0.042        0.036        4.989        8.684        3.030      342.802       18.467      864.683
07/21/2014  08:18:00       12.366      -17.862       19.877       16.830       21.598       13.242      283.251      466.466      175.340        0.090        0.046       21.725        8.485        0.153      342.887       18.610      864.692
07/21/2014  08:19:00       15.669      -13.295       21.619       13.048       23.743        9.834      170.256      563.708       96.698        0.086        0.042       20.549       10.125        0.243      342.906       18.643      864.686
07/21/2014  08:20:00       -9.745        1.860       14.335        8.538       12.706       13.071       72.904      161.444      170.842        0.035        0.020        9.921        9.129        0.847      342.919       18.665      864.680
07/21/2014  08:21:00      -13.670       12.327        3.661        8.612       11.674        7.655       74.158      136.289       58.599        0.031        0.013       18.407        5.792        0.099      342.719       18.326      864.692
07/21/2014  08:22:00      -10.732        4.295        5.742       11.257       12.730       11.061      126.718      162.044      122.341        0.029        0.021       11.560        8.203        0.504      342.868       18.578      864.693
07/21/2014  08:23:00      -21.941       -5.104        2.642       17.970       11.778       12.314      322.911      138.726      151.636        0.056        0.031       22.526        9.008        0.160      342.792       18.450      864.700
07/21/2014  08:24:00      -84.224      -29.140       -1.151       18.471       16.151       11.389      341.188      260.851      129.701        0.434        0.037       89.122        6.611        0.006      342.569       18.070      864.724
07/21/2014  08:25:00      -58.045      -24.182       -0.235       24.324       14.322       13.068      591.637      205.107      170.784        0.246        0.048       62.881       13.170        0.044      342.612       18.143      864.737
07/21/2014  08:26:00      -40.051      -35.124        1.854       32.823       25.495       17.433     1077.374      649.988      303.902        0.244        0.102       53.271       14.063        0.070      342.721       18.328      864.744
07/21/2014  08:27:00      -27.583       32.329       -7.021       17.123       35.923       21.152      293.212     1290.492      447.391        0.194        0.102       42.497       18.747        0.195      342.744       18.368      864.761
07/21/2014  08:28:00       -6.564       14.329       -1.161       14.624       26.003       12.887      213.872      676.134      166.076        0.065        0.053       15.761        6.540        0.172      342.770       18.413      864.780
07/21/2014  08:29:00      -20.204       40.793       -5.187       18.248       22.388       11.698      332.983      501.209      136.841        0.153        0.049       45.522        5.195        0.013      342.753       18.383      864.786
07/21/2014  08:30:00        2.481       11.158       -9.050       23.150       14.345       13.273      535.919      205.769      176.172        0.057        0.046       11.430       14.642        1.641      342.740       18.361      864.789
07/21/2014  08:31:00       -6.114        7.755       10.284       30.434       10.018       10.820      926.234      100.366      117.075        0.067        0.057        9.876       12.154        1.515      342.868       18.579      864.784
07/21/2014  08:32:00      -64.698       22.234      -12.044       22.004       14.176       12.520      484.193      200.960      156.756        0.283        0.042       68.412       13.395        0.038      342.632       18.177      864.781
07/21/2014  08:33:00      -55.238        6.825       -5.617       27.496       23.329       17.309      756.033      544.221      299.606        0.236        0.080       55.658       13.697        0.061      342.729       18.342      864.782
07/21/2014  08:34:00      -66.924        4.959       -4.993       17.720       14.828       15.259      313.993      219.879      232.823        0.265        0.038       67.107       12.681        0.036      342.599       18.122      864.788
07/21/2014  08:35:00      -32.887        9.591       -5.029       19.533       12.736        6.571      381.524      162.199       43.180        0.089        0.029       34.257        7.232        0.045      342.648       18.202      864.795
07/21/2014  08:36:00      -42.130       -3.473        1.823       22.324       28.048       15.361      498.345      786.666      235.955        0.166        0.076       42.273        6.594        0.024      342.731       18.347      864.805
07/21/2014  08:37:00      -27.927      -23.142        3.263       34.312       19.650       23.859     1177.322      386.132      569.241        0.173        0.107       36.270       18.152        0.250      342.829       18.511      864.807
07/21/2014  08:38:00      -27.053      -39.757        5.035       41.468       22.000       21.289     1719.591      483.991      453.216        0.250        0.133       48.088       19.739        0.168      342.790       18.446      864.810
07/21/2014  08:39:00      -55.569      -35.384        3.597       32.739       20.612       18.484     1071.831      424.873      341.671        0.310        0.092       65.878       18.075        0.075      342.716       18.321      864.814
07/21/2014  08:40:00      -78.143      -23.391       -0.815       12.901       12.040        9.303      166.440      144.953       86.541        0.353        0.020       81.568        6.574        0.006      342.606       18.133      864.838
07/21/2014  08:41:00      -48.849       -4.800       -6.189       18.263       14.230        8.273      333.534      202.490       68.443        0.153        0.030       49.084        8.136        0.027      342.610       18.142      864.839
07/21/2014  08:42:00      -42.083      -10.146       -1.649       24.789       16.668       11.737      614.506      277.835      137.755        0.145        0.052       43.289        9.380        0.047      342.786       18.440      864.852
07/21/2014  08:43:00      -56.010      -29.209       -5.453       45.836       12.849       13.864     2100.917      165.099      192.224        0.324        0.123       63.169       16.751        0.070      342.762       18.400      864.853
07/21/2014  08:44:00      -51.683      -33.555        0.858       32.102       20.718       14.614     1030.527      429.248      213.557        0.274        0.084       61.620       14.542        0.056      342.826       18.506      864.851
07/21/2014  08:45:00      -42.666        0.685        1.950       37.330       20.099       17.409     1393.495      403.979      303.088        0.196        0.105       42.672       18.801        0.194      342.979       18.768      864.853
07/21/2014  08:46:00      -12.514        7.834       22.035       21.281       18.461       16.412      452.872      340.810      269.363        0.088        0.053       14.764       10.426        0.499      343.287       19.292      864.837
07/21/2014  08:47:00      -36.906      -33.577       -2.649       48.237       27.110       19.986     2326.780      734.945      399.428        0.298        0.173       49.895       20.009        0.161      342.977       18.764      864.845
07/21/2014  08:48:00      -73.930      -20.031       -0.966       40.314       14.131       18.891     1625.234      199.691      356.874        0.402        0.109       76.596       23.608        0.095      342.768       18.407      864.848
07/21/2014  08:49:00      -50.362        0.242       -2.297       23.156       19.939       12.717      536.214      397.552      161.730        0.182        0.055       50.363        8.239        0.027      342.703       18.299      864.853
07/21/2014  08:50:00      -14.967      -14.433        3.053       18.237       20.798       11.791      332.594      432.555      139.033        0.067        0.045       20.793        6.949        0.112      342.951       18.721      864.852
07/21/2014  08:51:00      -11.870       -3.709        6.841       19.122       15.220       11.823      365.638      231.659      139.793        0.047        0.037       12.436        4.655        0.140      343.117       19.003      864.857
07/21/2014  08:52:00      -74.300        0.608       -1.187       23.658       27.125       17.228      559.703      735.783      296.789        0.356        0.080       74.302       12.679        0.029      342.941       18.703      864.859
07/21/2014  08:53:00      -36.391       -4.990        7.349       32.159       19.896       20.206     1034.178      395.831      408.267        0.162        0.092       36.732       20.471        0.311      343.205       19.152      864.859
07/21/2014  08:54:00      -43.798       -0.151       -1.930       21.845       26.004       10.463      477.202      676.204      109.468        0.159        0.063       43.799        7.388        0.028      343.009       18.820      864.866
07/21/2014  08:55:00      -22.923       44.936       -0.094       23.255       36.113       18.953      540.805     1304.152      359.231        0.237        0.110       50.446       17.457        0.120      343.128       19.021      864.867
07/21/2014  08:56:00       26.243       45.355      -10.142       29.951       34.786       20.726      897.086     1210.082      429.554        0.269        0.127       52.400       19.172        0.134      343.102       18.978      864.863
07/21/2014  08:57:00      -35.189        6.464       10.697       35.304       24.885       19.950     1246.348      619.269      397.988        0.183        0.113       35.777       19.583        0.300      343.168       19.091      864.856
07/21/2014  08:58:00      -24.122       45.924        4.427       34.401       27.218       21.175     1183.436      740.810      448.383        0.254        0.119       51.874       12.827        0.061      343.190       19.127      864.861
07/21/2014  08:59:00      -18.245       23.793       12.559       23.295       29.040       19.405      542.670      843.330      376.555        0.141        0.088       29.983       14.387        0.230      343.257       19.241      864.858
07/21/2014  09:00:00      -80.981      -17.242        6.759       40.934       35.185       22.559     1675.565     1237.964      508.904        0.516        0.171       82.796       20.820        0.063      343.119       19.006      864.855
07/21/2014  09:01:00      -55.162       33.622        0.897       39.037       47.792       25.734     1523.921     2284.064      662.254        0.432        0.224       64.600       10.219        0.025      343.077       18.935      864.857
07/21/2014  09:02:00      -37.652       39.163       -9.770       36.579       32.242       20.440     1338.046     1039.534      417.808        0.292        0.140       54.327       17.151        0.100      343.165       19.084      864.862
07/21/2014  09:03:00      -75.218       -5.660       -0.374       37.702       38.182       24.830     1421.448     1457.893      616.510        0.459        0.175       75.431       21.593        0.082      343.129       19.022      864.863
07/21/2014  09:04:00      -72.110      -21.695       -6.839       25.456       24.138       19.664      648.023      582.625      386.654        0.367        0.081       75.303       10.967        0.021      343.112       18.994      864.870
07/21/2014  09:05:00      -79.648      -51.352       -9.036       38.393       36.867       17.962     1473.988     1359.177      322.635        0.611        0.158       94.767       11.333        0.014      343.053       18.896      864.868
07/21/2014  09:06:00      -59.829      -37.752      -12.582       28.607       29.147       16.861      818.356      849.547      284.289        0.356        0.098       70.744       11.228        0.025      343.148       19.056      864.875
07/21/2014  09:07:00     -101.481        7.010       -8.690       43.432       38.033       20.966     1886.329     1446.483      439.576        0.710        0.189      101.723       24.450        0.058      343.087       18.951      864.879
07/21/2014  09:08:00     -106.209       13.021      -13.940       11.409       11.171        9.598      130.176      124.785       92.128        0.600        0.017      107.004        6.117        0.003      342.800       18.460      864.877
07/21/2014  09:09:00      -43.160      -27.381       -1.078       35.559       23.874       20.284     1264.474      569.965      411.424        0.243        0.112       51.113       17.597        0.119      343.052       18.892      864.870
07/21/2014  09:10:00      -10.996       -8.876      -10.636       29.691       28.319       18.811      881.563      801.958      353.845        0.117        0.102       14.131       11.313        0.641      343.177       19.104      864.869
07/21/2014  09:11:00        5.184       -0.432        2.663       20.789       15.181       18.302      432.195      230.475      334.966        0.052        0.050        5.202       13.467        6.703      343.346       19.393      864.855
07/21/2014  09:12:00      -63.006      -26.390       -4.413       20.122       33.888       17.121      404.882     1148.400      293.113        0.327        0.092       68.309       12.679        0.034      343.123       19.013      864.847
07/21/2014  09:13:00      -45.135      -25.696        7.577       31.282       29.601       18.217      978.557      876.221      331.863        0.247        0.109       51.937       19.286        0.138      343.425       19.527      864.841
07/21/2014  09:14:00      -53.770       -1.700       -3.143       22.415       39.065       18.718      502.452     1526.063      350.370        0.264        0.119       53.796       16.444        0.093      343.372       19.437      864.841
07/21/2014  09:15:00      -77.603        4.092       -4.987       50.442       24.274       22.472     2544.347      589.242      504.969        0.485        0.182       77.711       19.679        0.064      343.253       19.234      864.848
07/21/2014  09:16:00      -82.621      -19.537      -11.108       26.273       16.982       15.140      690.267      288.399      229.212        0.427        0.060       84.900       13.661        0.026      343.054       18.896      864.860
07/21/2014  09:17:00      -68.526      -23.062       -5.261       16.750       22.177       12.189      280.554      491.815      148.573        0.309        0.046       72.302        7.540        0.011      343.069       18.922      864.876
07/21/2014  09:18:00      -60.539       -2.823       -5.002       44.320       13.396       15.834     1964.237      179.443      250.706        0.305        0.120       60.604       15.511        0.066      343.139       19.041      864.883
07/21/2014  09:19:00      -32.610        0.072        8.162       41.349       31.995       19.863     1709.770     1023.682      394.536        0.213        0.156       32.610       17.103        0.275      343.347       19.396      864.887
07/21/2014  09:20:00     -124.928       36.712      -21.389       21.472       25.347       17.926      461.027      642.474      321.338        0.942        0.071      130.211       16.841        0.017      342.965       18.744      864.888
07/21/2014  09:21:00      -79.677      -33.617       -3.409       31.209       32.624       23.865      973.975     1064.324      569.556        0.505        0.130       86.478       20.069        0.054      343.172       19.097      864.893
07/21/2014  09:22:00      -88.960      -85.086      -22.307       26.472       44.438       17.189      700.772     1974.739      295.475        0.931        0.149      123.100        6.186        0.003      343.058       18.901      864.899
07/21/2014  09:23:00      -72.333      -14.857      -14.132       21.153       24.383       14.830      447.436      594.521      219.915        0.346        0.063       73.843       14.781        0.040      343.127       19.020      864.909
07/21/2014  09:24:00      -80.443      -37.712       -8.506       27.356       29.347       15.533      748.340      861.231      241.285        0.491        0.093       88.843       11.551        0.017      343.322       19.352      864.910
07/21/2014  09:25:00      -67.893      -21.242       -4.731       33.964       29.548       16.934     1153.546      873.055      286.753        0.370        0.116       71.138       17.826        0.063      343.363       19.423      864.931
07/21/2014  09:26:00      -26.826        1.651      -11.343       44.443       21.371       17.848     1975.177      456.705      318.565        0.180        0.138       26.877        7.812        0.084      343.602       19.830      864.944
07/21/2014  09:27:00      -66.222      -36.033       -7.054       33.271       30.600       16.197     1106.990      936.334      262.349        0.402        0.115       75.391        8.513        0.013      343.418       19.516      864.966
07/21/2014  09:28:00      -70.266      -26.662      -11.878       18.658       14.390       16.051      348.108      207.064      257.634        0.330        0.041       75.154       12.142        0.026      343.273       19.269      864.970
07/21/2014  09:29:00      -48.046        1.998       -4.866       16.940       14.002       12.324      286.963      196.067      151.871        0.149        0.032       48.087       10.068        0.044      343.392       19.470      864.973
07/21/2014  09:30:00       -6.196        0.635       15.775       26.214       39.176       34.162      687.174     1534.790     1167.074        0.184        0.169        6.229       31.162       25.028      344.117       20.710      864.979
07/21/2014  09:31:00      101.849     -124.272        2.629       80.308       96.624       53.210     6449.312     9336.214     2831.304        2.222        0.931      160.676       59.930        0.139      343.817       20.195      864.978
07/21/2014  09:32:00       35.160      -96.768       14.197       30.552       73.689       35.985      933.454     5430.098     1294.947        0.923        0.383      102.958       41.853        0.165      343.666       19.937      864.984
07/21/2014  09:33:00       33.652     -108.690       -9.183       46.953       54.275       27.996     2204.614     2945.736      783.789        0.948        0.297      113.781       22.491        0.039      344.005       20.517      864.978
07/21/2014  09:34:00        5.604      -68.992       -6.071       46.261       52.042       24.181     2140.099     2708.342      584.718        0.513        0.272       69.219       29.239        0.178      344.240       20.919      864.966
07/21/2014  09:35:00       39.602      -45.761       25.638       26.431       62.398       41.965      698.576     3893.513     1761.061        0.534        0.318       60.518       44.290        0.536      344.424       21.232      864.957
07/21/2014  09:36:00      -11.342      -21.817       20.074       45.418       33.127       33.423     2062.800     1097.424     1117.082        0.264        0.214       24.590       17.820        0.525      344.495       21.355      864.958
07/21/2014  09:37:00      -95.128      -15.810       -8.225       34.993       42.229       22.419     1224.537     1783.255      502.611        0.644        0.176       96.433       21.376        0.049      343.439       19.551      864.956
07/21/2014  09:38:00      -74.612      -32.955       -8.712       29.591       21.565       13.810      875.642      465.049      190.726        0.413        0.077       81.566        6.429        0.006      343.545       19.732      864.951
07/21/2014  09:39:00       -7.815       19.197       19.784       30.441       32.123       29.631      926.643     1031.914      877.992        0.183        0.142       20.727       24.738        1.424      344.289       21.003      864.953
07/21/2014  09:40:00       -7.284      -31.313       13.012       40.468       35.148       34.727     1637.674     1235.409     1205.988        0.264        0.204       32.150       27.011        0.706      344.317       21.050      864.958
07/21/2014  09:41:00       -1.374       23.523       16.308       47.554       24.567       24.034     2261.353      603.555      577.626        0.213        0.172       23.563       19.521        0.686      344.215       20.876      864.953
07/21/2014  09:42:00       14.866        7.362       39.711       31.911       62.909       29.557     1018.330     3957.561      873.625        0.385        0.292       16.589       27.561        2.760      344.552       21.452      864.952
07/21/2014  09:43:00      -44.136       47.372      -14.596       44.261       44.705       40.573     1959.063     1998.492     1646.168        0.500        0.280       64.746       33.983        0.275      343.866       20.280      864.951
07/21/2014  09:44:00      -60.727       -7.865       -2.507       28.790       26.702       18.426      828.892      712.984      339.521        0.282        0.094       61.235        7.624        0.016      343.659       19.927      864.960
07/21/2014  09:45:00        5.703        1.646       43.844       38.688       77.470       42.801     1496.755     6001.622     1831.926        0.564        0.467        5.935       45.379       58.454      344.474       21.319      864.961
07/21/2014  09:46:00        8.142       78.205       96.329       45.618       55.524       48.526     2081.045     3082.939     2354.815        1.149        0.376       78.628       42.683        0.295      344.463       21.299      864.954
07/21/2014  09:47:00       56.377      -81.238       13.263       56.749       69.321       44.971     3220.467     4805.350     2022.421        1.000        0.502       98.884       52.033        0.277      344.096       20.672      864.951
07/21/2014  09:48:00       46.767      -84.120       19.325       39.891       53.081       27.927     1591.328     2817.615      779.917        0.741        0.259       96.246       18.468        0.037      343.862       20.273      864.952
07/21/2014  09:49:00        5.721       20.245       47.323       33.392       40.326       39.106     1115.058     1626.213     1529.294        0.348        0.214       21.038       22.680        1.162      344.786       21.852      864.941
07/21/2014  09:50:00       -7.119       49.309       84.435       25.103       48.902       28.323      630.183     2391.364      802.216        0.672        0.191       49.820       23.601        0.224      344.788       21.856      864.950
07/21/2014  09:51:00      -15.826       40.973       13.824       28.986       51.273       43.747      840.205     2628.947     1913.787        0.375        0.269       43.923       39.203        0.797      344.487       21.341      864.953
07/21/2014  09:52:00       45.922       55.528       65.649       65.577       69.960       48.392     4300.348     4894.459     2341.764        1.052        0.577       72.057       48.965        0.462      344.563       21.470      864.949
07/21/2014  09:53:00       43.189       65.342       67.432       70.027       45.219       37.816     4903.713     2044.773     1430.036        0.953        0.419       78.325       34.974        0.199      344.249       20.933      864.950
07/21/2014  09:54:00       76.017       77.749       52.717       40.075       27.768       33.004     1605.999      771.049     1089.264        0.903        0.173      108.735       20.804        0.037      343.787       20.146      864.953
07/21/2014  09:55:00      109.561       65.713        5.207       54.848       48.445       43.798     3008.253     2346.952     1918.239        1.181        0.364      127.757       20.498        0.026      343.833       20.224      864.942
07/21/2014  09:56:00       98.486       48.509        8.602       45.862       48.272       34.291     2103.317     2330.159     1175.851        0.887        0.280      109.785       19.242        0.031      344.044       20.584      864.939
07/21/2014  09:57:00      -21.547      102.550       -4.933       23.678       38.917       29.802      560.659     1514.504      888.170        0.698        0.148      104.789       17.373        0.027      343.946       20.415      864.938
07/21/2014  09:58:00        8.768       30.174       27.587       24.695       36.571       37.869      609.867     1337.415     1434.042        0.256        0.169       31.422       17.102        0.296      344.700       21.705      864.939
07/21/2014  09:59:00       56.440       39.151       39.981       44.221       32.283       42.006     1955.487     1042.222     1764.539        0.554        0.238       68.690       28.090        0.167      344.237       20.913      864.946
07/21/2014  10:00:00       22.797       17.890       16.622       28.816       24.715       23.781      830.348      610.817      565.542        0.156        0.100       28.978       15.407        0.283      344.354       21.113      864.948
07/21/2014  10:01:00        3.284       -6.800       23.434       25.398       17.331       14.226      645.069      300.367      202.387        0.088        0.057        7.552       10.423        1.905      344.900       22.049      864.953
07/21/2014  10:02:00       42.180      -28.995       12.843       47.915       56.091       35.842     2295.881     3146.184     1284.672        0.475        0.336       51.185       23.629        0.213      344.403       21.197      864.954
07/21/2014  10:03:00       64.682      -11.372       18.109       31.328       38.619       37.465      981.423     1491.438     1403.619        0.426        0.194       65.674       26.532        0.163      344.096       20.672      864.958
07/21/2014  10:04:00       25.445        3.627       37.057       28.918       33.416       35.726      836.250     1116.649     1276.343        0.263        0.161       25.702       29.056        1.278      344.580       21.500      864.959
07/21/2014  10:05:00       12.192       12.434       58.410       34.140       39.445       29.872     1165.553     1555.893      892.353        0.366        0.181       17.414       25.494        2.143      344.745       21.782      864.957
07/21/2014  10:06:00       28.524       15.061       27.644       39.198       34.154       35.853     1536.455     1166.529     1285.454        0.290        0.199       32.256       27.838        0.745      344.288       21.002      864.965
07/21/2014  10:07:00      -71.436       13.700       -4.241       29.799       22.074       22.706      888.001      487.256      515.569        0.360        0.095       72.738       19.784        0.074      343.944       20.412      864.959
07/21/2014  10:08:00      -20.510      -32.347        2.717       30.547       34.254       19.260      933.148     1173.315      370.933        0.198        0.124       38.301       20.368        0.283      344.398       21.190      864.970
07/21/2014  10:09:00       -9.940      -21.419       15.874       35.340       51.981       30.062     1248.913     2702.042      903.697        0.283        0.243       23.613       35.219        2.224      344.571       21.484      864.964
07/21/2014  10:10:00      -72.076      -73.859       10.965       48.585       46.478       28.076     2360.525     2160.182      788.287        0.804        0.265      103.199       21.416        0.043      343.977       20.470      864.977
07/21/2014  10:11:00      -84.165      -23.872      -17.723       21.131       23.239       26.196      446.509      540.041      686.239        0.482        0.084       87.485       14.099        0.026      343.835       20.226      864.973
07/21/2014  10:12:00      -80.744        7.542       -0.350       18.669       26.392       19.344      348.538      696.564      374.171        0.400        0.071       81.095       16.896        0.043      343.977       20.470      864.966
07/21/2014  10:13:00      -41.068       37.490        9.899       31.972       24.942       27.470     1022.193      622.120      754.587        0.279        0.120       55.606       14.759        0.070      344.343       21.094      864.958
07/21/2014  10:14:00     -100.152       32.223      -15.106       29.972       48.153       20.457      898.326     2318.698      418.490        0.747        0.182      105.208       16.986        0.026      343.785       20.142      864.962
07/21/2014  10:15:00      -32.645        5.004        2.459       12.222       15.836       12.847      149.372      250.768      165.038        0.083        0.028       33.026       10.837        0.108      343.954       20.430      864.965
07/21/2014  10:16:00      -32.801       18.966       -3.538       17.157       21.732       23.426      294.346      472.272      548.785        0.138        0.066       37.889       12.183        0.103      344.107       20.691      864.963
07/21/2014  10:17:00      -20.978       11.737       -9.346       21.213       16.981       13.635      450.004      288.349      185.911        0.079        0.046       24.039       11.795        0.241      344.252       20.940      864.945
07/21/2014  10:18:00      -20.634       29.599       -3.376       32.142       29.755       26.761     1033.140      885.343      716.150        0.197        0.132       36.082       20.800        0.332      344.640       21.604      864.941
07/21/2014  10:19:00       53.017       40.206       17.162       60.311       54.634       23.444     3637.433     2984.842      549.634        0.595        0.359       66.538       11.974        0.032      344.927       22.094      864.937
07/21/2014  10:20:00       93.283       62.543       24.808       44.157       33.816       35.606     1949.832     1143.489     1267.760        0.879        0.218      112.309       17.985        0.026      344.237       20.912      864.927
07/21/2014  10:21:00       47.872       74.137       46.134       54.926       39.445       61.098     3016.844     1555.943     3732.929        0.911        0.415       88.250       46.762        0.281      344.636       21.596      864.928
07/21/2014  10:22:00        5.809       16.241       73.879       39.791       73.149       41.534     1583.349     5350.809     1725.078        0.721        0.433       17.249       45.429        6.937      344.924       22.088      864.920
07/21/2014  10:23:00       39.404       -6.147       43.502       57.265       61.889       46.790     3279.305     3830.288     2189.295        0.639        0.465       39.880       55.098        1.909      344.717       21.735      864.931
07/21/2014  10:24:00       23.980       36.297       34.953       46.615       36.175       26.078     2172.989     1308.597      680.058        0.364        0.208       43.503       18.429        0.179      345.179       22.525      864.931
07/21/2014  10:25:00      101.998       62.194       33.943       55.155       56.516       46.230     3042.092     3194.038     2137.210        1.190        0.419      119.464       27.947        0.055      344.816       21.903      864.938
07/21/2014  10:26:00       95.447       79.447       27.991       76.025       49.607       35.790     5779.792     2460.852     1280.945        1.286        0.476      124.184       22.299        0.032      344.802       21.879      864.947
07/21/2014  10:27:00      140.715       90.537       26.483       39.626       35.228       40.944     1570.229     1241.015     1676.452        1.659        0.224      167.325       26.898        0.026      344.239       20.917      864.949
07/21/2014  10:28:00       88.557       86.685       13.082       24.994       26.082       25.576      624.699      680.258      654.128        0.874        0.098      123.922       13.563        0.012      344.096       20.672      864.961
07/21/2014  10:29:00       33.607       62.816        2.128       35.301       36.170       24.764     1246.187     1308.246      613.234        0.412        0.158       71.241       19.841        0.078      344.436       21.255      864.951
07/21/2014  10:30:00      -52.210       35.966      -11.804       33.621       24.923       32.949     1130.369      621.177     1085.635        0.350        0.142       63.399       21.951        0.120      344.718       21.737      864.959
07/21/2014  10:31:00      -93.526       22.139      -30.495       18.148       19.686       16.151      329.333      387.533      260.862        0.557        0.049       96.110        9.435        0.010      344.226       20.895      864.952
07/21/2014  10:32:00      -96.735       12.889      -13.836       15.327       22.600       12.601      234.918      510.761      158.782        0.531        0.045       97.590        7.394        0.006      344.096       20.675      864.944
07/21/2014  10:33:00      -68.523       -6.879       -5.216       14.719       29.359       16.731      216.636      861.935      279.920        0.306        0.068       68.867       10.096        0.021      344.343       21.096      864.943
07/21/2014  10:34:00      -11.132       33.767       11.022       29.648       51.043       29.029      878.988     2605.399      842.681        0.286        0.216       35.555       26.135        0.540      345.245       22.639      864.927
07/21/2014  10:35:00       30.682       35.958       21.016       40.825       41.385       34.774     1666.652     1712.718     1209.207        0.363        0.229       47.269       28.460        0.363      345.097       22.384      864.922
07/21/2014  10:36:00      -17.717      104.707       -4.783       43.102       88.410       32.704     1857.746     7816.394     1069.559        1.102        0.537      106.195       47.344        0.199      345.160       22.493      864.915
07/21/2014  10:37:00      -43.594      153.589      -11.906       28.576       40.026       25.906      816.600     1602.120      671.144        1.436        0.154      159.656       23.512        0.022      344.825       21.920      864.903
07/21/2014  10:38:00      -37.025      179.659      -17.518       37.632       46.550       24.649     1416.181     2166.890      607.578        1.907        0.210      183.434       20.658        0.013      344.791       21.859      864.904
07/21/2014  10:39:00      -26.953       81.911        9.027       41.633       51.793       34.616     1733.306     2682.467     1198.282        0.656        0.281       86.232       34.931        0.164      345.098       22.388      864.899
07/21/2014  10:40:00      -20.690        5.287        2.458       32.246       22.155       27.199     1039.795      490.845      739.765        0.137        0.114       21.355       11.920        0.312      345.068       22.337      864.893
07/21/2014  10:41:00       59.061       37.544       19.569       59.703       30.910       30.242     3564.492      955.399      914.601        0.536        0.272       69.984       32.120        0.211      345.195       22.553      864.891
07/21/2014  10:42:00       28.013       92.318       -9.354       32.428       48.849       28.739     1051.589     2386.267      825.921        0.683        0.213       96.474       25.116        0.068      345.279       22.694      864.887
07/21/2014  10:43:00       42.122       72.533        2.524       47.974       43.870       35.859     2301.484     1924.564     1285.894        0.628        0.276       83.877       33.341        0.158      345.247       22.641      864.889
07/21/2014  10:44:00        8.652       83.891       18.444       37.850       68.963       38.355     1432.597     4755.952     1471.143        0.755        0.383       84.336       37.967        0.203      345.433       22.961      864.879
07/21/2014  10:45:00      -20.229      108.226       15.544       36.885       69.826       42.955     1360.508     4875.739     1845.134        1.022        0.404      110.100       43.971        0.159      345.396       22.899      864.872
07/21/2014  10:46:00      -43.680       63.186        7.049       36.038       44.765       33.975     1298.729     2003.920     1154.274        0.520        0.223       76.814       31.826        0.172      345.542       23.148      864.871
07/21/2014  10:47:00      -57.974      111.350        1.469       38.682       42.930       40.417     1496.318     1842.970     1633.503        1.037        0.249      125.538       31.893        0.065      345.233       22.618      864.863
07/21/2014  10:48:00      -29.806       96.617        1.099       45.085       73.886       40.319     2032.670     5459.089     1625.638        0.967        0.456      101.110       45.894        0.206      345.242       22.635      864.863
07/21/2014  10:49:00     -149.419       77.064      -26.011       47.078       56.098       30.671     2216.295     3146.943      940.731        1.762        0.315      168.121       30.114        0.032      344.704       21.709      864.855
07/21/2014  10:50:00     -150.693       43.976      -36.005       56.319       47.994       30.576     3171.873     2303.454      934.898        1.617        0.321      156.978       15.315        0.010      344.642       21.604      864.839
07/21/2014  10:51:00       17.728       10.401      -17.439       46.174       41.977       27.673     2131.998     1762.063      765.803        0.269        0.233       20.554       25.524        1.542      344.865       21.986      864.843
07/21/2014  10:52:00       15.477       29.556        6.614       28.146       44.423       26.180      792.221     1973.430      685.375        0.230        0.173       33.363       17.503        0.275      345.389       22.885      864.827
07/21/2014  10:53:00       29.490       32.292       28.290       49.273       53.206       30.830     2427.828     2830.876      950.481        0.446        0.310       43.731       13.319        0.093      346.081       24.072      864.812
07/21/2014  10:54:00        0.507       55.054       75.614       37.102       52.092       46.478     1376.556     2713.627     2160.248        0.750        0.313       55.057       42.115        0.585      346.045       24.011      864.811
07/21/2014  10:55:00       72.960     -120.371       -1.286       60.862       64.894       44.289     3704.239     4211.242     1961.518        1.484        0.494      140.757       40.478        0.083      345.137       22.454      864.801
07/21/2014  10:56:00       47.935      -72.174       14.184       55.835       80.635       54.540     3117.542     6502.002     2974.656        1.015        0.630       86.642       47.662        0.303      345.520       23.109      864.804
07/21/2014  10:57:00       52.994       72.619       96.271       58.969       47.607       32.237     3477.332     2266.382     1039.197        1.207        0.339       89.899       37.405        0.173      345.313       22.755      864.811
07/21/2014  10:58:00       39.513       -9.113       52.724       63.069       75.775       46.455     3977.722     5741.820     2158.112        0.815        0.594       40.550       49.529        1.492      345.624       23.288      864.804
07/21/2014  10:59:00       65.512       52.332       50.883       53.684       96.978       69.503     2881.985     9404.658     4830.699        1.337        0.856       83.848       26.500        0.100      345.121       22.426      864.792
07/21/2014  11:00:00       -8.954      -10.208       18.135       40.828       78.264       30.084     1666.926     6125.212      905.046        0.460        0.435       13.579       10.049        0.548      345.640       23.316      864.793
07/21/2014  11:01:00       23.971      -67.684       12.094       43.594       50.557       30.496     1900.480     2555.976      929.987        0.534        0.269       71.803       16.156        0.051      345.153       22.479      864.791
07/21/2014  11:02:00       22.150      -14.200       29.175       41.298       59.280       42.359     1705.510     3514.152     1794.268        0.428        0.351       26.311       41.669        2.508      345.854       23.683      864.793
07/21/2014  11:03:00       78.712     -124.586      -10.037       53.551       41.905       37.379     2867.683     1756.053     1397.172        1.392        0.301      147.368       31.694        0.046      345.372       22.855      864.787
07/21/2014  11:04:00       68.242      -18.890       21.665       85.336      137.897       56.328     7282.224    19015.543     3172.806        1.747        1.474       70.808       50.380        0.506      345.901       23.761      864.775
07/21/2014  11:05:00       74.591       82.306        4.494       64.928       43.633       32.366     4215.593     1903.857     1047.574        0.976        0.358      111.077       22.279        0.040      345.782       23.558      864.797
07/21/2014  11:06:00       42.586       31.534       10.924       61.463       62.568       38.732     3777.720     3914.781     1500.141        0.606        0.460       52.990       23.669        0.200      345.600       23.249      864.809
07/21/2014  11:07:00       32.210       42.582       67.043       54.507       61.025       39.455     2970.971     3723.999     1556.685        0.780        0.413       53.392       36.145        0.458      345.822       23.629      864.812
07/21/2014  11:08:00       59.718       22.430       10.848       62.525       63.001       35.241     3909.314     3969.119     1241.937        0.665        0.456       63.791       16.103        0.064      345.151       22.476      864.813
07/21/2014  11:09:00      122.258      -84.580       28.633       97.410      108.960       58.684     9488.753    11872.186     3443.789        2.386        1.240      148.664       69.294        0.217      345.479       23.038      864.799
07/21/2014  11:10:00       18.154       -7.815       21.154       32.313       59.428       28.720     1044.136     3531.647      824.831        0.312        0.270       19.764       23.771        1.447      345.721       23.454      864.809
07/21/2014  11:11:00       20.948       -8.931       31.716       29.189       63.941       22.932      852.014     4088.441      525.892        0.349        0.273       22.773       20.117        0.780      345.659       23.347      864.783
07/21/2014  11:12:00       17.766        7.343       35.671       38.509       51.927       49.491     1482.913     2696.402     2449.390        0.413        0.331       19.224       38.605        4.033      345.649       23.330      864.776
07/21/2014  11:13:00       -3.721        4.118      -10.451       20.490       29.416       14.924      419.832      865.291      222.732        0.082        0.075        5.550        7.944        2.049      345.688       23.396      864.752
07/21/2014  11:14:00      -25.732       70.556        6.881       36.456       67.979       29.935     1329.056     4621.210      896.109        0.627        0.342       75.102       31.420        0.175      345.992       23.920      864.740
07/21/2014  11:15:00       66.517       65.306       10.792       58.218       44.085       39.767     3389.330     1943.500     1581.450        0.786        0.346       93.217       27.677        0.088      345.847       23.670      864.730
07/21/2014  11:16:00       70.025       27.657       19.309       60.918       49.578       38.608     3711.048     2458.007     1490.577        0.685        0.383       75.289       33.815        0.202      345.728       23.466      864.712
07/21/2014  11:17:00      113.179       20.665       13.090       69.083       53.731       45.626     4772.517     2886.996     2081.710        1.157        0.487      115.050       30.330        0.069      345.526       23.119      864.721
07/21/2014  11:18:00       21.904      -15.336       22.546       44.797       84.708       37.596     2006.732     7175.494     1413.469        0.591        0.530       26.739       28.715        1.153      345.716       23.444      864.712
07/21/2014  11:19:00       84.430       44.144       12.630       64.833       42.116       28.320     4203.255     1773.789      802.003        0.801        0.339       95.274       11.333        0.014      345.685       23.393      864.702
07/21/2014  11:20:00      120.520       96.412       37.189       68.507       72.786       63.416     4693.235     5297.808     4021.585        1.961        0.701      154.338       35.216        0.052      345.655       23.340      864.701
07/21/2014  11:21:00      165.870      109.831       67.378       85.966       72.220       61.010     7390.152     5215.781     3722.206        3.022        0.816      198.936       38.963        0.038      345.430       22.952      864.709
07/21/2014  11:22:00      119.723       77.275       62.934       94.248       56.274       61.274     8882.676     3166.817     3754.467        2.003        0.790      142.495       29.417        0.043      345.821       23.625      864.692
07/21/2014  11:23:00      113.285       73.972       85.379       73.313       73.535       57.541     5374.861     5407.376     3310.926        1.984        0.705      135.298       45.647        0.114      345.310       22.747      864.679
07/21/2014  11:24:00       53.551       13.303       58.094       55.765       73.771       48.308     3109.740     5442.167     2333.695        0.865        0.544       55.178       43.861        0.632      345.705       23.426      864.679
07/21/2014  11:25:00      126.884       92.873       77.290       74.377       73.933       72.741     5531.920     5466.070     5291.220        2.349        0.814      157.242       40.322        0.066      345.655       23.339      864.677
07/21/2014  11:26:00       91.931       68.122       41.659       64.027       61.885       59.646     4099.419     3829.771     3557.646        1.315        0.574      114.420       40.523        0.125      345.883       23.732      864.673
07/21/2014  11:27:00       36.314       15.520       18.032       75.752       56.922       48.158     5738.314     3240.092     2319.148        0.659        0.565       39.492       40.689        1.062      346.356       24.544      864.663
07/21/2014  11:28:00      185.625      111.578       39.734       79.785       72.174       73.818     6365.593     5209.068     5449.142        3.275        0.851      216.579       37.643        0.030      345.935       23.818      864.646
07/21/2014  11:29:00      151.983      120.634       66.837      111.245       80.523       81.816    12375.424     6483.930     6693.906        3.383        1.278      194.040       74.944        0.149      345.457       23.000      864.648
07/21/2014  11:30:00      107.598      116.565      133.453       86.507       87.879       64.356     7483.532     7722.673     4141.724        3.116        0.967      158.634       60.756        0.147      345.416       22.928      864.632
07/21/2014  11:31:00      111.481      105.246       79.828       81.335       59.250       60.478     6615.375     3510.511     3657.611        2.183        0.689      153.313       51.924        0.115      345.617       23.274      864.621
07/21/2014  11:32:00       65.806       39.713       68.043       63.281       76.857       55.892     4004.490     5907.030     3123.864        1.178        0.652       76.861       40.232        0.274      345.770       23.538      864.617
07/21/2014  11:33:00      100.804       87.996       15.469       38.271       40.380       42.751     1464.680     1630.565     1827.690        1.153        0.246      133.808       27.714        0.043      345.640       23.316      864.604
07/21/2014  11:34:00       32.280      104.897      -18.367       61.533       85.793       29.650     3786.357     7360.499      879.135        1.220        0.601      109.751       31.443        0.082      345.405       22.913      864.600
07/21/2014  11:35:00      -27.263      162.068       -0.746       36.527       67.122       32.516     1334.194     4505.332     1057.285        1.695        0.345      164.345       32.816        0.040      345.647       23.326      864.587
07/21/2014  11:36:00        2.802       35.579        9.222       28.658       32.778       34.636      821.258     1074.374     1199.623        0.223        0.155       35.689       25.111        0.495      346.081       24.072      864.580
07/21/2014  11:37:00        9.416       12.046       22.182       19.357       17.295       17.998      374.712      299.109      323.922        0.086        0.050       15.289       10.293        0.453      346.073       24.059      864.576
07/21/2014  11:38:00       27.609      -45.161        6.224       58.340       67.495       48.068     3403.555     4555.540     2310.562        0.655        0.513       52.932       24.017        0.206      345.789       23.571      864.559
07/21/2014  11:39:00       99.738     -105.777       10.065       76.880       91.193       48.470     5910.554     8316.087     2349.302        1.890        0.829      145.384       61.017        0.176      345.336       22.792      864.562
07/21/2014  11:40:00       40.476     -153.407      -15.712       51.220       48.429       49.716     2623.462     2345.348     2471.721        1.643        0.372      158.657       31.064        0.038      345.363       22.840      864.550
07/21/2014  11:41:00       23.501       -0.376       64.659       53.178      119.403       64.741     2827.937    14257.001     4191.395        1.300        1.064       23.504       76.228       10.518      345.720       23.452      864.551
07/21/2014  11:42:00       83.396       61.596       77.016       86.942       63.953       46.670     7558.994     4089.995     2178.100        1.525        0.691      103.677       32.118        0.096      345.671       23.366      864.553
07/21/2014  11:43:00      115.453       55.907       10.676       89.812       52.428       45.045     8066.196     2748.705     2029.034        1.470        0.642      128.277       36.811        0.082      345.667       23.361      864.557
07/21/2014  11:44:00      121.318       98.873       22.968       55.034       38.844       40.789     3028.779     1508.879     1663.712        1.561        0.310      156.506       24.939        0.025      345.271       22.682      864.558
07/21/2014  11:45:00      129.756      100.938       27.393       64.873       42.011       35.599     4208.478     1764.928     1267.264        1.751        0.362      164.394       28.325        0.030      345.222       22.595      864.560
07/21/2014  11:46:00       14.629       68.600       10.321       82.116       51.121       35.220     6742.983     2613.397     1240.430        0.781        0.530       70.143       30.710        0.192      345.689       23.400      864.544
07/21/2014  11:47:00      -58.147      125.152      -22.498       37.620       69.505       39.543     1415.270     4830.996     1563.635        1.368        0.390      138.000       21.448        0.024      345.407       22.916      864.538
07/21/2014  11:48:00      -90.269       15.907      -21.646       33.911       32.064       25.549     1149.956     1028.088      652.764        0.585        0.142       91.660       15.459        0.028      345.217       22.591      864.544
07/21/2014  11:49:00      -69.912       48.190      -10.778       34.622       34.694       24.183     1198.657     1203.694      584.807        0.516        0.149       84.911       21.160        0.062      345.314       22.755      864.543
07/21/2014  11:50:00       -9.400       29.819      -14.899       18.258       30.376       14.078      333.345      922.724      198.199        0.133        0.073       31.266       10.097        0.104      345.516       23.103      864.536
07/21/2014  11:51:00      -53.340      -12.066       -1.338       24.375       30.222       18.064      594.164      913.348      326.323        0.241        0.092       54.687       11.653        0.045      345.385       22.879      864.527
07/21/2014  11:52:00      -15.555       -2.581       17.251       33.713       18.834       18.675     1136.542      354.722      348.769        0.119        0.092       15.767       20.332        1.663      346.023       23.973      864.519
07/21/2014  11:53:00       -0.647        7.907       18.584       21.136       18.055       16.604      446.751      325.970      275.700        0.073        0.052        7.933        9.213        1.349      346.149       24.189      864.525
07/21/2014  11:54:00       29.566       45.729       27.726       43.823       31.448       21.044     1920.444      988.957      442.841        0.354        0.168       54.454       13.544        0.062      345.931       23.814      864.522
07/21/2014  11:55:00       27.386       73.221       -2.744       39.585       40.644       32.494     1566.995     1651.909     1055.841        0.520        0.214       78.175       32.017        0.168      345.623       23.286      864.519
07/21/2014  11:56:00       -5.425       40.823        6.677       20.671       55.357       22.922      427.293     3064.352      525.405        0.288        0.201       41.182       25.967        0.398      345.808       23.603      864.513
07/21/2014  11:57:00        5.802        8.282       17.820       17.450       18.241       16.845      304.506      332.724      283.769        0.067        0.046       10.112       13.972        1.909      345.803       23.595      864.511
07/21/2014  11:58:00      -13.289       -0.580       -4.745       31.117       16.784       17.480      968.275      281.700      305.550        0.088        0.078       13.302       15.306        1.324      345.480       23.040      864.505
07/21/2014  11:59:00       20.927       16.049       17.396       31.721       24.287       16.406     1006.247      589.851      269.155        0.143        0.093       26.373        8.994        0.116      345.750       23.503      864.510
07/21/2014  12:00:00       48.059       48.321       -1.519       25.091       20.034       26.368      629.575      401.381      695.253        0.319        0.086       68.151        5.794        0.007      345.503       23.081      864.507
07/21/2014  12:01:00       29.505       55.481        6.634       20.990       29.960       20.636      440.578      897.578      425.827        0.288        0.088       62.839       17.221        0.075      345.580       23.212      864.496
07/21/2014  12:02:00        6.408       99.105      -10.316       23.085       41.888       31.829      532.934     1754.596     1013.117        0.663        0.165       99.312       22.450        0.051      345.533       23.130      864.492
07/21/2014  12:03:00       -7.347       78.211        6.504       27.650       45.000       27.777      764.526     2024.971      771.576        0.489        0.178       78.555       27.256        0.120      345.826       23.634      864.493
07/21/2014  12:04:00       28.750       40.650       22.638       63.269       41.792       26.944     4003.013     1746.586      725.968        0.473        0.324       49.789       30.800        0.383      345.690       23.402      864.501
07/21/2014  12:05:00       41.912       62.919        3.118       56.018       34.913       33.871     3138.062     1218.901     1147.229        0.561        0.275       75.600       26.888        0.126      345.421       22.938      864.508
07/21/2014  12:06:00       70.351       29.209       -3.514       48.612       25.444       22.618     2363.093      647.376      511.564        0.467        0.176       76.174       11.948        0.025      345.337       22.796      864.504
07/21/2014  12:07:00        3.739       31.806       41.817       26.840       26.830       23.466      720.365      719.843      550.649        0.238        0.100       32.025       20.210        0.398      345.885       23.735      864.488
07/21/2014  12:08:00       35.594       21.085       11.277       41.109       28.954       25.483     1689.944      838.332      649.367        0.251        0.159       41.370       22.145        0.287      345.999       23.931      864.478
07/21/2014  12:09:00      121.136      104.031       18.909       72.081       60.578       49.616     5195.726     3669.708     2461.729        1.859        0.566      159.676       33.801        0.045      345.638       23.309      864.469
07/21/2014  12:10:00       84.935       77.155       10.509       69.784       42.447       34.955     4869.824     1801.770     1221.877        1.058        0.395      114.747       21.509        0.035      345.505       23.082      864.462
07/21/2014  12:11:00       98.214       81.208       -0.070       59.454       41.327       39.491     3534.762     1707.893     1559.527        1.152        0.340      127.439       26.196        0.042      345.474       23.029      864.467
07/21/2014  12:12:00       45.223       61.726       -4.664       41.330       35.227       32.679     1708.156     1240.949     1067.896        0.495        0.201       76.519       23.335        0.093      345.431       22.955      864.484
07/21/2014  12:13:00        5.599        1.455        3.479       31.408       23.792       19.440      986.440      566.065      377.919        0.099        0.097        5.785       20.935       13.096      345.485       23.049      864.492
07/21/2014  12:14:00      -35.173        1.944       -7.733       22.422       11.324        9.566      502.767      128.243       91.501        0.101        0.036       35.226        4.992        0.020      345.510       23.090      864.507
07/21/2014  12:15:00      -67.512       -5.590        3.015       29.712       28.229       17.771      882.800      796.866      315.823        0.330        0.100       67.743       13.751        0.041      345.505       23.083      864.523
07/21/2014  12:16:00      -73.612      -27.402       -5.051       21.038       13.932       12.307      442.609      194.091      151.464        0.349        0.039       78.547       10.186        0.017      345.401       22.905      864.548
07/21/2014  12:17:00      -46.291      -23.333        3.352       48.096       25.991       20.919     2313.204      675.548      437.622        0.306        0.171       51.839       23.286        0.202      345.593       23.234      864.561
07/21/2014  12:18:00       -7.826      -10.866       29.511       28.079       22.375       15.834      788.444      500.658      250.709        0.129        0.077       13.391       14.630        1.194      346.083       24.076      864.584
07/21/2014  12:19:00      -26.368      -18.343       -2.097       15.780       17.706       14.460      248.998      313.503      209.103        0.090        0.039       32.121       14.538        0.205      345.534       23.132      864.604
07/21/2014  12:20:00      -17.638       -5.145        7.389       13.758       17.405       14.780      189.291      302.921      218.436        0.055        0.036       18.373       10.637        0.335      345.676       23.377      864.622
07/21/2014  12:21:00       17.770       32.085       14.051       18.795       19.791       14.185      353.270      391.681      201.210        0.124        0.047       36.678       11.570        0.100      345.781       23.556      864.613
07/21/2014  12:22:00       34.130       67.919        1.663       28.141       39.199       32.970      791.924     1536.593     1087.034        0.460        0.171       76.013       25.161        0.110      345.587       23.224      864.595
07/21/2014  12:23:00      100.506       74.933       11.623       56.420       37.068       37.827     3183.234     1374.070     1430.849        1.092        0.299      125.365       23.482        0.035      345.519       23.107      864.559
07/21/2014  12:24:00      181.045       75.169       17.069       54.911       41.585       38.672     3015.231     1729.344     1495.486        2.248        0.312      196.030       23.589        0.014      345.521       23.108      864.523
07/21/2014  12:25:00       27.232       77.023       90.357       71.295       58.130       53.058     5082.952     3379.133     2815.193        1.306        0.564       81.695       51.139        0.392      345.761       23.523      864.512
07/21/2014  12:26:00        1.569       53.255       74.063       37.321       52.491       31.880     1392.855     2755.277     1016.316        0.674        0.258       53.278       28.234        0.281      345.661       23.352      864.506
07/21/2014  12:27:00       74.414       76.445       71.248       76.272       51.624       32.106     5817.350     2665.008     1030.767        1.298        0.476      106.683       15.858        0.022      345.449       22.988      864.502
07/21/2014  12:28:00       82.316       66.033       69.213       46.233       48.149       30.573     2137.490     2318.307      934.717        1.066        0.270      105.529       17.603        0.028      345.332       22.786      864.496
07/21/2014  12:29:00       13.061       35.934       64.200       44.436       34.313       26.216     1974.535     1177.379      687.259        0.471        0.192       38.234       24.796        0.421      345.448       22.984      864.495
07/21/2014  12:30:00       25.430       69.689       88.134       71.437       58.869       46.463     5103.202     3465.574     2158.802        1.200        0.536       74.184       42.126        0.322      345.318       22.762      864.476
07/21/2014  12:31:00       46.069       81.177       79.597       65.551       45.907       44.999     4296.977     2107.419     2024.955        1.174        0.421       93.338       35.600        0.145      345.189       22.542      864.471
07/21/2014  12:32:00       45.773       65.006       96.409       69.652       55.504       40.218     4851.416     3080.659     1617.513        1.258        0.477       79.505       32.971        0.172      345.211       22.578      864.470
07/21/2014  12:33:00      114.087       68.146       82.155      106.097       84.411       62.889    11256.615     7125.157     3955.070        2.337        1.117      132.890       61.722        0.216      345.026       22.260      864.443
07/21/2014  12:34:00      110.893       59.204       51.906       84.047       50.571       49.590     7063.857     2557.398     2459.165        1.529        0.604      125.708       42.703        0.115      345.085       22.363      864.430
07/21/2014  12:35:00      140.101       81.471       49.877       76.524       47.703       43.570     5855.989     2275.540     1898.385        1.939        0.501      162.067       36.354        0.050      345.024       22.258      864.395
07/21/2014  12:36:00      116.954       88.261       80.307       64.333       54.955       48.288     4138.785     3020.095     2331.699        1.870        0.475      146.521       38.836        0.070      345.088       22.368      864.354
07/21/2014  12:37:00       96.980       66.199       32.337       83.925       57.027       54.412     7043.485     3252.122     2960.710        1.404        0.663      117.420       53.044        0.204      344.926       22.092      864.329
07/21/2014  12:38:00       37.121       19.665       38.937       36.698       42.980       22.346     1346.749     1847.320      499.353        0.349        0.185       42.009       13.540        0.104      345.165       22.501      864.312
07/21/2014  12:39:00       45.624       79.384       88.480       51.360       36.311       32.016     2637.884     1318.512     1025.039        1.060        0.249       91.561       32.816        0.128      345.080       22.356      864.299
07/21/2014  12:40:00       47.291       64.824       70.486       50.622       56.529       31.769     2562.584     3195.509     1009.271        0.909        0.338       80.241       28.433        0.126      345.166       22.503      864.287
07/21/2014  12:41:00       13.568        6.342       54.908       38.426       63.790       38.028     1476.582     4069.134     1446.149        0.511        0.350       14.977       35.807        5.716      345.368       22.847      864.274
07/21/2014  12:42:00        1.756      -17.708       32.386       41.099       49.155       30.104     1689.126     2416.212      906.252        0.319        0.251       17.795       26.806        2.269      345.587       23.223      864.277
07/21/2014  12:43:00       76.356       -9.553       43.174       60.641       61.083       46.640     3677.309     3731.097     2175.310        0.868        0.479       76.951       45.332        0.347      345.534       23.133      864.276
07/21/2014  12:44:00       39.881       -6.156       48.787       60.214       84.528       57.374     3625.690     7144.997     3291.725        0.903        0.703       40.353       49.624        1.512      345.569       23.193      864.278
07/21/2014  12:45:00      123.369      -25.065       48.649       72.418       72.235       56.882     5244.328     5217.921     3235.506        1.595        0.685      125.889       47.234        0.141      345.413       22.925      864.265
07/21/2014  12:46:00       60.133       38.093       90.335       74.373       85.263       56.273     5531.275     7269.732     3166.682        1.459        0.798       71.183       52.028        0.534      345.375       22.861      864.260
07/21/2014  12:47:00       94.433      -33.400       41.401       70.227       71.238       47.272     4931.795     5074.868     2234.617        1.199        0.612      100.165       48.730        0.237      345.326       22.776      864.255
07/21/2014  12:48:00       72.359        3.250       35.271       76.592       58.005       33.007     5866.338     3364.598     1089.486        0.840        0.516       72.432       39.892        0.303      345.869       23.709      864.233
07/21/2014  12:49:00       15.987      -44.091       32.114       58.068       71.879       36.385     3371.848     5166.562     1323.883        0.654        0.493       46.900       22.892        0.238      345.987       23.911      864.197
07/21/2014  12:50:00       74.619        3.147       43.960       48.832       65.525       35.482     2384.608     4293.574     1258.964        0.772        0.397       74.685       33.528        0.202      345.501       23.077      864.185
07/21/2014  12:51:00       21.696       33.391       46.070       40.928       53.066       44.335     1675.084     2815.972     1965.548        0.508        0.323       39.820       41.603        1.092      345.627       23.292      864.153
07/21/2014  12:52:00       15.815       31.338       54.503       47.328       36.262       35.115     2239.953     1314.944     1233.047        0.449        0.239       35.102       31.003        0.780      345.905       23.769      864.117
07/21/2014  12:53:00       45.906       45.710       51.135       51.921       34.036       29.578     2695.785     1158.438      874.845        0.577        0.236       64.783       28.119        0.188      345.825       23.633      864.103
07/21/2014  12:54:00       45.110       69.932       -0.142       60.888       62.815       39.308     3707.295     3945.785     1545.104        0.806        0.460       83.219       25.534        0.094      345.647       23.327      864.089
07/21/2014  12:55:00       33.449       84.782       -7.769       33.202       50.415       30.770     1102.351     2541.705      946.808        0.648        0.230       91.142       28.856        0.100      345.399       22.903      864.091
07/21/2014  12:56:00       13.986       32.111        5.343       43.650       24.063       31.589     1905.337      579.031      997.837        0.237        0.174       35.025       21.312        0.370      345.797       23.584      864.080
07/21/2014  12:57:00      131.831       89.450        5.351       29.783       29.795       36.598      887.010      887.737     1339.443        1.426        0.156      159.314       17.410        0.012      345.216       22.588      864.057
07/21/2014  12:58:00       84.722       62.889        7.959       44.870       40.580       36.287     2013.320     1646.700     1316.740        0.809        0.249      105.512       22.787        0.047      345.374       22.857      864.038
07/21/2014  12:59:00       13.659       55.340       62.671       33.613       37.284       25.935     1129.805     1390.107      672.613        0.518        0.160       57.001       17.056        0.090      346.192       24.264      864.025
07/21/2014  13:00:00       -3.442       -0.488       29.228       33.777       67.657       34.657     1140.887     4577.453     1201.134        0.389        0.346        3.477       34.355       97.647      346.176       24.235      864.015
07/21/2014  13:01:00       24.161      -33.920       24.963       45.779       67.974       41.254     2095.705     4620.469     1701.908        0.539        0.421       41.645       36.799        0.781      346.236       24.338      863.993
07/21/2014  13:02:00       27.777      -15.979       22.261       48.810       46.183       38.846     2382.447     2132.864     1508.978        0.377        0.301       32.045       32.063        1.001      346.316       24.475      863.987
07/21/2014  13:03:00       22.210      -72.229        6.852       45.994       35.186       39.105     2115.414     1238.038     1529.226        0.532        0.244       75.567       29.745        0.155      345.979       23.898      863.979
07/21/2014  13:04:00        8.792      -64.306       -3.150       33.907       27.331       25.404     1149.665      746.973      645.359        0.338        0.127       64.905       20.799        0.103      345.663       23.355      863.975
07/21/2014  13:05:00      -24.593       -2.639        7.422       30.577       24.325       24.574      934.924      591.700      603.904        0.140        0.107       24.734        5.609        0.051      346.353       24.540      863.959
07/21/2014  13:06:00       65.397       55.690       24.002       57.125       45.760       29.887     3263.223     2093.976      893.239        0.710        0.313       85.896       31.450        0.134      346.194       24.269      863.972
07/21/2014  13:07:00       56.370       41.434        5.710       56.689       50.151       34.334     3213.697     2515.130     1178.846        0.592        0.345       69.960       14.504        0.043      346.049       24.018      863.966
07/21/2014  13:08:00       61.624       73.707       27.622       65.834       43.900       39.627     4334.098     1927.206     1570.338        0.891        0.392       96.074       33.219        0.120      346.258       24.374      863.962
07/21/2014  13:09:00       73.326       33.980        3.537       43.686       37.397       26.105     1908.481     1398.529      681.496        0.527        0.199       80.817       22.592        0.078      346.033       23.990      863.960
07/21/2014  13:10:00       40.193       82.855       -4.538       47.703       49.817       33.988     2275.567     2481.774     1155.179        0.721        0.296       92.089       24.469        0.071      346.079       24.068      863.946
07/21/2014  13:11:00       26.226       58.543      -10.757       53.556       41.812       26.401     2868.295     1748.259      696.989        0.477        0.266       64.149       24.436        0.145      346.074       24.061      863.933
07/21/2014  13:12:00       44.923       83.732       -0.463       53.288       85.324       31.283     2839.644     7280.184      978.615        1.006        0.555       95.021       41.047        0.187      346.080       24.070      863.913
07/21/2014  13:13:00      -41.233      117.020      -11.235       35.772       53.474       33.443     1279.662     2859.496     1118.410        1.039        0.263      124.072       32.289        0.068      346.089       24.086      863.910
07/21/2014  13:14:00      -38.086      168.355       -5.937       33.097       46.904       29.885     1095.391     2200.010      893.100        1.701        0.209      172.609       26.568        0.024      345.985       23.907      863.898
07/21/2014  13:15:00      -59.933      124.685       -1.404       66.904       65.338       43.686     4476.206     4268.990     1908.495        1.489        0.533      138.341       46.480        0.113      346.468       24.738      863.888
07/21/2014  13:16:00      -45.903      109.600      -11.964       37.481       47.965       33.605     1404.822     2300.642     1129.303        0.955        0.242      118.824       28.097        0.056      345.952       23.851      863.890
07/21/2014  13:17:00      -19.537       95.023       -5.226       25.359       63.144       23.712      643.103     3987.123      562.281        0.731        0.260       97.010       18.980        0.038      346.282       24.418      863.870
07/21/2014  13:18:00      -36.656       35.720        0.517       25.110       42.932       28.987      630.512     1843.196      840.228        0.297        0.166       51.182       19.826        0.150      346.392       24.607      863.857
07/21/2014  13:19:00       17.199       34.277       19.163       32.529       32.336       23.452     1058.140     1045.604      550.003        0.225        0.133       38.350       13.402        0.122      346.902       25.484      863.838
07/21/2014  13:20:00       50.832       39.890       30.402       26.304       20.519       25.929      691.923      421.049      672.339        0.344        0.089       64.615       12.540        0.038      346.065       24.044      863.826
07/21/2014  13:21:00      -33.555       23.310       23.783       30.318       35.062       24.195      919.181     1229.343      585.421        0.248        0.137       40.858       14.392        0.124      346.720       25.171      863.816
07/21/2014  13:22:00       -7.943      -37.439       22.456       50.260       48.096       28.781     2526.028     2313.251      828.362        0.382        0.283       38.272       26.001        0.462      346.574       24.920      863.813
07/21/2014  13:23:00       -5.383      -47.329       23.153       48.857       35.778       29.267     2386.991     1280.096      856.571        0.366        0.226       47.634       28.421        0.356      346.473       24.747      863.811
07/21/2014  13:24:00      -62.162      -48.461       -7.709       19.674       32.252       19.668      387.078     1040.209      386.815        0.404        0.091       78.820       16.442        0.044      346.035       23.994      863.811
07/21/2014  13:25:00      -33.465      -97.544        8.860       33.472       52.203       28.446     1120.364     2725.167      809.155        0.768        0.233      103.125       27.259        0.070      346.295       24.441      863.818
07/21/2014  13:26:00      -27.519        6.728       46.964       30.663       56.672       31.078      940.241     3211.734      965.840        0.406        0.256       28.330       32.715        1.334      346.802       25.311      863.824
07/21/2014  13:27:00      -12.238        0.479       36.359       27.606       45.631       21.565      762.073     2082.152      465.059        0.239        0.165       12.247       21.751        3.154      347.262       26.104      863.838
07/21/2014  13:28:00        2.104       47.536       57.621       22.703       31.206       23.822      515.438      973.844      567.465        0.382        0.103       47.582        9.499        0.040      346.946       25.559      863.837
07/21/2014  13:29:00      -39.297      -21.862        9.667       33.578       34.151       23.348     1127.504     1166.305      545.109        0.248        0.142       44.969       22.673        0.254      346.832       25.364      863.825
07/21/2014  13:30:00       -2.648       31.730       77.473       40.016       57.821       37.332     1601.261     3343.299     1393.670        0.668        0.317       31.840       40.810        1.643      346.898       25.478      863.809
07/21/2014  13:31:00       30.207        6.766       76.677       48.903       47.941       32.589     2391.458     2298.376     1062.027        0.629        0.288       30.956       31.029        1.005      346.918       25.511      863.797
07/21/2014  13:32:00        2.316       70.378       38.345       44.517       80.493       51.576     1981.773     6479.085     2660.044        0.877        0.556       70.416       41.663        0.350      346.647       25.045      863.790
07/21/2014  13:33:00        6.604      157.598      -19.600       28.341       72.835       31.796      803.186     5305.007     1010.987        1.619        0.356      157.736       38.857        0.061      346.310       24.466      863.803
07/21/2014  13:34:00       38.121       53.867       13.845       39.455       38.681       28.046     1556.718     1496.195      786.591        0.419        0.192       65.991       16.339        0.061      346.733       25.194      863.782
07/21/2014  13:35:00      112.760       76.463        0.861       77.367       49.262       41.009     5985.611     2426.737     1681.748        1.433        0.505      136.240       23.550        0.030      346.513       24.814      863.752
07/21/2014  13:36:00      -31.312      135.781      -25.208       67.593       65.661       33.961     4568.857     4311.369     1153.339        1.504        0.502      139.344       21.799        0.024      346.385       24.595      863.752
07/21/2014  13:37:00      -20.438       69.803        1.961       33.264       38.173       30.877     1106.517     1457.145      953.380        0.440        0.176       72.734       23.279        0.102      347.002       25.657      863.751
07/21/2014  13:38:00       14.149      136.577        5.108       48.900       84.515       49.212     2391.185     7142.828     2421.845        1.542        0.598      137.308       53.083        0.149      346.747       25.216      863.744
07/21/2014  13:39:00     -135.372      109.786      -24.660       62.291       96.088       35.551     3880.129     9232.844     1263.875        2.268        0.719      174.294       28.676        0.027      346.244       24.352      863.738
07/21/2014  13:40:00      -44.692       -7.274        1.689       64.801       42.638       29.465     4199.151     1818.013      868.206        0.447        0.344       45.280       28.537        0.397      346.592       24.950      863.727
07/21/2014  13:41:00      -32.850       98.625       11.390       60.202       98.889       46.026     3624.333     9779.029     2118.414        1.323        0.776      103.952       53.538        0.265      347.000       25.652      863.722
07/21/2014  13:42:00      -63.864      137.306       -9.988       47.397       60.420       35.292     2246.463     3650.598     1245.491        1.509        0.357      151.431       32.766        0.047      346.576       24.924      863.730
07/21/2014  13:43:00      -19.386      146.810       -3.500       30.300       48.088       38.508      918.103     2312.480     1482.836        1.333        0.236      148.084       27.866        0.035      346.659       25.064      863.711
07/21/2014  13:44:00      -95.549       64.974        3.688       67.525       68.003       42.650     4559.573     4624.414     1819.059        1.218        0.550      115.547       39.597        0.117      346.943       25.554      863.695
07/21/2014  13:45:00      -52.860       65.587        6.753       60.017       74.080       39.538     3601.995     5487.793     1563.254        0.890        0.533       84.237       37.468        0.198      347.084       25.797      863.690
07/21/2014  13:46:00       -9.872       43.079       17.710       35.113       41.706       28.153     1232.918     1739.360      792.564        0.302        0.188       44.195       23.417        0.281      347.205       26.006      863.688
07/21/2014  13:47:00       -9.782       86.639       -0.779       49.328       55.575       35.546     2433.274     3088.566     1263.554        0.719        0.339       87.189       35.833        0.169      346.894       25.469      863.678
07/21/2014  13:48:00      -49.037       61.955        5.949       49.968       45.570       28.900     2496.802     2076.654      835.196        0.584        0.270       79.013       29.198        0.137      347.088       25.804      863.654
07/21/2014  13:49:00      -59.472       80.843       -3.630       38.676       44.040       32.545     1495.800     1939.559     1059.167        0.729        0.225      100.362       26.558        0.070      346.797       25.302      863.626
07/21/2014  13:50:00       86.746       47.227        5.251       52.532       45.159       35.142     2759.644     2039.311     1234.947        0.791        0.302       98.768       27.711        0.079      346.650       25.050      863.582
07/21/2014  13:51:00       86.972       90.725       32.391       64.990       40.498       53.562     4223.655     1640.098     2868.892        1.279        0.437      125.679       42.669        0.115      346.655       25.059      863.529
07/21/2014  13:52:00     -213.642      192.425      -34.000      126.165      165.193       56.280    15917.606    27288.833     3167.451        6.509        2.319      287.525       45.659        0.025      346.751       25.221      863.511
07/21/2014  13:53:00     -340.969       20.309      -28.497      103.404       77.896       57.236    10692.365     6067.826     3275.911        6.876        1.002      341.573       57.820        0.029      346.679       25.097      863.497
07/21/2014  13:54:00     -166.348      -82.792        8.234       86.069       64.582       41.379     7407.855     4170.811     1712.204        2.394        0.665      185.812       40.896        0.048      346.858       25.406      863.513
07/21/2014  13:55:00     -234.609      -63.337      -12.144      109.103      102.498       54.209    11903.559    10505.907     2938.642        4.227        1.267      243.008       55.981        0.053      346.760       25.235      863.533
07/21/2014  13:56:00     -251.626      -47.676      -15.581       93.246       75.708       44.965     8694.743     5731.673     2021.878        4.114        0.822      256.102       50.078        0.038      346.819       25.337      863.521
07/21/2014  13:57:00     -273.262      -34.964      -26.507      109.465       84.607       49.782    11982.678     7158.304     2478.228        4.910        1.081      275.490       56.664        0.042      346.853       25.397      863.518
07/21/2014  13:58:00     -329.616      -57.189       -8.503      153.640       96.520       56.912    23605.274     9316.019     3238.985        7.407        1.808      334.540       65.384        0.038      346.882       25.446      863.524
07/21/2014  13:59:00     -225.482     -118.733        2.311      128.659       91.757       44.831    16553.253     8419.363     2009.775        4.596        1.349      254.833       55.620        0.048      346.820       25.339      863.528
07/21/2014  14:00:00     -142.663      -62.379       11.296      154.825       85.123       50.844    23970.877     7245.896     2585.114        2.908        1.690      155.705       71.240        0.209      347.180       25.962      863.549
07/21/2014  14:01:00     -111.812      -22.248       14.198       96.216       75.486       53.385     9257.518     5698.100     2849.972        1.550        0.890      114.004       57.440        0.254      346.964       25.588      863.549
07/21/2014  14:02:00      -27.603      -27.185       29.733       62.763       85.951       49.486     3939.178     7387.609     2448.819        0.808        0.689       38.742       43.876        1.283      347.242       26.070      863.538
07/21/2014  14:03:00     -201.947     -106.760       -0.110      117.160       91.314       49.282    13726.479     8338.331     2428.688        3.833        1.225      228.430       57.865        0.064      346.768       25.250      863.534
07/21/2014  14:04:00     -238.099      -30.673       -0.918       75.639       80.132       39.952     5721.299     6421.104     1596.201        3.568        0.687      240.067       36.980        0.024      346.671       25.082      863.550
07/21/2014  14:05:00     -254.749      -58.521      -13.492       54.178       61.683       35.460     2935.236     3804.762     1257.394        3.825        0.400      261.384       24.379        0.009      346.442       24.689      863.572
07/21/2014  14:06:00     -227.508      -69.194       -6.514       59.485       48.588       32.748     3538.518     2360.749     1072.428        3.178        0.349      237.798       20.641        0.008      346.485       24.762      863.576
07/21/2014  14:07:00     -135.299      -27.771       -8.191       54.050       35.692       25.461     2921.383     1273.909      648.268        1.199        0.242      138.119       25.421        0.034      346.610       24.979      863.565
07/21/2014  14:08:00     -181.976      -79.690        2.735       78.188       67.295       37.298     6113.331     4528.554     1391.123        2.575        0.602      198.660       31.426        0.025      346.722       25.172      863.547
07/21/2014  14:09:00     -169.569      117.858      -25.986       75.303       74.867       44.630     5670.588     5605.062     1991.814        2.829        0.663      206.504       21.508        0.011      346.577       24.923      863.553
07/21/2014  14:10:00     -139.397      188.593      -17.635      162.327      119.060       67.321    26350.161    14175.366     4532.114        5.017        2.253      234.518       90.141        0.148      346.339       24.512      863.543
07/21/2014  14:11:00      -70.537      335.795      -26.293       79.248      146.115       50.413     6280.281    21349.646     2541.430        7.429        1.509      343.123       48.732        0.020      346.383       24.587      863.494
07/21/2014  14:12:00     -110.505       37.939       -0.495       85.100       93.262       49.527     7241.967     8697.733     2452.944        1.602        0.920      116.837       43.809        0.141      346.592       24.950      863.484
07/21/2014  14:13:00      -74.061      103.481        1.464       51.320       55.505       46.050     2633.745     3080.846     2120.597        1.201        0.392      127.253       35.401        0.077      346.637       25.028      863.462
07/21/2014  14:14:00     -119.924      185.078      -25.240       87.910      125.734       59.147     7728.180    15808.994     3498.318        3.815        1.352      220.535       66.294        0.090      346.584       24.936      863.421
07/21/2014  14:15:00     -133.815      130.690      -23.656      132.294       98.692       64.924    17501.720     9740.151     4215.168        3.350        1.573      187.046       78.487        0.176      346.613       24.985      863.378
07/21/2014  14:16:00     -172.577      275.586      -48.004       99.373      120.930       64.346     9874.933    14624.142     4140.436        6.833        1.432      325.162       74.233        0.052      346.426       24.662      863.332
07/21/2014  14:17:00      -70.254      309.579      -37.356       96.925      160.953       65.908     9394.416    25905.940     4343.836        7.090        1.982      317.450       82.624        0.068      346.416       24.644      863.312
07/21/2014  14:18:00      -75.793      501.232      -51.310       75.353      103.020       50.925     5678.039    10613.109     2593.327       13.924        0.944      506.930       40.870        0.006      346.316       24.473      863.295
07/21/2014  14:19:00     -111.372      360.073      -33.483      108.471      132.063       57.520    11765.879    17440.717     3308.591        8.784        1.626      376.904       66.481        0.031      346.319       24.478      863.330
07/21/2014  14:20:00      -74.197      441.812      -52.238       69.077      115.265       52.867     4771.584    13285.976     2794.908       11.214        1.043      447.999       44.063        0.010      346.258       24.373      863.374
07/21/2014  14:21:00      -81.618      199.723       -5.918       80.192      110.663       50.489     6430.768    12246.190     2549.127        3.390        1.061      215.756       40.408        0.035      346.420       24.652      863.404
07/21/2014  14:22:00      -91.395      371.445      -34.339       84.448      168.664       59.720     7131.529    28447.620     3566.465        9.332        1.957      382.524       76.884        0.040      346.208       24.286      863.397
07/21/2014  14:23:00     -164.217      328.769      -31.058       95.709      129.933       65.564     9160.127    16882.672     4298.623        8.318        1.517      367.500       68.789        0.035      346.222       24.311      863.391
07/21/2014  14:24:00     -161.139      342.642      -49.080       87.247       99.498       59.264     7612.048     9899.855     3512.189        8.340        1.051      378.641       55.202        0.021      346.165       24.211      863.370
07/21/2014  14:25:00      -99.757      197.692      -31.324       58.166       55.452       37.497     3383.264     3074.970     1406.046        2.894        0.393      221.435       28.981        0.017      346.354       24.539      863.346
07/21/2014  14:26:00     -143.889      144.240      -37.928       85.413       64.931       47.672     7295.324     4216.100     2272.635        2.836        0.689      203.738       47.989        0.055      346.426       24.663      863.334
07/21/2014  14:27:00     -230.004      175.111      -54.952       76.486       98.341       49.575     5850.048     9670.960     2457.649        5.228        0.899      289.077       48.553        0.028      346.260       24.375      863.315
07/21/2014  14:28:00     -156.062      108.692      -13.073       95.817       75.108       52.378     9180.810     5641.257     2743.411        2.695        0.878      190.182       48.134        0.064      346.409       24.632      863.286
07/21/2014  14:29:00     -227.384      264.802      -51.304       85.354      128.192       53.579     7285.342    16433.272     2870.727        7.552        1.329      349.032       45.093        0.017      346.236       24.334      863.247
07/21/2014  14:30:00     -213.899      139.404      -32.550      134.699      128.584       71.046    18143.762    16533.869     5047.509        5.298        1.986      255.316       90.285        0.125      346.394       24.607      863.166
07/21/2014  14:31:00      -65.560      253.088      -24.018       87.812      141.710       55.268     7710.906    20081.683     3054.516        4.988        1.542      261.441       49.589        0.036      346.534       24.847      863.148
07/21/2014  14:32:00      -80.750      203.698      -17.056      105.105      157.288       51.360    11047.074    24739.477     2637.891        4.336        1.921      219.119       63.130        0.083      346.591       24.947      863.142
07/21/2014  14:33:00     -101.024      219.115      -32.238       91.097      111.223       40.531     8298.617    12370.592     1642.758        4.078        1.116      241.282       42.090        0.030      346.478       24.752      863.150
07/21/2014  14:34:00       -3.094      310.742      -27.665       51.521      137.016       45.827     2654.386    18773.289     2100.071        6.043        1.176      310.758       62.362        0.040      346.482       24.759      863.148
07/21/2014  14:35:00      -22.283      293.416      -35.280       38.376       70.951       25.155     1472.718     5033.997      632.764        4.749        0.357      294.261       28.888        0.010      346.363       24.553      863.148
07/21/2014  14:36:00      -84.801      212.676      -20.354       64.094      103.434       52.870     4108.016    10698.582     2795.251        3.522        0.880      228.959       51.327        0.050      346.702       25.136      863.129
07/21/2014  14:37:00      -31.006      290.104      -23.206       89.039      119.882       56.068     7927.947    14371.658     3143.578        5.555        1.272      291.756       57.934        0.039      346.796       25.298      863.126
07/21/2014  14:38:00       29.455      171.435        3.911       94.096      134.434       67.315     8854.096    18072.470     4531.276        3.086        1.573      173.947       72.115        0.172      347.010       25.667      863.131
07/21/2014  14:39:00      -32.008      220.125      -26.080       41.787      103.356       40.540     1746.193    10682.510     1643.473        3.211        0.704      222.440       38.275        0.030      346.842       25.379      863.111
07/21/2014  14:40:00      -57.063      170.362       -9.392       79.906      149.630       48.350     6384.901    22389.212     2337.764        3.173        1.556      179.665       61.516        0.117      347.222       26.034      863.102
07/21/2014  14:41:00       -1.146      268.914       -8.295       87.386      163.303       66.978     7636.352    26667.806     4486.010        5.558        1.940      268.916       73.367        0.074      346.872       25.430      863.077
07/21/2014  14:42:00       66.109      281.555      -22.663       76.300      121.617       76.253     5821.615    14790.738     5814.523        5.529        1.321      289.212       77.379        0.072      346.821       25.341      863.016
07/21/2014  14:43:00       -9.186      307.689      -30.752       95.190      148.305       76.801     9061.129    21994.269     5898.458        6.632        1.848      307.827       77.837        0.064      346.950       25.563      862.996
07/21/2014  14:44:00       -5.142      331.985      -38.161       70.727      160.323       70.799     5002.274    25703.624     5012.488        7.370        1.786      332.025       82.986        0.062      346.794       25.295      862.986
07/21/2014  14:45:00      -29.918      149.120       -4.128       55.933      100.521       56.650     3128.486    10104.410     3209.254        1.979        0.822      152.092       56.179        0.136      347.156       25.919      862.959
07/21/2014  14:46:00       13.308      169.881       -0.655       76.198      107.646       52.164     5806.143    11587.617     2721.048        2.457        1.006      170.402       54.565        0.103      347.423       26.381      862.936
07/21/2014  14:47:00       30.565      175.417        8.873      118.180      118.619       68.166    13966.515    14070.432     4646.550        3.223        1.634      178.060       79.259        0.198      347.200       25.994      862.914
07/21/2014  14:48:00      -62.952      250.719      -29.082       78.135      107.473       55.371     6105.146    11550.388     3065.944        4.419        1.036      258.502       52.385        0.041      347.288       26.147      862.955
07/21/2014  14:49:00      -84.199      254.667      -24.248       72.003      130.850       61.872     5184.440    17121.791     3828.203        4.933        1.307      268.225       70.711        0.069      347.160       25.925      862.959
07/21/2014  14:50:00      -12.945      207.216      -11.526       68.966      146.985       57.608     4756.262    21604.529     3318.686        3.645        1.484      207.620       71.782        0.120      347.141       25.892      862.968
07/21/2014  14:51:00     -106.227      179.003      -35.469       68.488       78.615       42.966     4690.595     6180.320     1846.098        2.865        0.636      208.150       42.786        0.042      347.236       26.055      862.957
07/21/2014  14:52:00     -106.583       71.752      -20.798       66.258       72.944       43.044     4390.184     5320.802     1852.823        1.425        0.578      128.484       40.085        0.097      347.397       26.337      862.963
07/21/2014  14:53:00        4.237       31.557        6.759       82.700       62.869       48.759     6839.314     3952.474     2377.424        0.711        0.658       31.840       34.076        1.145      347.491       26.498      862.948
07/21/2014  14:54:00      -82.212      259.213      -29.291       77.866      102.534       39.024     6063.139    10513.134     1522.839        4.645        0.905      271.938       38.537        0.020      347.130       25.873      862.981
07/21/2014  14:55:00     -142.135      227.577      -28.517      106.703      130.644       74.191    11385.529    17067.985     5504.343        5.338        1.698      268.316       63.609        0.056      347.257       26.091      863.031
07/21/2014  14:56:00     -166.121      271.904      -35.504      130.112      175.541       76.185    16929.247    30814.565     5804.208        7.816        2.677      318.635       79.910        0.063      346.955       25.573      863.031
07/21/2014  14:57:00     -142.615       55.938        1.745      125.070      142.299       74.614    15642.445    20248.867     5567.313        3.246        2.073      153.193       70.136        0.210      347.118       25.854      863.010
07/21/2014  14:58:00     -120.330       61.287       -5.842      107.980      116.396       68.982    11659.752    13548.026     4758.584        2.411        1.498      135.039       56.526        0.175      347.132       25.879      863.024
07/21/2014  14:59:00     -283.083        8.010      -10.195      205.256      177.035       76.279    42129.946    31341.306     5818.479        7.978        3.964      283.196       73.839        0.068      346.990       25.632      863.016
07/21/2014  15:00:00     -247.031       49.687      -11.709      159.815      189.271       87.662    25540.902    35823.358     7684.686        6.633        3.452      251.978       66.378        0.069      346.922       25.515      863.030
07/21/2014  15:01:00     -284.471      138.784      -20.403      178.050      117.487       82.026    31701.856    13803.258     6728.186        7.641        2.612      316.520       91.294        0.083      346.852       25.395      863.044
07/21/2014  15:02:00     -191.939       25.750      -26.609      127.832      183.313       78.527    16341.062    33603.733     6166.413        4.715        2.806      193.659       70.682        0.133      346.766       25.247      863.047
07/21/2014  15:03:00     -235.672      125.432      -38.717      107.425       96.990       53.320    11540.040     9406.975     2843.039        4.828        1.190      266.973       33.961        0.016      346.884       25.447      863.021
07/21/2014  15:04:00     -211.829      329.310      -45.949      137.242      147.327       81.253    18835.384    21705.162     6602.121       10.128        2.357      391.557       73.592        0.035      346.793       25.291      863.037
07/21/2014  15:05:00     -240.061      235.228      -43.473      108.988      148.391       74.678    11878.362    22019.888     5576.792        7.716        1.974      336.097       64.154        0.036      346.818       25.336      863.007
07/21/2014  15:06:00     -176.705      179.385      -37.255      129.578      116.182       65.924    16790.449    13498.159     4345.992        4.971        1.732      251.801       77.627        0.095      346.802       25.309      863.019
07/21/2014  15:07:00     -150.298      124.090      -12.952       94.800      144.233       68.071     8987.006    20803.150     4633.640        3.628        1.721      194.905       61.554        0.100      346.787       25.283      863.002
07/21/2014  15:08:00     -242.537      320.787      -45.889      138.920      130.732       75.778    19298.776    17090.834     5742.306       10.297        2.107      402.155       90.075        0.050      346.605       24.970      862.994
07/21/2014  15:09:00     -144.732      197.397      -28.993       77.962      208.758       57.380     6078.061    43580.021     3292.519        5.684        2.648      244.772       76.268        0.097      346.989       25.632      862.981
07/21/2014  15:10:00     -186.391      211.404      -27.530      123.882      134.270       71.978    15346.667    18028.503     5180.772        5.937        1.928      281.839       66.702        0.056      346.984       25.622      863.003
07/21/2014  15:11:00     -150.722      136.543      -12.915      101.431       94.501       61.762    10288.164     8930.431     3814.558        3.228        1.152      203.374       59.022        0.084      347.236       26.056      862.994
07/21/2014  15:12:00      -84.618      133.044       -6.971       89.529       91.808       52.721     8015.500     8428.717     2779.464        2.206        0.961      157.673       47.409        0.090      347.186       25.971      862.994
07/21/2014  15:13:00     -245.589      294.769      -67.173      121.638      120.271       65.045    14795.854    14465.122     4230.791        9.260        1.675      383.671       58.047        0.023      346.731       25.184      863.000
07/21/2014  15:14:00     -174.475      224.941      -15.060      117.814      121.485       79.295    13880.082    14758.552     6287.702        5.809        1.746      284.675       66.383        0.054      346.744       25.206      862.989
07/21/2014  15:15:00     -192.102      374.029      -50.599       97.909      168.438       62.357     9586.098    28371.318     3888.349       11.060        2.092      420.477       47.842        0.013      346.609       24.976      862.984
07/21/2014  15:16:00     -188.784      260.482      -30.861       79.492      145.210       62.897     6319.042    21086.070     3956.042        6.790        1.568      321.700       49.170        0.023      346.762       25.239      862.963
07/21/2014  15:17:00     -252.569      328.313      -55.612      101.969      148.053       66.944    10397.633    21919.769     4481.521       10.573        1.840      414.222       72.875        0.031      346.599       24.959      862.963
07/21/2014  15:18:00     -242.942      260.578      -62.727      132.541      110.313       68.931    17567.211    12168.982     4751.450        8.267        1.724      356.261       79.496        0.050      346.581       24.928      862.948
07/21/2014  15:19:00     -202.184      189.195      -20.514      133.829      115.808       63.289    17910.285    13411.518     4005.458        5.620        1.766      276.899       53.585        0.037      346.730       25.184      862.945
07/21/2014  15:20:00     -137.007      213.506      -11.309       98.682      136.058       59.992     9738.111    18511.798     3599.026        4.816        1.592      253.684       58.266        0.053      346.744       25.208      862.924
07/21/2014  15:21:00     -137.493      254.203      -26.310       96.840      122.751       64.910     9377.993    15067.886     4213.358        5.643        1.433      289.004       69.275        0.057      346.751       25.220      862.916
07/21/2014  15:22:00      -65.662      252.817      -13.230       93.243      117.188       69.128     8694.284    13733.104     4778.744        4.780        1.360      261.205       58.624        0.050      346.764       25.244      862.892
07/21/2014  15:23:00     -197.840      269.240      -55.533       84.343      117.436       54.462     7113.755    13791.106     2966.108        6.929        1.194      334.112       45.244        0.018      346.704       25.140      862.864
07/21/2014  15:24:00     -134.523      138.084      -27.638      105.482      122.329       52.591    11126.471    14964.497     2765.862        3.339        1.443      192.779       60.615        0.099      346.789       25.288      862.860
07/21/2014  15:25:00     -117.065      288.824      -39.115       86.520       90.952       54.526     7485.780     8272.227     2973.085        5.869        0.937      311.647       51.382        0.027      346.682       25.101      862.848
07/21/2014  15:26:00     -126.741      190.959      -19.957       76.822      152.691       63.443     5901.683    23314.532     4025.024        4.308        1.662      229.191       68.943        0.090      346.976       25.611      862.842
07/21/2014  15:27:00     -170.966      124.878      -23.960      126.728      120.702       65.762    16059.922    14568.996     4324.699        4.017        1.748      211.717       77.064        0.132      346.898       25.475      862.846
07/21/2014  15:28:00     -133.779      166.098      -19.772      114.885      113.563       54.378    13198.547    12896.588     2956.937        3.746        1.453      213.273       49.077        0.053      346.780       25.271      862.834
07/21/2014  15:29:00     -128.465      209.375      -21.847       99.388      117.301       70.416     9877.932    13759.497     4958.347        4.470        1.430      245.645       77.035        0.098      346.759       25.234      862.838
07/21/2014  15:30:00      -88.564      322.798      -27.999       75.452      118.304       57.289     5693.059    13995.858     3282.036        6.789        1.149      334.727       62.180        0.035      346.700       25.132      862.821
07/21/2014  15:31:00     -153.513      227.002      -22.737       97.535      110.649       61.576     9513.009    12243.096     3791.657        5.058        1.277      274.037       65.230        0.057      346.710       25.149      862.839
07/21/2014  15:32:00     -163.424      429.309      -50.973      114.284      147.455       65.751    13060.754    21742.893     4323.183       12.636        1.956      459.363       64.976        0.020      346.569       24.906      862.840
07/21/2014  15:33:00     -134.686      194.110      -18.123       80.873       91.553       54.030     6540.426     8381.916     2919.288        3.699        0.892      236.260       49.892        0.045      346.802       25.308      862.834
07/21/2014  15:34:00     -167.095      237.742      -46.696      113.028      117.540       55.270    12775.326    13815.582     3054.737        5.813        1.482      290.589       59.458        0.042      346.792       25.290      862.836
07/21/2014  15:35:00     -182.962      267.844      -33.973       91.936      114.607       58.520     8452.254    13134.731     3424.590        6.569        1.251      324.370       56.371        0.030      346.696       25.125      862.857
07/21/2014  15:36:00     -134.026      271.890      -33.113       83.384      121.079       61.233     6952.899    14660.033     3749.475        5.917        1.268      303.129       68.265        0.051      346.718       25.165      862.846
07/21/2014  15:37:00     -153.917      270.689      -20.943       85.984      131.882       63.990     7393.332    17392.738     4094.685        6.314        1.444      311.389       57.890        0.035      346.744       25.209      862.839
07/21/2014  15:38:00     -202.987      281.001      -54.335      134.490      115.796       65.695    18087.655    13408.756     4315.876        7.946        1.791      346.649       75.716        0.048      346.684       25.106      862.844
07/21/2014  15:39:00     -111.544      253.982      -14.661       71.628      134.043       57.994     5130.549    17967.405     3363.324        5.181        1.323      277.397       55.715        0.040      346.839       25.372      862.838
07/21/2014  15:40:00     -155.650       37.945      -38.239      140.509      124.948       56.921    19742.750    15611.963     3239.990        3.285        1.930      160.209       30.853        0.037      347.017       25.679      862.833
07/21/2014  15:41:00      -58.618      263.199      -32.269       61.482      111.373       44.639     3780.068    12403.902     1992.630        4.596        0.909      269.647       19.472        0.005      346.955       25.573      862.840
07/21/2014  15:42:00     -120.984      184.829      -17.073       73.233       73.960       52.052     5362.999     5470.097     2709.463        3.131        0.677      220.904       43.064        0.038      347.195       25.984      862.841
07/21/2014  15:43:00     -121.214      199.298      -30.704      111.835      115.166       68.082    12507.025    13263.137     4635.184        4.287        1.520      233.265       56.493        0.059      347.128       25.870      862.839
07/21/2014  15:44:00     -208.022      280.669      -44.656      147.871      182.140       77.223    21865.725    33174.979     5963.352        9.251        3.050      349.354      103.383        0.088      346.864       25.415      862.825
07/21/2014  15:45:00     -181.877      186.174      -17.045       94.438      128.801       66.473     8918.451    16589.655     4418.695        4.897        1.496      260.269       61.851        0.056      347.111       25.841      862.837
07/21/2014  15:46:00     -167.741      181.243      -22.487      100.545      114.549       65.410    10109.353    13121.479     4278.451        4.449        1.375      246.953       51.682        0.044      346.855       25.400      862.854
07/21/2014  15:47:00     -220.026       71.500      -23.769      147.201      129.375       73.298    21668.192    16737.845     5372.626        4.892        2.189      231.352       59.964        0.067      346.865       25.418      862.856
07/21/2014  15:48:00     -227.715       -1.657       -3.358      131.245      158.055       89.706    17225.355    24981.391     8047.226        5.105        2.513      227.721       81.307        0.127      346.883       25.449      862.833
07/21/2014  15:49:00     -251.532        5.399      -27.843      122.551      143.906       77.773    15018.795    20708.835     6048.575        5.292        2.089      251.590       52.491        0.044      346.801       25.307      862.837
07/21/2014  15:50:00     -171.099       -6.752       -3.521      116.273      130.975       50.229    13519.352    17154.453     2522.961        3.126        1.660      171.232       40.183        0.055      346.898       25.475      862.833
07/21/2014  15:51:00     -203.649      150.937      -32.913       89.612       87.487       48.637     8030.332     7654.030     2365.546        4.169        0.902      253.486       42.202        0.028      346.742       25.204      862.852
07/21/2014  15:52:00     -189.453      232.719      -54.082       87.798      106.591       65.126     7708.546    11361.668     4241.442        5.814        1.166      300.084       60.310        0.040      346.700       25.133      862.845
07/21/2014  15:53:00     -171.633      188.153      -29.819       94.634      102.533       55.590     8955.543    10513.061     3090.280        4.415        1.128      254.676       61.082        0.058      346.778       25.267      862.837
07/21/2014  15:54:00     -247.828      188.027      -33.978      113.397      119.525       68.256    12858.864    14286.243     4658.878        6.486        1.590      311.083       66.212        0.045      346.596       24.952      862.844
07/21/2014  15:55:00     -151.481      266.978      -22.991       91.230      126.760       64.353     8322.978    16067.989     4141.283        6.164        1.427      306.959       57.085        0.035      346.773       25.259      862.845
07/21/2014  15:56:00     -130.157      133.039      -21.539       99.162       99.937       70.394     9833.177     9987.436     4955.321        2.994        1.239      186.119       67.196        0.130      346.893       25.466      862.878
07/21/2014  15:57:00     -348.799       65.921      -46.581      152.386      110.121       66.029    23221.559    12126.603     4359.845        8.393        1.985      354.974       69.970        0.039      346.678       25.094      862.898
07/21/2014  15:58:00     -105.301       94.622       -2.615      104.347      113.740       67.823    10888.291    12936.761     4599.976        2.423        1.421      141.568       55.805        0.155      346.884       25.450      862.902
07/21/2014  15:59:00     -166.878      125.983      -22.010      110.696      118.773       68.924    12253.651    14107.053     4750.548        3.765        1.556      209.094       78.774        0.142      346.801       25.309      862.905
07/21/2014  16:00:00     -273.039      187.894      -39.670      134.579      189.221       77.340    18111.427    35804.502     5981.470        8.565        2.995      331.443       84.350        0.065      346.534       24.848      862.895
07/21/2014  16:01:00     -150.775      196.420      -13.449       97.178      137.820       56.903     9443.487    18994.250     3237.976        4.658        1.584      247.616       58.609        0.056      346.585       24.935      862.863
07/21/2014  16:02:00     -181.359      172.936      -38.072       91.031      130.426       66.112     8286.700    17010.872     4370.836        4.695        1.483      250.596       75.053        0.090      346.683       25.104      862.833
07/21/2014  16:03:00     -162.723      184.954      -35.440       57.205       89.739       41.122     3272.430     8053.127     1691.001        3.748        0.651      246.347       39.979        0.026      346.818       25.335      862.839
07/21/2014  16:04:00      -83.089      175.734      -17.983       77.177       79.807       48.950     5956.265     6369.081     2396.108        2.641        0.736      194.387       35.922        0.034      346.915       25.504      862.831
07/21/2014  16:05:00     -120.599      292.687      -42.725       70.068      112.210       50.839     4909.550    12591.015     2584.624        6.106        1.004      316.559       49.779        0.025      346.741       25.204      862.830
07/21/2014  16:06:00      -73.870      218.762      -30.879       61.466      117.751       47.921     3778.068    13865.311     2296.460        3.710        0.997      230.897       48.563        0.044      346.827       25.350      862.816
07/21/2014  16:07:00      -77.442      146.600      -13.717       68.849      111.189       52.680     4740.165    12363.039     2775.174        2.377        0.994      165.797       54.611        0.108      346.906       25.489      862.799
07/21/2014  16:08:00      -59.063      175.678      -14.781       79.838      129.214       43.247     6374.070    16696.130     1870.291        2.975        1.247      185.341       47.658        0.066      346.927       25.524      862.776
07/21/2014  16:09:00      -70.230      123.812      -23.904       66.420      145.664       57.751     4411.643    21217.977     3335.132        2.489        1.448      142.344       38.867        0.075      347.001       25.652      862.756
07/21/2014  16:10:00     -187.754      144.499      -28.865       95.316      152.634       57.134     9085.222    23297.047     3264.328        4.630        1.782      236.920       55.986        0.056      346.936       25.539      862.736
07/21/2014  16:11:00     -160.073      284.616      -35.929       75.381      138.973       51.685     5682.346    19313.418     2671.355        6.779        1.383      326.542       44.744        0.019      346.694       25.123      862.709
07/21/2014  16:12:00     -222.129      213.293      -41.456       96.089      121.583       54.296     9233.134    14782.349     2948.069        6.175        1.348      307.954       55.480        0.032      346.761       25.238      862.683
07/21/2014  16:13:00     -224.683      171.668      -49.995      110.990      136.653       64.195    12318.747    18673.927     4120.938        5.878        1.756      282.758       72.444        0.066      346.875       25.433      862.658
07/21/2014  16:14:00     -262.565      212.651      -56.523      102.527      152.675       70.135    10511.809    23309.511     4918.945        7.804        1.937      337.877       55.825        0.027      346.848       25.388      862.647
07/21/2014  16:15:00      -89.230      120.298       10.447       85.747       92.696       71.215     7352.502     8592.499     5071.584        2.178        1.051      149.778       63.643        0.181      347.143       25.897      862.632
07/21/2014  16:16:00     -123.521      264.250      -23.853      120.569      133.511       72.050    14536.835    17825.296     5191.248        6.160        1.878      291.694       74.420        0.065      346.975       25.607      862.626
07/21/2014  16:17:00     -160.856      262.022      -47.854       85.286      116.342       53.513     7273.682    13535.531     2863.664        6.024        1.184      307.458       41.422        0.018      347.114       25.845      862.596
07/21/2014  16:18:00     -147.011      212.296      -36.067       94.613      117.556       62.674     8951.652    13819.498     3927.978        4.734        1.335      258.228       62.409        0.058      347.280       26.131      862.578
07/21/2014  16:19:00     -154.065      216.845      -36.599      113.816      143.501       53.246    12954.139    20592.593     2835.101        5.423        1.819      266.003       53.124        0.040      347.405       26.347      862.587
07/21/2014  16:20:00     -247.951      292.730      -62.648      123.216      146.997       81.985    15182.068    21608.127     6721.467        9.729        2.176      383.628       80.960        0.045      346.949       25.562      862.599
07/21/2014  16:21:00     -218.608      213.718      -44.637      121.020      147.242       63.144    14645.790    21680.240     3987.106        6.788        2.016      305.720       83.431        0.074      347.078       25.782      862.609
07/21/2014  16:22:00     -235.916      281.696      -60.808      106.076      106.003       64.390    11252.169    11236.723     4146.019        8.267        1.332      367.435       57.654        0.025      346.879       25.440      862.604
07/21/2014  16:23:00      -41.161      246.543      -38.548       68.604      135.914       50.210     4706.499    18472.526     2521.075        4.483        1.285      249.956       58.634        0.055      346.881       25.446      862.586
07/21/2014  16:24:00      -85.281      292.370      -25.357       87.061      164.589       54.880     7579.593    27089.432     3011.815        6.553        1.884      304.553       62.512        0.042      347.189       25.975      862.565
07/21/2014  16:25:00     -222.189      -80.838      -14.671      116.521       91.208       60.173    13577.054     8318.939     3620.789        4.081        1.276      236.438       62.623        0.070      347.284       26.138      862.568
07/21/2014  16:26:00     -175.179       25.389       -9.365      115.201      147.577       68.445    13271.339    21778.928     4684.754        3.557        1.987      177.009       63.149        0.127      347.221       26.032      862.565
07/21/2014  16:27:00     -133.762       39.576      -12.009      118.250       91.902       61.400    13983.003     8445.916     3769.977        2.290        1.310      139.494       66.389        0.227      347.274       26.124      862.546
07/21/2014  16:28:00     -108.173       64.756      -13.886       91.928      101.596       48.551     8450.849    10321.697     2357.164        1.860        1.056      126.075       44.626        0.125      347.311       26.188      862.511
07/21/2014  16:29:00      -69.568      148.528      -18.786       63.638      115.404       50.349     4049.757    13318.173     2535.050        2.357        0.995      164.013       49.363        0.091      347.408       26.352      862.510
07/21/2014  16:30:00      -72.901      353.726      -47.970      106.400      161.322       66.384    11320.874    26024.760     4406.894        8.724        2.088      361.160       64.067        0.031      346.960       25.580      862.494
07/21/2014  16:31:00      -47.409      329.274      -32.010       99.914      151.887       69.617     9982.882    23069.718     4846.459        7.479        1.895      332.669       76.663        0.053      346.926       25.522      862.476
07/21/2014  16:32:00     -123.007      332.044      -29.594      148.245      196.663       79.205    21976.718    38676.288     6273.401        9.658        3.346      354.096       99.995        0.080      346.921       25.514      862.453
07/21/2014  16:33:00      -59.791      329.262      -43.116      133.080      226.988       90.049    17710.412    51523.390     8108.812        9.558        3.867      334.647      112.495        0.113      347.063       25.759      862.458
07/21/2014  16:34:00     -137.769      441.701      -59.952      106.283      176.012       73.572    11296.170    30980.344     5412.820       13.267        2.384      462.688       77.365        0.028      346.813       25.327      862.491
07/21/2014  16:35:00     -183.063      402.435      -43.285      111.737      126.644       69.159    12485.065    16038.615     4782.944       11.532        1.665      442.115       68.446        0.024      346.746       25.213      862.490
07/21/2014  16:36:00     -143.256      382.521      -41.077      106.253      135.840       64.904    11289.706    18452.497     4212.465       10.124        1.698      408.466       58.491        0.021      346.784       25.276      862.496
07/21/2014  16:37:00     -143.692      339.887      -37.962       90.360      125.056       57.442     8164.975    15638.918     3299.603        8.235        1.355      369.013       54.824        0.022      346.910       25.491      862.493
07/21/2014  16:38:00     -144.345      363.451      -51.864      141.589      122.791       65.018    20047.554    15077.571     4227.349        9.748        1.968      391.065       76.092        0.038      346.898       25.473      862.486
07/21/2014  16:39:00      -78.040      330.661      -46.317      117.737      135.103       59.695    13862.008    18252.856     3563.519        7.662        1.784      339.745       59.713        0.031      346.877       25.438      862.475
07/21/2014  16:40:00      -19.912      442.608      -49.045      101.112      133.271       59.431    10223.564    17761.078     3531.999       11.510        1.576      443.056       60.042        0.018      346.856       25.400      862.456
07/21/2014  16:41:00      -18.355      332.645      -25.952      101.926      166.414       79.997    10388.960    27693.545     6399.505        7.806        2.224      333.151       90.481        0.074      346.954       25.570      862.459
07/21/2014  16:42:00        1.101      135.417       -6.042       71.459      101.819       56.255     5106.411    10367.081     3164.627        1.850        0.932      135.422       55.866        0.170      347.239       26.063      862.451
07/21/2014  16:43:00      -27.864      247.282      -17.643       87.029      138.236       70.118     7574.054    19109.140     4916.577        4.691        1.580      248.847       75.606        0.092      347.191       25.978      862.442
07/21/2014  16:44:00     -148.461      350.073      -41.669      122.956      140.316       64.508    15118.251    19688.596     4161.324        9.264        1.948      380.252       64.211        0.029      346.985       25.623      862.459
07/21/2014  16:45:00     -101.906      447.011      -54.305      126.066      162.569       63.110    15892.608    26428.678     3982.861       12.972        2.315      458.479       62.134        0.018      346.909       25.492      862.449
07/21/2014  16:46:00      -61.233      453.732      -58.666      110.810      161.683       66.200    12278.872    26141.535     4382.375       12.792        2.140      457.846       78.581        0.029      346.933       25.532      862.406
07/21/2014  16:47:00       18.260      317.723      -35.666       88.420      124.092       67.406     7818.031    15398.815     4543.625        6.515        1.388      318.247       69.097        0.047      347.081       25.788      862.355
07/21/2014  16:48:00        2.430      348.008      -35.561      140.821      178.505       86.057    19830.498    31863.894     7405.876        9.073        2.955      348.017       86.186        0.061      347.230       26.044      862.339
07/21/2014  16:49:00       -3.906      430.985      -52.338      131.688      131.776       81.146    17341.833    17364.903     6584.713       11.489        2.065      431.003       79.438        0.034      347.038       25.715      862.328
07/21/2014  16:50:00      -56.818      258.416      -15.986       80.410      141.208       72.191     6465.711    19939.782     5211.549        5.093        1.581      264.589       80.466        0.092      347.293       26.155      862.320
07/21/2014  16:51:00      -64.060      376.968      -38.674       90.861      117.789       55.391     8255.812    13874.366     3068.114        8.645        1.260      382.372       50.028        0.017      347.296       26.159      862.321
07/21/2014  16:52:00     -184.763      365.185      -57.012      115.386      158.570       72.404    13313.868    25144.582     5242.292       10.722        2.185      409.265       75.809        0.034      347.295       26.156      862.318
07/21/2014  16:53:00     -203.968      277.045      -56.248      108.880      111.738       58.784    11854.896    12485.311     3455.566        7.465        1.390      344.030       57.623        0.028      347.171       25.943      862.291
07/21/2014  16:54:00     -162.677      219.129      -11.278      139.515      116.302       73.658    19464.345    13526.166     5425.509        5.650        1.921      272.912       68.376        0.063      347.358       26.267      862.244
07/21/2014  16:55:00       57.676      340.053      -26.612       97.346      180.036      101.527     9476.281    32413.064    10307.735        8.592        2.610      344.910      109.111        0.100      347.269       26.112      862.239
07/21/2014  16:56:00      -69.704      316.548      -37.211      135.273      161.404       78.614    18298.710    26051.371     6180.222        7.848        2.527      324.132       78.736        0.059      347.313       26.187      862.236
07/21/2014  16:57:00     -137.447      262.391      -19.336      138.532      182.272       86.300    19191.246    33223.210     7447.640        7.398        2.993      296.210       78.931        0.071      347.418       26.370      862.261
07/21/2014  16:58:00     -127.709      342.637      -35.650      115.013      181.875       67.414    13227.946    33078.614     4544.634        9.291        2.543      365.663       62.690        0.029      347.542       26.584      862.270
07/21/2014  16:59:00     -170.364       44.257      -34.074      108.273       98.173       55.854    11723.075     9637.981     3119.712        2.831        1.224      176.019       54.460        0.096      347.563       26.621      862.267
07/21/2014  17:00:00     -123.393      337.293      -30.300      145.121      211.361       75.719    21060.200    44673.446     5733.390       10.067        3.573      359.155      101.644        0.080      347.434       26.398      862.292
07/21/2014  17:01:00     -268.173      403.631      -76.760      131.592      143.011       66.284    17316.561    20452.231     4393.599       14.144        2.108      484.597       66.485        0.019      347.194       25.983      862.323
07/21/2014  17:02:00      -78.545      348.857      -41.165      100.956      103.567       58.997    10192.076    10726.197     3480.657        7.698        1.220      357.590       52.510        0.022      347.222       26.030      862.326
07/21/2014  17:03:00      -99.461      244.432      -18.780       91.378      129.654       64.978     8349.983    16810.032     4222.129        4.968        1.469      263.893       53.506        0.041      347.369       26.284      862.303
07/21/2014  17:04:00      -23.887      408.369      -45.941       78.206       98.485       58.657     6116.207     9699.281     3440.642        9.435        0.963      409.067       50.925        0.015      347.014       25.674      862.292
07/21/2014  17:05:00     -103.607      252.755      -40.746       66.990       99.396       50.615     4487.661     9879.539     2561.923        4.660        0.846      273.165       48.065        0.031      347.316       26.193      862.252
07/21/2014  17:06:00     -162.846      266.447      -44.633       93.480      158.478       59.845     8738.509    25115.400     3581.365        6.846        1.872      312.270       61.993        0.039      347.293       26.152      862.263
07/21/2014  17:07:00     -172.274      370.249      -47.784       84.735      124.517       66.498     7179.936    15504.439     4422.020        9.807        1.355      408.366       49.985        0.015      347.156       25.918      862.258
07/21/2014  17:08:00     -134.074      305.970      -39.916       85.181      118.808       55.744     7255.806    14115.327     3107.360        6.883        1.224      334.056       46.591        0.019      347.357       26.265      862.259
07/21/2014  17:09:00     -136.966      130.626      -26.575      116.180       84.388       53.373    13497.817     7121.332     2848.691        2.999        1.173      189.269       61.806        0.107      347.405       26.349      862.256
07/21/2014  17:10:00      -56.300      198.319      -17.790       96.926      111.616       45.312     9394.722    12458.094     2053.139        3.336        1.195      206.156       48.934        0.056      347.340       26.235      862.241
07/21/2014  17:11:00       -2.468      458.230      -68.363       85.220      173.303       66.880     7262.436    30033.894     4472.953       12.820        2.088      458.237       82.630        0.033      347.171       25.943      862.245
07/21/2014  17:12:00      111.510      242.462       -3.536      104.633      142.042       89.634    10948.090    20175.841     8034.203        5.519        1.958      266.875       77.870        0.085      347.288       26.147      862.216
07/21/2014  17:13:00      101.990      197.383      -12.083       99.817      136.462       78.608     9963.530    18621.839     6179.207        4.213        1.738      222.175       77.412        0.121      347.327       26.213      862.194
07/21/2014  17:14:00        3.441      263.808      -24.153      124.022      113.256       65.125    15381.368    12826.871     4241.272        5.131        1.622      263.831       62.522        0.056      347.369       26.285      862.175
07/21/2014  17:15:00       90.030      316.396      -23.614      117.723      191.253      101.009    13858.796    36577.867    10202.869        8.469        3.032      328.956      112.313        0.117      347.367       26.281      862.111
07/21/2014  17:16:00       -6.381      247.363      -31.488      101.561      140.329       73.576    10314.544    19692.362     5413.438        4.881        1.771      247.445       77.994        0.099      347.436       26.402      862.148
07/21/2014  17:17:00      -51.361      341.375      -27.010       88.544      163.668       66.234     7840.077    26787.256     4386.961        7.945        1.951      345.217       79.129        0.053      347.255       26.087      862.148
07/21/2014  17:18:00      -77.208      205.346      -26.464       57.707       85.111       35.618     3330.072     7243.909     1268.623        3.033        0.592      219.381       22.365        0.010      347.402       26.344      862.150
07/21/2014  17:19:00     -117.609      264.422      -35.601       87.045       89.668       41.230     7576.903     8040.358     1699.933        5.116        0.866      289.398       35.240        0.015      347.520       26.545      862.163
07/21/2014  17:20:00      -31.686      385.205      -51.441       80.396      113.428       57.417     6463.596    12865.951     3296.673        8.733        1.131      386.506       61.896        0.026      347.313       26.187      862.159
07/21/2014  17:21:00     -125.466      276.921      -40.341      115.811      126.957       68.019    13412.168    16118.170     4626.595        6.410        1.708      304.019       51.631        0.029      347.370       26.286      862.143
07/21/2014  17:22:00     -183.727      342.886      -51.468      128.411      133.980       73.124    16489.452    17950.684     5347.075        9.687        1.989      389.007       76.683        0.039      347.192       25.979      862.151
07/21/2014  17:23:00      -53.998      309.568      -38.411       72.901      146.105       44.020     5314.487    21346.739     1937.797        6.441        1.430      314.243       58.930        0.035      347.247       26.077      862.107
07/21/2014  17:24:00     -125.835      260.117      -32.307       65.645       89.530       43.219     4309.232     8015.536     1867.901        4.936        0.710      288.955       28.762        0.010      347.287       26.142      862.112
07/21/2014  17:25:00      -92.080      209.384      -27.914       65.601      142.632       45.504     4303.526    20343.825     2070.602        3.990        1.336      228.737       60.033        0.069      347.496       26.506      862.111
07/21/2014  17:26:00     -213.539      291.742      -50.019      114.339      159.109       66.669    13073.366    25315.568     4444.732        8.802        2.142      361.542       71.003        0.039      347.346       26.244      862.128
07/21/2014  17:27:00      -68.460      290.480      -28.355       72.548       93.938       51.032     5263.148     8824.364     2604.227        5.328        0.835      298.438       48.732        0.027      347.313       26.189      862.125
07/21/2014  17:28:00      -52.886      342.148      -42.506      106.698      132.891       62.124    11384.464    17659.904     3859.367        7.728        1.645      346.211       61.371        0.031      347.294       26.156      862.102
07/21/2014  17:29:00       71.241      336.381      -36.353      110.184      195.135       87.874    12140.566    38077.827     7721.905        8.873        2.897      343.842      106.996        0.097      347.336       26.226      862.080
07/21/2014  17:30:00       33.533      289.000      -14.306       98.152      145.802       81.314     9633.882    21258.232     6611.990        6.117        1.875      290.938       86.892        0.089      347.273       26.120      862.070
07/21/2014  17:31:00       26.452      267.706      -39.992       89.223       98.021       65.391     7960.679     9608.089     4276.033        4.790        1.092      269.010       59.150        0.048      347.365       26.277      862.058
07/21/2014  17:32:00      -57.664      312.858      -30.759       68.555      124.918       51.058     4699.798    15604.383     2606.922        6.253        1.146      318.128       66.137        0.043      347.463       26.447      862.059
07/21/2014  17:33:00        8.679      336.066      -43.176      112.381      190.026       90.776    12629.543    36109.866     8240.334        8.592        2.849      336.178      113.141        0.113      347.556       26.608      862.058
07/21/2014  17:34:00       23.572      287.616      -28.154       74.726      123.424       71.168     5583.912    15233.550     5064.880        5.497        1.294      288.580       69.623        0.058      347.409       26.353      862.064
07/21/2014  17:35:00       -6.888      331.673      -46.791       68.296      106.150       54.857     4664.301    11267.728     3009.251        6.559        0.947      331.745       59.967        0.033      347.469       26.457      862.048
07/21/2014  17:36:00      -35.591      296.419      -37.823      102.248      112.583       50.458    10454.722    12674.942     2545.995        5.811        1.284      298.548       58.935        0.039      347.367       26.283      862.028
07/21/2014  17:37:00      -16.185      146.287      -25.407       47.541       88.823       41.707     2260.175     7889.530     1739.459        1.710        0.594      147.179       51.334        0.122      347.495       26.504      862.016
07/21/2014  17:38:00      -71.324      176.043      -21.528       52.185       86.754       39.950     2723.289     7526.301     1596.023        2.419        0.592      189.943       42.482        0.050      347.595       26.676      861.990
07/21/2014  17:39:00      -62.631       88.129      -21.418       67.217       76.907       34.115     4518.095     5914.623     1163.820        1.187        0.580      108.117       22.756        0.044      347.812       27.053      861.992
07/21/2014  17:40:00     -191.440      253.320      -55.702      116.615      123.922       59.267    13599.168    15356.559     3512.630        6.819        1.623      317.522       65.780        0.043      347.743       26.930      862.012
07/21/2014  17:41:00     -175.226      290.991      -33.716      121.758      172.021       75.821    14825.028    29591.101     5748.803        8.333        2.508      339.677       81.686        0.058      347.515       26.535      861.986
07/21/2014  17:42:00     -114.800       96.809      -32.551       62.985       87.129       52.937     3967.104     7591.501     2802.302        1.898        0.718      150.170       33.065        0.048      347.718       26.888      862.004
07/21/2014  17:43:00     -135.810      210.073      -23.012       95.609      121.787       59.195     9141.082    14832.174     3504.049        4.529        1.374      250.150       46.063        0.034      347.559       26.614      862.025
07/21/2014  17:44:00     -181.522       26.423       -5.137      149.588      144.051       74.283    22376.557    20750.700     5517.994        4.115        2.432      183.435       65.049        0.126      347.737       26.920      862.041
07/21/2014  17:45:00     -117.973      103.992      -14.673       86.541       80.307       69.825     7489.260     6449.190     4875.547        2.188        0.941      157.264       53.664        0.116      347.675       26.815      862.068
07/21/2014  17:46:00      -64.962      177.314       -1.429       78.809       96.679       63.409     6210.842     9346.921     4020.709        2.762        0.979      188.840       53.019        0.079      347.627       26.732      862.064
07/21/2014  17:47:00     -123.175       39.776      -18.859       75.396      105.110       47.183     5684.613    11048.139     2226.273        1.803        0.948      129.438       39.371        0.093      347.774       26.986      862.087
07/21/2014  17:48:00     -124.039       41.299       -5.882       81.166      110.306       46.653     6587.948    12167.426     2176.480        1.902        1.047      130.733       31.405        0.058      347.866       27.144      862.093
07/21/2014  17:49:00     -219.091      180.398      -54.740       88.330      113.780       45.397     7802.273    12945.834     2060.926        5.317        1.140      283.803       32.484        0.013      347.461       26.442      862.090
07/21/2014  17:50:00     -190.408      189.124      -41.780      109.714       93.813       57.581    12037.140     8800.972     3315.577        4.896        1.208      268.371       62.523        0.054      347.730       26.907      862.065
07/21/2014  17:51:00     -165.306      234.382      -12.751       92.150      133.682       51.936     8491.605    17870.763     2697.356        5.574        1.453      286.812       60.943        0.045      347.875       27.157      862.043
07/21/2014  17:52:00     -111.022       37.957      -20.860       61.557       92.934       46.038     3789.288     8636.790     2119.488        1.437        0.727      117.332       27.123        0.053      348.048       27.459      862.055
07/21/2014  17:53:00     -141.010      -27.826       -0.193      106.071       58.426       37.302    11251.111     3413.564     1391.458        1.835        0.803      143.730       36.473        0.064      348.018       27.406      862.061
07/21/2014  17:54:00        5.977       37.709        4.411       53.251       66.481       41.027     2835.651     4419.667     1683.211        0.521        0.447       38.180       31.793        0.693      347.693       26.848      862.046
07/21/2014  17:55:00     -163.659       -6.009      -19.645       71.152       83.229       32.783     5062.545     6927.021     1074.738        2.013        0.653      163.769       27.903        0.029      347.716       26.885      862.029
07/21/2014  17:56:00      -51.292      245.953      -35.522       71.580       67.414       34.772     5123.634     4544.669     1209.066        3.763        0.544      251.245       32.669        0.017      347.504       26.517      861.997
07/21/2014  17:57:00      -70.846       90.945      -29.141       60.111       96.654       34.243     3613.325     9341.946     1172.608        1.413        0.706      115.283       16.244        0.020      347.752       26.949      861.971
07/21/2014  17:58:00     -161.071      149.518      -27.308       71.496       58.964       46.141     5111.646     3476.754     2129.018        2.988        0.536      219.772       38.131        0.030      347.846       27.107      861.963
07/21/2014  17:59:00     -165.317      -77.906      -13.422      138.698       98.853       45.899    19237.257     9771.870     2106.692        3.234        1.556      182.754       43.594        0.057      348.060       27.480      861.964
07/21/2014  18:00:00     -235.772      -67.797      -10.581      155.478       86.529       47.911    24173.498     7487.198     2295.488        4.712        1.698      245.326       63.751        0.068      348.078       27.510      861.999
07/21/2014  18:01:00     -305.502     -106.465      -11.740      179.947      128.649       83.069    32380.813    16550.555     6900.450        8.031        2.792      323.521       97.674        0.091      348.089       27.527      862.085
07/21/2014  18:02:00     -320.965     -192.178       -0.914      222.132      132.881       98.557    49342.842    17657.491     9713.510       10.832        3.836      374.100      102.205        0.075      347.902       27.206      862.086
07/21/2014  18:03:00     -208.841      -46.878        0.164      147.286      119.382       72.050    21693.206    14252.061     5191.273        4.347        2.057      214.037       75.119        0.123      348.014       27.399      862.105
07/21/2014  18:04:00     -292.471      -20.451      -21.246      119.892      109.124       66.639    14374.013    11907.979     4440.787        5.856        1.536      293.185       47.665        0.026      348.004       27.379      862.122
07/21/2014  18:05:00     -269.869      -46.108      -12.194      148.149      129.858       56.714    21948.196    16863.167     3216.517        5.856        2.101      273.780       55.423        0.041      348.038       27.441      862.139
07/21/2014  18:06:00     -427.617      -95.222      -27.592      171.638      147.839       69.780    29459.702    21856.236     4869.220       12.442        2.809      438.091       68.976        0.025      347.815       27.054      862.167
07/21/2014  18:07:00     -481.285      -48.274      -44.966      204.015      164.686       70.716    41622.110    27121.588     5000.817       15.485        3.687      483.700       86.603        0.032      347.776       26.987      862.166
07/21/2014  18:08:00     -340.517      -78.120      -12.620      181.677      109.995       61.144    33006.376    12098.934     3738.584        8.552        2.442      349.363       77.347        0.049      347.912       27.221      862.184
07/21/2014  18:09:00     -369.367      -96.949      -12.663      119.817      109.906       69.337    14356.125    12079.407     4807.567        8.861        1.562      381.878       64.201        0.028      347.797       27.022      862.201
07/21/2014  18:10:00     -434.319       54.109      -32.888      186.748      118.858       65.983    34874.786    14127.242     4353.778       12.299        2.668      437.677       81.771        0.035      347.760       26.959      862.232
07/21/2014  18:11:00     -371.073      -39.154      -28.809      137.803      100.670       64.376    18989.551    10134.457     4144.298        8.666        1.663      373.133       66.311        0.032      347.796       27.022      862.258
07/21/2014  18:12:00     -336.159     -128.225      -16.367      158.188      117.842       71.053    25023.486    13886.756     5048.548        8.683        2.198      359.784       85.050        0.056      347.716       26.881      862.274
07/21/2014  18:13:00     -387.195     -303.419      -11.803      169.086      132.035       93.258    28590.126    17433.134     8696.990       14.841        2.736      491.918       95.317        0.038      347.639       26.749      862.276
07/21/2014  18:14:00     -327.181     -149.260      -10.725      121.887      104.038       60.321    14856.542    10823.831     3638.568        7.937        1.466      359.619       59.719        0.028      347.652       26.772      862.310
07/21/2014  18:15:00     -422.276      -38.263      -29.904      148.344       96.468       54.630    22005.902     9306.101     2984.421       10.748        1.715      424.006       65.612        0.024      347.579       26.646      862.325
07/21/2014  18:16:00     -159.126      -59.529       -8.296      137.443       96.657       64.263    18890.672     9342.620     4129.725        3.064        1.618      169.896       71.042        0.175      347.702       26.861      862.337
07/21/2014  18:17:00     -110.165      -65.101       14.387      121.823       77.209       48.548    14840.884     5961.156     2356.936        1.987        1.158      127.962       47.471        0.138      347.762       26.965      862.358
07/21/2014  18:18:00     -184.602      -93.410        7.143      135.498       94.011       44.474    18359.781     8838.036     1977.932        3.601        1.459      206.890       62.930        0.093      347.648       26.766      862.357
07/21/2014  18:19:00     -295.551       23.276      -17.347      204.700      119.969       60.427    41901.964    14392.589     3651.446        7.406        2.997      296.466       65.773        0.049      347.659       26.785      862.370
07/21/2014  18:20:00     -360.871      -22.375      -26.227      216.425       91.933       67.893    46839.917     8451.660     4609.474        9.565        2.995      361.564       91.250        0.064      347.585       26.660      862.351
07/21/2014  18:21:00     -127.458      -51.135       13.505      144.516       98.339       61.358    20884.814     9670.473     3764.842        2.667        1.716      137.333       71.962        0.275      347.635       26.747      862.378
07/21/2014  18:22:00     -136.953     -105.692       10.765      119.478       97.848       59.184    14275.030     9574.175     3502.723        2.869        1.368      172.994       56.155        0.105      347.639       26.751      862.384
07/21/2014  18:23:00     -179.164      -90.041       -7.788       88.167       77.482       44.870     7773.375     6003.443     2013.282        2.803        0.790      200.518       28.138        0.020      347.611       26.703      862.390
07/21/2014  18:24:00     -160.739     -152.699        5.129      180.167      164.877       75.051    32460.016    27184.541     5632.723        5.722        3.264      221.707       93.237        0.177      347.611       26.705      862.379
07/21/2014  18:25:00     -173.219     -192.652       19.282      191.886      157.961       88.757    36820.386    24951.646     7877.735        6.856        3.482      259.075      105.683        0.166      347.529       26.560      862.363
07/21/2014  18:26:00     -201.576      -95.803       -3.415      228.585      104.707       59.114    52251.111    10963.530     3494.441        5.825        3.335      223.184       80.745        0.131      347.536       26.574      862.390
07/21/2014  18:27:00     -327.024      -59.674      -17.247      180.469      147.517       83.100    32568.942    21761.365     6905.573        8.601        3.062      332.424       90.016        0.073      347.488       26.488      862.398
07/21/2014  18:28:00     -385.888      -35.317      -20.023      116.150      126.482       60.252    13490.854    15997.811     3630.276        9.183        1.656      387.501       50.389        0.017      347.426       26.381      862.401
07/21/2014  18:29:00     -304.066      -49.472      -11.760      163.576      113.353       64.729    26757.233    12848.884     4189.816        6.941        2.190      308.065       80.833        0.069      347.454       26.432      862.397
07/21/2014  18:30:00     -440.924       60.703      -34.772      159.958      115.200       72.548    25586.598    13271.031     5263.233       12.171        2.206      445.082       74.801        0.028      347.422       26.375      862.390
07/21/2014  18:31:00     -462.495      -19.690      -37.272      131.129      157.659       58.038    17194.940    24856.473     3368.451       13.054        2.271      462.914       65.699        0.020      347.394       26.328      862.396
07/21/2014  18:32:00     -321.167      -41.685      -20.412      135.864      107.875       57.480    18458.997    11637.122     3303.973        6.934        1.670      323.861       71.727        0.049      347.422       26.376      862.440
07/21/2014  18:33:00     -342.586      -53.605       -9.433      177.097       92.336       66.507    31363.364     8526.005     4423.217        8.231        2.216      346.754       86.326        0.062      347.472       26.462      862.461
07/21/2014  18:34:00     -316.076     -138.642       -9.443      126.880      105.113       62.545    16098.419    11048.840     3911.882        7.513        1.553      345.146       60.482        0.031      347.438       26.402      862.468
07/21/2014  18:35:00     -234.862      -81.258      -20.575      116.061       62.171       59.261    13470.230     3865.177     3511.881        4.151        1.042      248.522       55.131        0.049      347.429       26.389      862.511
07/21/2014  18:36:00      -67.896       -5.083        8.173       61.836       72.868       49.777     3823.713     5309.713     2477.749        0.815        0.581       68.086       32.389        0.226      347.420       26.374      862.507
07/21/2014  18:37:00       -9.531      -66.566       38.485       78.386       91.977       43.846     6144.320     8459.799     1922.481        1.126        0.826       67.244       46.590        0.480      347.484       26.485      862.534
07/21/2014  18:38:00       35.783        7.359       52.748       67.218       58.848       38.542     4518.273     3463.048     1485.454        0.679        0.473       36.532       13.928        0.145      347.596       26.680      862.545
07/21/2014  18:39:00     -101.436       58.842      -10.769       65.224       68.766       45.508     4254.123     4728.811     2071.009        1.246        0.553      117.267       32.362        0.076      347.567       26.630      862.565
07/21/2014  18:40:00      -22.703       21.728       14.849       87.356       83.245       35.274     7631.012     6929.666     1244.245        0.850        0.790       31.425       36.543        1.352      347.522       26.553      862.600
07/21/2014  18:41:00     -107.610      220.830      -39.411      111.522      109.648       48.933    12437.080    12022.767     2394.435        4.437        1.343      245.654       51.578        0.044      346.570       24.910      862.649
07/21/2014  18:42:00       81.681      199.850      -20.147       73.355       79.905       60.125     5381.013     6384.757     3614.969        3.120        0.769      215.898       50.543        0.055      346.243       24.347      862.610
07/21/2014  18:43:00      216.501      113.598       19.429      100.629       76.075       57.298    10126.221     5787.453     3283.006        3.967        0.960      244.494       45.205        0.034      346.181       24.240      862.582
07/21/2014  18:44:00      174.434      113.800       30.914       82.990       74.278       63.972     6887.344     5517.281     4092.401        3.041        0.825      208.272       30.494        0.021      346.219       24.304      862.614
07/21/2014  18:45:00      161.171       90.924       30.761      101.619       61.208       51.178    10326.476     3746.389     2619.163        2.594        0.835      185.049       29.862        0.026      346.236       24.335      862.655
07/21/2014  18:46:00      204.917      160.461       10.539       70.900       51.512       51.913     5026.854     2653.513     2694.926        3.911        0.519      260.267       38.929        0.022      346.125       24.141      862.711
07/21/2014  18:47:00      211.287      112.141       10.684       69.512       65.307       47.017     4831.932     4264.966     2210.636        3.432        0.565      239.202       24.442        0.010      346.107       24.112      862.745
07/21/2014  18:48:00      172.418       97.905       11.610       65.890       54.372       40.553     4341.427     2956.359     1644.563        2.419        0.447      198.276       25.016        0.016      346.138       24.166      862.788
07/21/2014  18:49:00      161.968      112.025       25.696       53.217       40.804       37.433     2832.080     1664.958     1401.220        2.267        0.295      196.935       13.255        0.005      346.160       24.205      862.844
07/21/2014  18:50:00      119.361       61.244       18.307       59.377       40.065       33.757     3525.593     1605.218     1139.567        1.230        0.314      134.156       24.376        0.033      346.271       24.399      862.879
07/21/2014  18:51:00      111.485      109.760       -1.426       57.528       43.075       44.326     3309.490     1855.489     1964.787        1.580        0.356      156.449       30.778        0.039      346.145       24.180      862.893
07/21/2014  18:52:00      140.396      100.042       17.121       58.797       40.181       40.046     3457.044     1614.499     1603.684        1.834        0.334      172.393       22.025        0.016      346.180       24.241      862.910
07/21/2014  18:53:00      224.164      150.223       35.099      106.865       71.349       50.457    11420.182     5090.739     2545.905        4.655        0.953      269.845       41.055        0.023      346.174       24.230      862.927
07/21/2014  18:54:00      256.882      143.617       30.759       89.971       69.201       65.299     8094.858     4788.714     4263.900        5.235        0.857      294.303       33.897        0.013      346.119       24.132      862.951
07/21/2014  18:55:00      154.129      102.574       16.970       72.534       55.039       48.476     5261.249     3029.308     2349.925        2.260        0.532      185.141       28.024        0.023      346.048       24.014      862.948
07/21/2014  18:56:00      126.050       86.403       24.790       51.409       30.371       32.695     2642.910      922.397     1068.964        1.430        0.232      152.820       22.059        0.021      346.042       24.005      862.915
07/21/2014  18:57:00      153.936      105.380       26.669       67.894       55.901       53.442     4609.614     3124.893     2856.062        2.305        0.530      186.551       44.723        0.057      346.087       24.079      862.908
07/21/2014  18:58:00      110.715       92.819       20.691       62.347       40.597       45.861     3887.150     1648.136     2103.203        1.447        0.382      144.475       30.629        0.045      346.177       24.235      862.909
07/21/2014  18:59:00      137.962       98.558       44.215       86.206       55.981       50.100     7431.410     3133.840     2510.058        2.189        0.654      169.550       27.316        0.026      346.179       24.238      862.916
07/21/2014  19:00:00      140.487       98.995       30.304       76.487       59.894       49.353     5850.290     3587.291     2435.687        2.116        0.594      171.863       37.477        0.048      346.097       24.097      862.943
07/21/2014  19:01:00       40.115       56.906       50.947       65.146       46.538       38.469     4243.936     2165.779     1479.879        0.766        0.394       69.623       32.416        0.217      346.102       24.107      862.991
07/21/2014  19:02:00        6.936       27.708       37.701       30.943       39.746       23.769      957.491     1579.734      564.970        0.267        0.155       28.563       11.540        0.163      346.234       24.335      863.039
07/21/2014  19:03:00       40.820      -54.255        3.834       38.565       56.561       32.229     1487.237     3199.165     1038.715        0.517        0.286       67.896       34.719        0.261      346.158       24.205      863.108
07/21/2014  19:04:00      -26.540       59.801       12.273       75.664       72.660       55.668     5724.994     5279.446     3098.969        0.926        0.705       65.426       50.505        0.596      346.179       24.241      863.139
07/21/2014  19:05:00      151.129      -18.151       26.357      132.174      149.165       52.587    17470.006    22250.174     2765.364        3.317        2.124      152.215       51.208        0.113      346.070       24.052      863.124
07/21/2014  19:06:00      193.521      161.694       31.409      150.452      103.659       77.001    22635.774    10745.183     5929.110        5.194        1.966      252.181       66.890        0.070      345.997       23.923      863.137
07/21/2014  19:07:00      147.923       89.030       28.563       94.894       68.982       47.546     9004.933     4758.576     2260.668        2.332        0.801      172.649       26.808        0.024      346.008       23.944      863.133
07/21/2014  19:08:00      108.977       80.353        3.019       77.072       75.511       46.425     5940.028     5701.918     2155.245        1.607        0.690      135.398       38.527        0.081      346.057       24.028      863.106
07/21/2014  19:09:00       64.608      110.186      -10.717       87.390       92.990       57.575     7637.076     8647.201     3314.921        1.801        0.980      127.731       50.586        0.157      346.023       23.971      863.093
07/21/2014  19:10:00      192.189      117.427       25.495       99.763       96.954       59.649     9952.710     9400.013     3558.037        3.714        1.146      225.223       36.373        0.026      345.986       23.907      863.072
07/21/2014  19:11:00      199.096      127.038       -8.180      104.697      119.057       52.327    10961.423    14174.650     2738.118        4.185        1.394      236.174       23.605        0.010      345.979       23.898      863.085
07/21/2014  19:12:00      -20.006       59.180       -7.987       73.157       47.750       44.933     5351.963     2280.095     2018.953        0.681        0.483       62.470       32.055        0.263      346.067       24.049      863.082
07/21/2014  19:13:00       49.658      183.404      -16.025       81.528       85.177       53.171     6646.876     7255.117     2827.105        2.654        0.836      190.008       41.927        0.049      346.119       24.133      863.086
07/21/2014  19:14:00       39.530      114.564       -3.220       72.429       71.306       43.294     5245.924     5084.516     1874.367        1.345        0.610      121.193       41.633        0.118      346.145       24.181      863.073
07/21/2014  19:15:00      145.887      121.050       16.983      122.914      102.506       68.071    15107.812    10507.554     4633.688        3.323        1.512      189.569       63.881        0.114      346.146       24.181      863.065
07/21/2014  19:16:00      148.035      206.491        3.428      127.157      129.877       85.486    16168.796    16867.921     7307.897        5.245        2.017      254.073       81.336        0.102      346.070       24.050      863.022
07/21/2014  19:17:00      155.015      129.196       19.871      105.275       79.195       75.421    11082.792     6271.771     5688.305        3.207        1.152      201.795       45.834        0.052      346.093       24.090      863.017
07/21/2014  19:18:00      199.381      163.370       12.793      144.819       97.925       74.831    20972.544     9589.346     5599.685        5.138        1.808      257.765       47.024        0.033      346.091       24.086      863.019
07/21/2014  19:19:00      279.616      200.841       25.932       95.955       84.403       63.396     9207.381     7123.886     4019.076        6.977        1.018      344.271       38.066        0.012      346.117       24.129      863.034
07/21/2014  19:20:00      203.842      122.390       25.575      105.054       97.281       70.058    11036.270     9463.525     4908.177        4.129        1.270      237.762       37.446        0.025      346.158       24.201      863.040
07/21/2014  19:21:00      234.876      133.328       51.586      106.679       87.928       82.554    11380.359     7731.272     6815.134        5.076        1.296      270.080       61.025        0.051      346.175       24.231      863.040
07/21/2014  19:22:00      256.118      206.992        2.694      134.058       91.109       88.551    17971.570     8300.940     7841.241        7.127        1.706      329.306       57.818        0.031      346.181       24.241      863.058
07/21/2014  19:23:00      261.593      148.902       19.565      133.127       88.034       64.525    17722.726     7750.021     4163.489        6.030        1.482      301.002       49.612        0.027      346.207       24.283      863.064
07/21/2014  19:24:00      120.586      111.571       13.138      111.838       66.158       49.789    12507.699     4376.931     2478.951        2.326        0.968      164.284       31.770        0.037      346.241       24.345      863.068
07/21/2014  19:25:00        3.002      200.275      -25.547       69.666       68.812       39.511     4853.402     4735.030     1561.097        2.596        0.557      200.297       38.304        0.037      346.297       24.439      863.085
07/21/2014  19:26:00       60.208      104.102       -6.182       67.204       68.590       53.337     4516.358     4704.651     2844.794        1.328        0.603      120.259       39.522        0.108      346.352       24.539      863.117
07/21/2014  19:27:00      142.412      121.193       21.108      104.205       78.204       72.769    10858.614     6115.871     5295.323        2.884        1.113      187.000       50.481        0.073      346.383       24.588      863.136
07/21/2014  19:28:00       83.594       83.110        4.079       78.615       68.713       47.654     6180.303     4721.427     2270.878        1.354        0.659      117.878       40.168        0.116      346.440       24.689      863.143
07/21/2014  19:29:00       52.928       74.681       -0.799       78.739       49.748       28.628     6199.791     2474.845      819.545        0.893        0.475       91.535       20.160        0.049      346.466       24.730      863.160
07/21/2014  19:30:00      -22.649      148.067      -20.548       47.261      106.205       28.273     2233.620    11279.503      799.385        1.858        0.716      149.790       30.618        0.042      346.537       24.854      863.185
07/21/2014  19:31:00       65.978      198.020      -13.936       83.673      138.645       70.878     7001.182    19222.478     5023.677        3.750        1.562      208.722       74.525        0.127      346.653       25.053      863.157
07/21/2014  19:32:00      -57.856      125.476       -2.672      130.944      119.788       66.715    17146.447    14349.061     4450.842        2.752        1.797      138.173       69.445        0.253      346.730       25.186      863.183
07/21/2014  19:33:00      -98.237      136.502      -35.166       64.107       48.604       30.191     4109.661     2362.338      911.506        1.845        0.369      168.177       23.193        0.019      346.830       25.358      863.262
07/21/2014  19:34:00       29.933      145.641      -13.559       45.163       75.089       40.212     2039.705     5638.355     1617.027        1.579        0.465      148.685       46.532        0.098      346.852       25.395      863.294
07/21/2014  19:35:00      -61.691       61.753       -8.916       36.585       24.679       20.908     1338.461      609.060      437.132        0.504        0.119       87.289       21.990        0.063      346.829       25.356      863.306
07/21/2014  19:36:00       54.588       41.919       11.682       63.086       31.614       31.292     3979.890      999.425      979.200        0.541        0.298       68.827       23.969        0.121      346.821       25.343      863.298
07/21/2014  19:37:00      148.444       86.412       15.757       47.961       36.876       37.706     2300.239     1359.838     1421.735        1.742        0.254      171.763       22.321        0.017      346.793       25.295      863.271
07/21/2014  19:38:00       34.014      107.632      -15.822       55.886       34.786       27.998     3123.199     1210.049      783.907        0.905        0.256      112.879        6.358        0.003      346.753       25.225      863.263
07/21/2014  19:39:00       20.918      170.770      -31.304       42.384       50.775       24.507     1796.395     2578.053      600.613        1.778        0.249      172.046       24.256        0.020      346.769       25.255      863.272
07/21/2014  19:40:00      -64.832      195.238      -21.706       74.953      111.402       30.589     5617.892    12410.300      935.690        3.087        0.948      205.721       25.171        0.015      346.766       25.246      863.280
07/21/2014  19:41:00     -131.989      -73.330        1.896       56.281       61.492       32.943     3167.544     3781.294     1085.255        1.542        0.402      150.991       28.758        0.036      346.824       25.348      863.296
07/21/2014  19:42:00     -236.910      -23.395      -15.273      108.158       98.036       52.792    11698.070     9611.104     2787.002        4.050        1.205      238.063       41.744        0.031      346.724       25.174      863.324
07/21/2014  19:43:00     -138.759      -31.171      -12.384      103.539       68.272       51.314    10720.225     4661.008     2633.125        1.919        0.901      142.217       42.925        0.091      346.722       25.171      863.310
07/21/2014  19:44:00     -311.314      -22.285      -42.857      153.589       82.990       48.632    23589.700     6887.374     2365.113        6.604        1.642      312.111       53.327        0.029      346.720       25.164      863.311
07/21/2014  19:45:00     -373.851      -26.642      -35.629      121.036       96.403       49.909    14649.828     9293.530     2490.876        8.408        1.322      374.799       57.156        0.023      346.729       25.181      863.283
07/21/2014  19:46:00     -185.413       57.437      -24.845       68.662       90.348       47.002     4714.456     8162.705     2209.151        2.669        0.754      194.105       36.904        0.036      346.713       25.155      863.307
07/21/2014  19:47:00      -84.335       28.644        1.121       63.273       37.038       37.407     4003.456     1371.828     1399.298        0.735        0.339       89.067       31.881        0.128      346.700       25.136      863.332
07/21/2014  19:48:00      -97.834      134.676      -14.883       69.888       93.193       37.397     4884.377     8684.879     1398.530        2.145        0.748      166.460       28.736        0.030      346.678       25.096      863.354
07/21/2014  19:49:00     -141.487       14.660      -20.948       61.730       47.997       45.876     3810.573     2303.704     2104.568        1.444        0.411      142.245       37.824        0.071      346.688       25.115      863.393
07/21/2014  19:50:00     -240.523       52.185      -31.847      102.817      105.827       62.532    10571.242    11199.298     3910.198        4.363        1.284      246.119       52.091        0.045      346.729       25.181      863.458
07/21/2014  19:51:00     -144.390      246.183      -39.984       87.587      131.841       42.731     7671.424    17382.032     1825.907        5.496        1.344      285.402       51.056        0.032      346.629       25.011      863.541
07/21/2014  19:52:00       -9.624      246.341      -16.993       64.810      104.978       54.551     4200.298    11020.362     2975.831        3.963        0.910      246.529       58.124        0.056      346.532       24.843      863.562
07/21/2014  19:53:00       14.815      160.368       -4.520       62.427       78.613       46.419     3897.119     6180.082     2154.763        1.909        0.612      161.051       42.642        0.070      346.504       24.797      863.546
07/21/2014  19:54:00     -113.939      196.098      -36.123       88.632       74.121       43.051     7855.640     5493.861     1853.388        3.397        0.760      226.796       37.296        0.027      346.318       24.477      863.586
07/21/2014  19:55:00      -54.075      236.790      -24.171       66.546      113.744       51.527     4428.364    12937.597     2655.024        3.980        1.001      242.886       57.896        0.057      345.947       23.839      863.592
07/21/2014  19:56:00      -21.840      188.124      -29.355       51.099       53.938       31.319     2611.061     2909.290      980.909        2.161        0.325      189.388       25.910        0.019      345.948       23.842      863.551
07/21/2014  19:57:00       -0.900      106.812      -18.699       51.333       84.983       26.623     2635.065     7222.074      708.809        1.116        0.528      106.816       37.991        0.127      345.943       23.835      863.531
07/21/2014  19:58:00      -37.411      237.945      -25.204       79.080       95.765       48.403     6253.668     9170.995     2342.813        3.821        0.888      240.868       40.662        0.028      345.847       23.668      863.510
07/21/2014  19:59:00       61.771      197.378      -20.545       61.910       95.397       60.261     3832.814     9100.559     3631.349        2.988        0.828      206.818       54.572        0.070      345.865       23.698      863.499
07/21/2014  20:00:00        2.754      250.996      -47.790       59.465       80.279       34.008     3536.066     6444.786     1156.547        3.821        0.557      251.011       24.792        0.010      345.891       23.743      863.501
07/21/2014  20:01:00       33.464      132.432      -10.190       73.294       82.816       45.234     5371.963     6858.425     2046.096        1.652        0.714      136.595       39.453        0.083      345.893       23.748      863.512
07/21/2014  20:02:00       -0.699      212.934      -34.804       62.967       83.286       33.612     3964.815     6936.501     1129.742        2.929        0.602      212.935       37.797        0.032      345.834       23.646      863.508
07/21/2014  20:03:00        4.604      242.319      -33.361       57.736      100.781       38.794     3333.449    10156.743     1504.966        3.742        0.750      242.362       46.547        0.037      345.815       23.613      863.486
07/21/2014  20:04:00      -11.144      270.913      -34.917       76.750       81.303       47.815     5890.494     6610.139     2286.254        4.476        0.739      271.142       51.169        0.036      345.850       23.671      863.462
07/21/2014  20:05:00       33.675      221.266      -27.482       72.781      110.239       34.821     5297.026    12152.589     1212.524        3.475        0.933      223.814       37.142        0.028      345.837       23.650      863.444
07/21/2014  20:06:00       63.896      171.243      -17.653       72.771      104.447       50.835     5295.663    10909.097     2584.171        2.625        0.939      182.776       51.883        0.081      345.836       23.649      863.442
07/21/2014  20:07:00       43.985       83.232       -2.462       64.016       47.454       38.603     4098.054     2251.880     1490.154        0.835        0.392       94.139       33.641        0.128      345.858       23.689      863.417
07/21/2014  20:08:00        2.461      142.072      -15.384       41.997       54.795       26.555     1763.733     3002.534      705.177        1.295        0.274      142.094       27.381        0.037      345.902       23.766      863.421
07/21/2014  20:09:00      -31.070      161.052      -24.615       43.156       59.936       35.004     1862.422     3592.379     1225.246        1.709        0.334      164.021       34.962        0.045      346.008       23.945      863.437
07/21/2014  20:10:00      -76.156      151.478       -6.989       67.641       82.637       38.464     4575.301     6828.893     1479.476        2.084        0.644      169.545       36.224        0.046      346.138       24.167      863.435
07/21/2014  20:11:00      -80.912       57.485       -5.209       51.722       86.323       38.726     2675.199     7451.682     1499.729        1.075        0.581       99.253       35.738        0.130      346.178       24.238      863.443
07/21/2014  20:12:00     -201.218      250.047      -55.680       80.756       93.989       48.743     6521.593     8833.966     2375.853        6.192        0.887      320.955       50.652        0.025      346.155       24.196      863.463
07/21/2014  20:13:00     -132.739      174.874      -32.583       72.423       90.600       41.310     5245.027     8208.277     1706.533        3.221        0.758      219.547       36.923        0.028      346.184       24.246      863.467
07/21/2014  20:14:00     -147.008       96.403      -31.963       63.469       76.044       30.327     4028.274     5782.637      919.727        2.133        0.537      175.798       26.748        0.023      346.173       24.230      863.483
07/21/2014  20:15:00     -135.676       -6.669       -3.846       65.012       58.253       32.146     4226.620     3393.407     1033.343        1.356        0.433      135.840       31.165        0.053      346.208       24.287      863.499
07/21/2014  20:16:00      -77.533       20.778       -9.229       38.668       59.337       25.004     1495.228     3520.914      625.191        0.608        0.282       80.269       20.522        0.065      346.220       24.311      863.506
07/21/2014  20:17:00     -104.856      147.325      -15.239       59.285       77.625       49.902     3514.759     6025.620     2490.221        2.248        0.602      180.830       44.329        0.060      346.233       24.330      863.493
07/21/2014  20:18:00      -86.796      147.543      -22.207       57.761       47.992       31.373     3336.277     2303.232      984.291        1.821        0.331      171.180       31.809        0.035      346.286       24.424      863.483
07/21/2014  20:19:00     -146.319      103.519      -23.346       65.191       99.070       48.217     4249.856     9814.788     2324.910        2.453        0.819      179.236       50.443        0.079      346.340       24.515      863.466
07/21/2014  20:20:00      -99.708       17.631      -10.316       88.506       53.290       29.443     7833.359     2839.843      866.898        1.095        0.577      101.255       34.965        0.119      346.338       24.515      863.466
07/21/2014  20:21:00     -103.849       16.837       -3.910       63.840       88.374       38.348     4075.537     7809.957     1470.535        1.222        0.668      105.205       32.979        0.098      346.349       24.531      863.482
07/21/2014  20:22:00     -122.939      -57.051       -0.548      107.620       45.714       38.253    11582.103     2089.769     1463.293        1.675        0.757      135.532       48.881        0.130      346.393       24.607      863.505
07/21/2014  20:23:00     -132.328      -61.596        6.096       57.613       54.998       29.474     3319.305     3024.741      868.724        1.428        0.361      145.962       26.067        0.032      346.371       24.570      863.536
07/21/2014  20:24:00     -207.907      -39.136        5.202      122.431       77.148       51.621    14989.422     5951.794     2664.705        3.419        1.180      211.559       58.184        0.076      346.378       24.579      863.561
07/21/2014  20:25:00     -172.772      -16.569      -12.918      120.196       80.007       52.261    14447.160     6401.070     2731.258        2.693        1.179      173.565       67.308        0.150      346.388       24.596      863.573
07/21/2014  20:26:00     -228.992        5.400       -4.720      183.402       88.533       52.923    33636.114     7838.075     2800.893        4.837        2.214      229.055       79.055        0.119      346.367       24.562      863.566
07/21/2014  20:27:00     -216.629      -22.658       -2.271      108.209       89.042       46.931    11709.153     7928.460     2202.540        3.464        1.092      217.811       54.516        0.063      346.369       24.563      863.548
07/21/2014  20:28:00     -118.008      -36.787        8.005      109.265       75.543       38.296    11938.811     5706.807     1466.583        1.722        0.956      123.609       45.889        0.138      346.360       24.551      863.533
07/21/2014  20:29:00     -146.774        4.786      -10.489       98.946       58.190       39.840     9790.361     3386.100     1587.261        1.822        0.738      146.852       48.686        0.110      346.349       24.534      863.529
07/21/2014  20:30:00     -204.126       14.346      -17.754       64.776       63.471       39.444     4195.973     4028.565     1555.815        2.598        0.489      204.629       30.512        0.022      346.343       24.521      863.549
07/21/2014  20:31:00     -275.536      -17.744      -17.604       79.918       59.082       46.486     6386.858     3490.736     2160.961        4.429        0.602      276.107       44.561        0.026      346.333       24.504      863.562
07/21/2014  20:32:00     -167.164      -19.962      -11.470       79.652       78.392       40.714     6344.457     6145.263     1657.648        2.131        0.707      168.351       34.784        0.043      346.350       24.534      863.562
07/21/2014  20:33:00     -180.162      -55.975       -8.259       74.585       70.040       37.246     5562.908     4905.548     1387.234        2.376        0.593      188.657       37.979        0.041      346.349       24.530      863.560
07/21/2014  20:34:00     -232.355       -1.831      -17.409      115.656       93.488       39.467    13376.384     8739.954     1557.651        3.898        1.184      232.362       41.321        0.032      346.312       24.467      863.572
07/21/2014  20:35:00     -285.005       -6.479      -44.684       86.396       76.782       41.854     7464.277     5895.458     1751.773        4.919        0.756      285.078       44.650        0.025      346.309       24.458      863.566
07/21/2014  20:36:00     -266.465       11.916      -24.369      100.733       85.110       43.350    10147.139     7243.770     1879.245        4.550        0.964      266.731       40.330        0.023      346.302       24.449      863.581
07/21/2014  20:37:00     -232.174      -11.030      -16.205       64.071       75.555       33.838     4105.113     5708.628     1145.009        3.262        0.548      232.436       23.285        0.010      346.314       24.468      863.590
07/21/2014  20:38:00     -245.089      -90.273       -3.743      116.394      114.201       51.277    13547.480    13041.926     2629.298        4.872        1.461      261.185       54.473        0.043      346.274       24.399      863.611
07/21/2014  20:39:00     -319.865       63.070      -24.301      102.230       59.473       48.762    10450.926     3537.036     2377.731        6.162        0.818      326.023       47.326        0.021      346.270       24.393      863.629
07/21/2014  20:40:00     -189.362       36.383      -24.728      127.858       89.468       37.745    16347.587     8004.489     1424.658        3.178        1.289      192.825       41.223        0.046      346.270       24.394      863.653
07/21/2014  20:41:00     -396.228     -122.227      -24.945      159.427       96.895       54.220    25416.816     9388.728     2939.801       10.514        1.887      414.652       54.922        0.018      346.266       24.386      863.661
07/21/2014  20:42:00     -313.517      -79.726      -29.315       73.892       71.145       48.667     5460.003     5061.666     2368.520        5.920        0.645      323.495       40.429        0.016      346.259       24.373      863.688
07/21/2014  20:43:00     -334.394       -7.301      -20.223      128.588       83.388       55.220    16534.813     6953.577     3049.218        6.940        1.327      334.473       55.092        0.027      346.223       24.311      863.721
07/21/2014  20:44:00     -316.432      -35.420      -19.487      116.248       93.538       52.931    13513.644     8749.331     2801.674        6.341        1.253      318.408       56.079        0.031      346.222       24.309      863.736
07/21/2014  20:45:00     -219.455      -59.708       -9.741       67.570       53.994       36.521     4565.732     2915.371     1333.753        3.032        0.441      227.432       32.911        0.021      346.230       24.324      863.757
07/21/2014  20:46:00     -173.265       14.596       -5.489       83.475       74.614       36.020     6968.147     5567.177     1297.406        2.205        0.692      173.878       34.635        0.040      346.200       24.273      863.783
07/21/2014  20:47:00     -133.695      -83.145        9.183      116.622       66.946       49.612    13600.655     4481.743     2461.367        2.270        1.027      157.440       53.525        0.116      346.190       24.256      863.786
07/21/2014  20:48:00     -222.170      -98.639        0.828      162.417      107.944       53.158    26379.375    11652.002     2825.723        4.997        2.043      243.083       62.364        0.066      346.175       24.232      863.807
07/21/2014  20:49:00     -187.942      -84.333        6.853       96.329      126.331       60.910     9279.208    15959.447     3710.052        3.571        1.447      205.995       58.369        0.080      346.176       24.231      863.812
07/21/2014  20:50:00     -163.095        2.537        0.012      113.259       85.977       58.728    12827.659     7392.043     3449.023        2.513        1.183      163.115       67.560        0.172      346.158       24.202      863.815
07/21/2014  20:51:00     -279.722      -12.312      -18.350      127.536       80.472       55.506    16265.455     6475.783     3080.868        5.227        1.291      279.992       66.922        0.057      346.154       24.195      863.800
07/21/2014  20:52:00     -329.475      -72.718      -35.353      144.264      129.430       56.686    20811.985    16752.104     3213.352        7.793        2.039      337.404       45.336        0.018      346.154       24.195      863.775
07/21/2014  20:53:00     -215.029      -99.843      -30.262      221.048      118.452       68.963    48862.433    14030.758     4755.872        6.237        3.382      237.079       90.106        0.144      346.139       24.168      863.764
07/21/2014  20:54:00     -338.192      -23.251      -38.366      116.690      102.701       52.125    13616.604    10547.529     2716.975        7.163        1.344      338.990       51.179        0.023      346.124       24.142      863.754
07/21/2014  20:55:00     -287.844      -66.986      -21.397      129.960      136.625       59.036    16889.508    18666.426     3485.238        6.341        1.952      295.536       55.817        0.036      346.117       24.130      863.774
07/21/2014  20:56:00     -282.030      -55.016      -14.948      138.739       91.723       54.680    19248.463     8413.183     2989.865        5.672        1.533      287.346       48.677        0.029      346.110       24.118      863.819
07/21/2014  20:57:00     -303.780      -14.294      -14.629      159.389      124.701       65.227    25404.793    15550.353     4254.555        6.895        2.260      304.116       79.520        0.068      346.094       24.091      863.850
07/21/2014  20:58:00     -360.740     -109.686      -17.223      157.637      146.054       68.516    24849.543    21331.903     4694.416        9.666        2.544      377.047       74.565        0.039      346.084       24.073      863.882
07/21/2014  20:59:00     -355.667      -63.557      -23.475      125.894      129.606       58.495    15849.235    16797.755     3421.711        8.357        1.803      361.301       64.967        0.032      346.079       24.064      863.922
07/21/2014  21:00:00     -488.950      -64.843      -35.497      195.981      139.428       70.736    38408.556    19440.281     5003.610       15.368        3.143      493.231       83.971        0.029      346.048       24.010      863.925
07/21/2014  21:01:00     -341.552      -48.865      -16.797      112.448      100.646       58.432    12644.443    10129.694     3414.273        7.275        1.309      345.030       54.812        0.025      346.057       24.027      863.947
07/21/2014  21:02:00     -302.205      -45.180       -5.774      148.853      101.576       55.833    22157.287    10317.774     3117.304        6.449        1.780      305.563       68.102        0.050      346.047       24.011      863.971
07/21/2014  21:03:00     -376.276     -136.990      -12.410      130.917      130.581       54.167    17139.208    17051.363     2934.011        9.881        1.856      400.437       58.810        0.022      346.041       24.000      863.962
07/21/2014  21:04:00     -293.794      -48.800       -0.707      109.934       83.917       57.680    12085.409     7042.102     3327.027        5.557        1.123      297.819       60.770        0.042      346.042       24.002      863.981
07/21/2014  21:05:00     -368.516     -108.964      -16.562      153.982      123.914       65.781    23710.494    15354.796     4327.083        9.566        2.170      384.288       56.387        0.022      346.015       23.956      864.012
07/21/2014  21:06:00     -370.200      -40.791      -10.467      135.608      100.679       70.050    18389.479    10136.228     4906.970        8.612        1.672      372.441       76.721        0.042      346.010       23.946      864.052
07/21/2014  21:07:00     -289.095      -63.843       -9.712      123.125      103.867       64.082    15159.863    10788.327     4106.466        5.889        1.503      296.060       60.844        0.042      346.008       23.945      864.090
07/21/2014  21:08:00     -279.604      -73.241       -7.249      146.249      103.700       49.001    21388.866    10753.728     2401.087        5.906        1.727      289.037       58.177        0.041      345.998       23.927      864.120
07/21/2014  21:09:00     -288.050     -140.765       -2.530      163.449      135.665       76.658    26715.434    18404.923     5876.435        7.689        2.550      320.605       81.312        0.064      345.994       23.921      864.133
07/21/2014  21:10:00     -370.510     -105.186       -9.669      152.003       94.059       64.535    23104.766     8847.088     4164.745        9.227        1.806      385.152       69.348        0.032      345.967       23.874      864.142
07/21/2014  21:11:00     -423.980       69.699      -29.018      151.088      149.429       66.600    22827.568    22328.924     4435.496       11.752        2.480      429.671       45.747        0.011      345.940       23.826      864.137
07/21/2014  21:12:00     -318.160       -9.459      -22.859      173.448      107.278       65.340    30084.246    11508.556     4269.302        7.384        2.293      318.301       85.424        0.072      345.941       23.826      864.104
07/21/2014  21:13:00     -387.360     -138.468      -12.150      121.759      113.598       60.960    14825.330    12904.444     3716.114       10.040        1.572      411.365       56.222        0.019      345.906       23.769      864.067
07/21/2014  21:14:00     -423.073        1.551      -38.954      120.464       92.498       60.347    14511.499     8555.956     3641.712       10.360        1.335      423.076       61.788        0.021      345.895       23.751      864.044
07/21/2014  21:15:00     -307.453      -80.747      -22.081      153.574       89.317       60.271    23585.088     7977.606     3632.596        6.836        1.760      317.880       66.287        0.043      345.902       23.762      864.040
07/21/2014  21:16:00     -311.164      -44.593      -10.376      131.450      114.573       67.115    17278.979    13126.982     4504.405        6.691        1.746      314.343       74.568        0.056      345.844       23.663      864.064
07/21/2014  21:17:00     -385.306      -99.514      -20.617      140.870       91.222       56.271    19844.315     8321.469     3166.378        9.505        1.567      397.950       61.147        0.024      345.843       23.661      864.091
07/21/2014  21:18:00     -372.431     -112.598      -20.430      158.223      107.160       58.921    25034.624    11483.253     3471.701        9.589        1.999      389.079       67.355        0.030      345.834       23.645      864.126
07/21/2014  21:19:00     -375.537      -43.736      -15.850      137.717       99.049       65.970    18965.840     9810.714     4351.991        8.815        1.656      378.076       65.352        0.030      345.807       23.599      864.144
07/21/2014  21:20:00     -335.369      -69.417      -10.189      142.184      102.931       57.101    20216.366    10594.726     3260.490        7.573        1.704      342.478       45.332        0.018      345.792       23.574      864.134
07/21/2014  21:21:00     -269.170      -73.164      -10.259      128.574      114.778       56.533    16531.169    13173.963     3195.973        5.540        1.645      278.936       60.933        0.048      345.793       23.576      864.132
07/21/2014  21:22:00     -266.671      -64.169      -26.563       98.835       95.475       43.219     9768.428     9115.534     1867.878        4.834        1.038      274.283       43.970        0.026      345.790       23.570      864.152
07/21/2014  21:23:00     -224.171      -16.146      -16.840      106.902       77.848       45.342    11428.116     6060.272     2055.873        3.517        0.977      224.752       46.337        0.043      345.772       23.539      864.140
07/21/2014  21:24:00     -184.064      -24.578      -10.797       74.931       59.560       32.616     5614.673     3547.425     1063.805        2.241        0.511      185.698       37.272        0.040      345.762       23.522      864.130
07/21/2014  21:25:00     -192.758      -92.538      -14.709       69.040       52.857       29.190     4766.501     2793.811      852.080        2.717        0.421      213.820       22.875        0.011      345.749       23.500      864.128
07/21/2014  21:26:00     -129.587      -34.554        0.103       96.392       62.787       42.956     9291.377     3942.181     1845.256        1.653        0.754      134.115       44.722        0.111      345.732       23.473      864.094
07/21/2014  21:27:00     -308.437       53.306      -27.498      108.741       78.468       59.419    11824.600     6157.277     3530.663        6.012        1.076      313.009       53.425        0.029      345.708       23.428      864.090
07/21/2014  21:28:00     -329.693      -89.745      -19.030      138.172      156.715       64.996    19091.571    24559.452     4224.491        8.249        2.394      341.689       68.042        0.040      345.686       23.392      864.112
07/21/2014  21:29:00     -224.330      -89.891       -7.680      123.061      107.973       51.600    15144.033    11658.072     2662.536        4.396        1.473      241.670       50.917        0.044      345.678       23.376      864.153
07/21/2014  21:30:00     -193.276      -36.175       -5.290      129.907       94.224       55.957    16875.910     8878.226     3131.192        3.378        1.444      196.633       64.061        0.106      345.655       23.338      864.186
07/21/2014  21:31:00     -435.719     -100.084      -14.308      148.967      118.469       81.258    22191.236    14034.797     6602.934       12.144        2.141      447.066       75.725        0.029      345.642       23.313      864.194
07/21/2014  21:32:00     -278.999      -65.736       -1.076      155.575      102.958       65.105    24203.722    10600.430     4238.711        6.060        1.952      286.639       70.612        0.061      345.627       23.289      864.217
07/21/2014  21:33:00     -237.912      -74.262       -3.761      110.808      113.818       52.832    12278.507    12954.611     2791.240        4.507        1.401      249.233       38.168        0.023      345.629       23.291      864.221
07/21/2014  21:34:00     -129.716      -50.540        2.523      109.800       72.512       45.585    12055.954     5258.052     2078.007        1.939        0.970      139.214       53.382        0.147      345.622       23.283      864.267
07/21/2014  21:35:00     -100.202      -25.455        3.601       81.598       86.518       43.195     6658.194     7485.369     1865.821        1.335        0.800      103.385       54.943        0.282      345.646       23.324      864.294
07/21/2014  21:36:00     -265.344      -33.243      -12.535       97.196       97.459       56.961     9447.097     9498.321     3244.583        4.693        1.110      267.418       49.067        0.034      345.609       23.256      864.303
07/21/2014  21:37:00     -183.299      -52.244        1.109       72.302       59.271       36.818     5227.580     3513.061     1355.570        2.321        0.505      190.599       29.703        0.024      345.597       23.237      864.314
07/21/2014  21:38:00     -169.290      -17.779       -3.156       90.189       78.156       40.050     8134.044     6108.334     1603.978        2.241        0.792      170.221       33.951        0.040      345.576       23.203      864.313
07/21/2014  21:39:00     -261.524       64.083      -39.854       91.818      102.749       48.518     8430.505    10557.271     2353.992        4.771        1.067      269.261       43.633        0.026      345.581       23.210      864.303
07/21/2014  21:40:00     -277.433      -59.587      -17.764      106.588       97.595       47.237    11360.899     9524.688     2231.347        5.197        1.156      283.760       39.918        0.020      345.571       23.192      864.314
07/21/2014  21:41:00     -243.237      -69.315      -18.748      117.946       65.611       46.210    13911.317     4304.760     2135.332        4.233        1.018      252.921       51.883        0.042      345.561       23.177      864.353
07/21/2014  21:42:00     -214.447      -59.330      -14.749       68.378       52.368       35.487     4675.551     2742.406     1259.328        2.920        0.434      222.503       24.361        0.012      345.558       23.171      864.368
07/21/2014  21:43:00      -83.975      -12.625        8.831       70.846       60.905       43.657     5019.111     3709.464     1905.966        0.896        0.532       84.919       38.031        0.201      345.564       23.184      864.360
07/21/2014  21:44:00     -131.544       -1.124      -15.044       91.777       47.461       33.982     8423.108     2252.573     1154.810        1.468        0.592      131.549       28.986        0.049      345.560       23.177      864.384
07/21/2014  21:45:00     -241.821      -70.578      -11.306       93.895       82.279       49.891     8816.261     6769.853     2489.099        4.083        0.904      251.910       41.845        0.028      345.532       23.126      864.405
07/21/2014  21:46:00     -204.590      -58.349      -15.637      101.584       63.556       44.999    10319.220     4039.409     2024.876        3.094        0.819      212.747       49.454        0.054      345.495       23.063      864.423
07/21/2014  21:47:00     -107.926       -5.630      -29.165      119.522       50.709       34.970    14285.486     2571.424     1222.925        1.530        0.904      108.072       47.069        0.190      345.494       23.063      864.446
07/21/2014  21:48:00      -31.539      -28.751        5.349       49.056       39.172       29.573     2406.525     1534.473      874.563        0.333        0.241       42.678       27.271        0.408      345.496       23.067      864.470
07/21/2014  21:49:00      -35.550        0.144        3.000       66.016       28.880       28.754     4358.107      834.044      826.798        0.364        0.301       35.550       34.754        0.956      345.454       22.995      864.491
07/21/2014  21:50:00     -154.294      -84.006       -8.893       66.206       69.763       39.304     4383.234     4866.813     1544.821        2.087        0.540      175.680       21.010        0.014      345.438       22.965      864.494
07/21/2014  21:51:00     -169.465      -51.302      -11.174       82.581       87.506       56.869     6819.645     7657.362     3234.074        2.459        0.886      177.060       41.156        0.054      345.439       22.966      864.489
07/21/2014  21:52:00      -99.104        7.885       -8.464       81.365       81.811       44.031     6620.239     6693.119     1938.761        1.260        0.763       99.417       30.187        0.092      345.417       22.930      864.475
07/21/2014  21:53:00     -278.234      -23.606      -23.952      113.982      102.751       48.732    12991.838    10557.775     2374.763        5.223        1.296      279.233       53.782        0.037      345.406       22.910      864.459
07/21/2014  21:54:00     -262.547       40.650      -26.046       66.214      107.932       43.525     4384.309    11649.422     1894.468        4.459        0.896      265.675       40.781        0.024      345.383       22.872      864.426
07/21/2014  21:55:00     -167.230       31.633      -21.142       59.185       63.024       33.360     3502.807     3972.062     1112.923        1.900        0.429      170.195       28.884        0.029      345.373       22.857      864.395
07/21/2014  21:56:00     -141.754      -58.430      -16.158       69.719       48.613       31.623     4860.729     2363.253     1000.032        1.600        0.411      153.324       37.069        0.058      345.365       22.840      864.380
07/21/2014  21:57:00     -168.767      -52.681       -3.175       65.134       85.297       40.604     4242.442     7275.551     1648.653        2.221        0.658      176.798       24.006        0.018      345.346       22.808      864.404
07/21/2014  21:58:00     -211.122      -52.697      -14.854       79.242       91.431       43.271     6279.270     8359.549     1872.339        3.204        0.826      217.599       27.609        0.016      345.350       22.815      864.418
07/21/2014  21:59:00     -394.630      -59.183      -35.446      118.153       74.454       50.462    13960.078     5543.425     2546.453        9.127        1.102      399.044       49.658        0.015      345.366       22.841      864.413
07/21/2014  22:00:00     -312.852        0.892      -37.367       92.378      130.838       45.614     8533.603    17118.681     2080.618        6.350        1.387      312.853       39.226        0.016      345.335       22.785      864.402
07/21/2014  22:01:00     -151.162      -18.027        7.476       83.801       75.991       47.384     7022.630     5774.648     2245.261        1.913        0.752      152.233       45.436        0.089      345.351       22.818      864.376
07/21/2014  22:02:00     -120.193      -28.399      -14.851       88.056       50.802       42.022     7753.790     2580.821     1765.839        1.378        0.605      123.502       49.267        0.159      345.330       22.781      864.377
07/21/2014  22:03:00     -187.574      -83.973       -2.834       52.300       68.712       36.437     2735.268     4721.273     1327.678        2.551        0.439      205.512       23.135        0.013      345.328       22.776      864.378
07/21/2014  22:04:00     -275.764      -44.637      -17.322       90.210       74.491       46.944     8137.926     5548.887     2203.764        4.711        0.795      279.354       39.700        0.020      345.304       22.734      864.394
07/21/2014  22:05:00     -143.026        6.515      -18.733       78.771       53.188       38.844     6204.869     2828.910     1508.823        1.569        0.527      143.175       41.639        0.085      345.282       22.699      864.421
07/21/2014  22:06:00     -105.486       46.797      -16.288       61.236       38.415       26.566     3749.901     1475.674      705.766        0.976        0.297      115.400       25.133        0.047      345.262       22.666      864.453
07/21/2014  22:07:00      -84.489      -19.496       -8.057       52.801       32.556       24.977     2787.956     1059.915      623.867        0.603        0.224       86.709       29.856        0.119      345.255       22.652      864.487
07/21/2014  22:08:00     -170.660      -65.203       -9.407       67.399       62.534       39.413     4542.657     3910.486     1553.363        2.173        0.500      182.692       34.430        0.036      345.248       22.640      864.499
07/21/2014  22:09:00     -195.493      -28.728      -16.371       65.937       62.471       35.304     4347.742     3902.669     1246.394        2.440        0.475      197.593       34.465        0.030      345.250       22.643      864.512
07/21/2014  22:10:00     -243.380       27.503      -11.200       93.345       81.475       40.079     8713.209     6638.191     1606.331        3.853        0.848      244.929       42.885        0.031      345.242       22.627      864.504
07/21/2014  22:11:00     -272.441      -73.857       -9.502      117.759       95.895       54.589    13867.146     9195.781     2979.959        5.290        1.302      282.274       47.409        0.028      345.274       22.684      864.516
07/21/2014  22:12:00     -211.273      -82.246       -6.054       89.312       71.093       53.410     7976.674     5054.251     2852.578        3.366        0.794      226.717       44.495        0.039      345.284       22.700      864.529
07/21/2014  22:13:00     -270.569       -4.540      -19.533      121.316       91.805       50.673    14717.594     8428.118     2567.789        4.966        1.286      270.607       51.443        0.036      345.276       22.689      864.532
07/21/2014  22:14:00     -238.878      -54.227      -25.105      103.546       95.906       42.870    10721.796     9197.960     1837.837        4.119        1.088      244.956       14.717        0.004      345.269       22.677      864.526
07/21/2014  22:15:00     -154.570      -56.713      -11.834       76.936       62.222       39.741     5919.212     3871.531     1579.386        1.931        0.569      164.645       37.899        0.053      345.267       22.672      864.538
07/21/2014  22:16:00     -102.290      -51.186      -13.760       73.101       44.336       38.472     5343.711     1965.690     1480.098        1.103        0.439      114.382       33.531        0.086      345.280       22.694      864.533
07/21/2014  22:17:00     -342.626      -26.334      -31.396      123.076      107.460       59.181    15147.693    11547.677     3502.334        7.463        1.510      343.636       64.783        0.036      345.255       22.651      864.511
07/21/2014  22:18:00     -375.479       39.188      -26.508      147.896      143.351       64.907    21873.207    20549.503     4212.870        9.492        2.332      377.518       73.332        0.038      345.246       22.635      864.492
07/21/2014  22:19:00     -298.111      -68.252      -12.725       92.075       74.975       45.667     8477.787     5621.245     2085.431        5.493        0.809      305.824       48.625        0.025      345.237       22.619      864.497
07/21/2014  22:20:00     -282.364       14.708      -12.226      107.666       89.514       44.506    11592.003     8012.680     1980.826        5.084        1.079      282.747       43.289        0.023      345.242       22.627      864.473
07/21/2014  22:21:00     -250.826      -64.922       -4.522      112.244       88.037       55.270    12598.680     7750.529     3054.746        4.527        1.170      259.092       55.388        0.046      345.232       22.610      864.446
07/21/2014  22:22:00     -378.848       -3.014      -27.880      116.458       70.190       55.130    13562.556     4926.612     3039.269        8.292        1.076      378.860       54.150        0.020      345.247       22.636      864.434
07/21/2014  22:23:00     -306.034      -39.932      -22.900      116.637       88.617       41.926    13604.266     7853.017     1757.749        5.949        1.161      308.628       42.671        0.019      345.250       22.642      864.433
07/21/2014  22:24:00     -401.356     -141.058      -20.857      143.442      127.891       66.309    20575.504    16355.985     4396.915       11.137        2.066      425.422       60.538        0.020      345.252       22.644      864.428
07/21/2014  22:25:00     -301.106      -71.739      -22.027      104.615      113.223       58.890    10944.197    12819.451     3468.031        6.176        1.362      309.534       48.248        0.024      345.223       22.595      864.453
07/21/2014  22:26:00     -308.730      -13.353      -21.834      158.185      119.589       69.202    25022.558    14301.640     4788.856        7.003        2.206      309.019       73.808        0.057      345.220       22.590      864.451
07/21/2014  22:27:00     -201.933      -63.746       -0.219      117.982       97.758       67.438    13919.818     9556.652     4547.890        3.643        1.401      211.755       60.848        0.083      345.209       22.572      864.452
07/21/2014  22:28:00     -156.845      -92.773        7.228      121.246       90.182       47.623    14700.614     8132.858     2267.943        2.918        1.255      182.228       56.554        0.096      345.188       22.536      864.451
07/21/2014  22:29:00     -292.897      -82.984       -9.716      106.547       94.857       51.509    11352.281     8997.856     2653.137        5.788        1.150      304.425       45.820        0.023      345.191       22.541      864.458
07/21/2014  22:30:00     -258.510       -9.290      -23.657       96.961      115.821       51.904     9401.418    13414.532     2693.980        4.649        1.275      258.677       54.356        0.044      345.199       22.554      864.449
07/21/2014  22:31:00     -200.297      -87.735       -2.987      104.230       86.537       42.169    10863.986     7488.645     1778.250        3.397        1.007      218.670       41.520        0.036      345.163       22.496      864.460
07/21/2014  22:32:00     -305.388      -60.085      -26.772      144.897      100.800       58.564    20995.153    10160.576     3429.763        6.608        1.729      311.243       68.153        0.048      345.194       22.546      864.462
07/21/2014  22:33:00     -303.551       13.271      -18.508       78.262       73.961       57.447     6124.983     5470.211     3300.127        5.378        0.745      303.841       40.081        0.017      345.160       22.487      864.440
07/21/2014  22:34:00     -265.368      -33.838       -9.811       97.795       62.676       50.118     9563.772     3928.226     2511.808        4.383        0.800      267.517       54.092        0.041      345.132       22.440      864.430
07/21/2014  22:35:00     -360.061     -142.503      -10.106      165.373       98.592       64.940    27348.240     9720.474     4217.249        9.566        2.064      387.235       74.073        0.037      345.150       22.471      864.437
07/21/2014  22:36:00     -260.877      -72.601       -5.145      115.356      102.810       62.231    13307.061    10569.913     3872.758        5.055        1.387      270.791       66.420        0.060      345.132       22.441      864.446
07/21/2014  22:37:00     -366.518      -35.888      -21.582      126.672      103.909       60.973    16045.798    10796.985     3717.744        8.332        1.528      368.271       62.189        0.029      345.149       22.468      864.429
07/21/2014  22:38:00     -300.117      -47.597      -14.391      135.513       96.185       58.928    18363.774     9251.614     3472.536        6.181        1.554      303.868       66.028        0.047      345.140       22.454      864.419
07/21/2014  22:39:00     -214.314      -50.098        2.421      115.464       87.813       49.443    13331.910     7711.143     2444.589        3.596        1.174      220.092       46.753        0.045      345.112       22.407      864.427
07/21/2014  22:40:00     -262.874     -103.716      -10.752      105.614       77.012       50.722    11154.327     5930.916     2572.745        4.981        0.983      282.595       42.680        0.023      345.131       22.438      864.425
07/21/2014  22:41:00     -158.544      -66.238      -10.055       86.448       53.108       43.422     7473.189     2820.426     1885.481        2.090        0.609      171.825       47.583        0.077      345.123       22.428      864.418
07/21/2014  22:42:00     -196.813      -69.752        5.339      104.632       88.131       52.098    10947.860     7767.053     2714.162        3.252        1.071      208.808       55.142        0.070      345.131       22.438      864.416
07/21/2014  22:43:00     -356.048      -93.107      -25.354      171.421      106.541       65.286    29385.233    11350.906     4262.318        9.053        2.250      368.020       66.603        0.033      345.117       22.414      864.407
07/21/2014  22:44:00     -257.611      -57.323       -8.661      154.927       95.773       64.290    24002.462     9172.493     4133.214        5.351        1.865      263.912       71.957        0.074      345.116       22.414      864.398
07/21/2014  22:45:00     -364.513      -88.242       -7.423      155.971      118.816       80.006    24326.945    14117.259     6400.983        9.277        2.242      375.042       85.071        0.051      345.133       22.444      864.407
07/21/2014  22:46:00     -258.086        1.472      -31.545      133.032       98.689       60.182    17697.514     9739.599     3621.828        4.933        1.553      258.090       62.064        0.058      345.153       22.476      864.421
07/21/2014  22:47:00     -213.511      -31.725      -19.165      147.982       67.792       46.119    21898.632     4595.720     2126.933        3.779        1.431      215.855       59.049        0.075      345.146       22.466      864.426
07/21/2014  22:48:00     -276.018      -82.397       -4.400      130.646       99.793       65.992    17068.357     9958.558     4354.972        5.718        1.569      288.054       75.004        0.068      345.133       22.443      864.415
07/21/2014  22:49:00     -282.112      -79.420       -3.299      160.394      170.651       72.624    25726.325    29121.802     5274.237        7.300        3.006      293.078       81.804        0.078      345.137       22.451      864.412
07/21/2014  22:50:00     -372.745      -83.866      -22.481      130.972       90.917       53.576    17153.766     8265.887     2870.409        8.738        1.415      382.063       40.920        0.011      345.143       22.460      864.430
07/21/2014  22:51:00     -167.054      -85.843       -2.623       83.441       68.283       40.827     6962.344     4662.600     1666.855        2.428        0.665      187.820       42.628        0.052      345.147       22.468      864.445
07/21/2014  22:52:00     -170.202      -37.712        5.103      205.602      103.126       81.612    42272.263    10634.987     6660.503        4.498        2.978      174.330       92.492        0.281      345.165       22.499      864.446
07/21/2014  22:53:00     -331.231     -195.455        3.514      193.178      153.950       79.266    37317.702    23700.638     6283.077       10.760        3.365      384.599       79.941        0.043      345.163       22.493      864.433
07/21/2014  22:54:00     -281.591      -14.876       -7.421      138.305      100.407       67.914    19128.309    10081.470     4612.329        5.669        1.691      281.984       75.996        0.073      345.150       22.472      864.462
07/21/2014  22:55:00     -147.595     -103.795        8.385      114.303       84.821       52.993    13065.251     7194.587     2808.269        2.784        1.153      180.438       56.458        0.098      345.169       22.504      864.466
07/21/2014  22:56:00     -142.822      -82.541       -0.774      127.452      110.365       57.877    16243.996    12180.351     3349.734        2.949        1.589      164.958       55.227        0.112      345.169       22.503      864.455
07/21/2014  22:57:00     -135.545      -37.899        9.491      129.614       84.293       51.556    16799.870     7105.300     2657.971        2.323        1.328      140.743       63.405        0.203      345.118       22.419      864.435
07/21/2014  22:58:00     -289.183      -44.996      -20.429      219.583       93.555       67.176    48216.627     8752.602     4512.573        7.376        3.074      292.662       93.747        0.103      345.155       22.480      864.409
07/21/2014  22:59:00     -221.011      -34.444        2.722      161.323      109.411       76.431    26025.137    11970.679     5841.679        4.693        2.192      223.679       80.332        0.129      345.144       22.462      864.396
07/21/2014  23:00:00     -278.876      -88.860        2.217      180.650      123.777       71.325    32634.566    15320.721     5087.243        6.935        2.652      292.691       80.684        0.076      345.136       22.448      864.373
07/21/2014  23:01:00     -268.006      -36.298       -7.743      116.904      107.113       66.123    13666.617    11473.118     4372.280        5.135        1.476      270.453       68.245        0.064      345.145       22.462      864.377
07/21/2014  23:02:00     -243.383      -60.922       12.200      122.837      119.507       67.609    15088.835    14281.995     4570.966        4.851        1.697      250.892       67.988        0.073      345.110       22.404      864.384
07/21/2014  23:03:00     -263.179      -32.718      -12.501      114.333      104.123       54.164    13072.050    10841.515     2933.720        4.866        1.342      265.205       48.952        0.034      345.120       22.420      864.390
07/21/2014  23:04:00     -354.840     -102.123      -36.113      159.870       97.173       65.717    25558.369     9442.561     4318.762        8.847        1.966      369.243       52.916        0.021      345.125       22.428      864.381
07/21/2014  23:05:00     -280.607      -40.090      -13.265      124.812      149.398       59.135    15578.148    22319.910     3496.975        6.095        2.070      283.456       52.027        0.034      345.094       22.375      864.383
07/21/2014  23:06:00     -312.324      -42.946      -13.632      107.284       95.878       59.314    11509.795     9192.672     3518.161        6.189        1.211      315.263       59.443        0.036      345.085       22.360      864.355
07/21/2014  23:07:00     -193.941      -21.120        1.864      165.472       80.228       61.168    27380.984     6436.538     3741.497        3.780        1.878      195.088       63.103        0.105      345.061       22.321      864.361
07/21/2014  23:08:00     -261.087      -45.104      -18.301      195.761      115.161       71.140    38322.341    13262.102     5060.909        6.358        2.832      264.954       73.952        0.078      345.062       22.322      864.357
07/21/2014  23:09:00     -169.137      -82.181       17.538      132.348      112.028       70.563    17515.969    12550.277     4979.195        3.535        1.752      188.046       80.953        0.185      345.064       22.326      864.370
07/21/2014  23:10:00     -166.483     -132.843       23.784      151.605      125.913       85.786    22984.171    15854.029     7359.312        4.605        2.310      212.988       87.391        0.168      345.055       22.310      864.371
07/21/2014  23:11:00     -212.224      -69.711        1.611      151.259      110.674       70.288    22879.389    12248.833     4940.466        4.498        2.003      223.380       80.784        0.131      345.068       22.332      864.367
07/21/2014  23:12:00     -190.128     -104.080      -12.534      104.398      104.293       58.462    10898.993    10877.127     3417.791        3.616        1.260      216.752       43.981        0.041      345.072       22.340      864.360
07/21/2014  23:13:00     -258.773      -22.587       -1.613      127.970      124.538       64.712    16376.347    15509.652     4187.633        5.177        1.804      259.756       67.143        0.067      345.019       22.250      864.326
07/21/2014  23:14:00     -309.848     -103.133      -18.474      133.880       97.362       64.789    17923.907     9479.353     4197.671        6.929        1.580      326.561       62.652        0.037      345.022       22.252      864.318
07/21/2014  23:15:00     -219.491      -22.832       -9.086       94.122       81.504       51.568     8858.873     6642.928     2659.265        3.347        0.908      220.676       44.827        0.041      344.998       22.213      864.327
07/21/2014  23:16:00     -363.845     -109.305      -22.960      107.440      103.202       57.075    11543.318    10650.655     3257.527        8.515        1.273      379.909       47.063        0.015      345.005       22.224      864.329
07/21/2014  23:17:00     -279.444       -0.460      -13.794      143.189       90.960       55.040    20503.134     8273.773     3029.393        5.504        1.590      279.444       63.887        0.052      344.990       22.199      864.331
07/21/2014  23:18:00     -300.624      -33.300      -12.429      106.897      109.832       55.322    11426.893    12063.024     3060.484        5.909        1.328      302.463       57.705        0.036      344.993       22.203      864.344
07/21/2014  23:19:00     -415.139     -153.444      -27.084      218.257      123.277       78.482    47636.229    15197.138     6159.480       13.279        3.450      442.589      103.197        0.054      345.037       22.280      864.338
07/21/2014  23:20:00     -169.840      -93.655        6.984      133.684      111.934       68.386    17871.303    12529.110     4676.706        3.636        1.754      193.951       53.014        0.075      344.996       22.209      864.357
07/21/2014  23:21:00     -364.795      -42.085       -9.799      160.283      144.634       78.863    25690.526    20918.927     6219.365        9.388        2.641      367.214       83.131        0.051      344.991       22.200      864.362
07/21/2014  23:22:00     -270.839     -190.770      -19.838      118.432      120.345       66.733    14026.121    14482.963     4453.327        7.155        1.648      331.281       65.901        0.040      344.981       22.182      864.326
07/21/2014  23:23:00     -230.847      -86.601       -3.339      117.067      111.117       59.844    13704.753    12347.082     3581.288        4.521        1.482      246.556       58.854        0.057      344.947       22.125      864.347
07/21/2014  23:24:00     -224.815     -118.677        3.198      127.516       81.239       63.613    16260.211     6599.710     4046.670        4.577        1.345      254.216       67.042        0.070      344.966       22.155      864.354
07/21/2014  23:25:00     -174.858      -59.517       -7.569      103.561       88.143       43.411    10724.930     7769.190     1884.523        2.727        1.019      184.709       44.380        0.058      344.934       22.102      864.351
07/21/2014  23:26:00     -199.511      -20.420       -9.082      111.742       90.846       50.934    12486.294     8252.977     2594.290        3.181        1.167      200.553       50.746        0.064      344.929       22.094      864.361
07/21/2014  23:27:00     -260.468      -73.867       -0.655      153.374      107.159       61.050    23523.447    11483.074     3727.124        5.601        1.937      270.740       66.140        0.060      344.941       22.115      864.371
07/21/2014  23:28:00     -179.271      -55.047       -0.558      121.802       80.687       54.353    14835.753     6510.395     2954.291        2.973        1.215      187.531       57.050        0.093      344.919       22.077      864.381
07/21/2014  23:29:00     -197.878      -62.297       -7.310       92.293       79.672       46.772     8518.058     6347.706     2187.598        3.007        0.853      207.453       51.261        0.061      344.939       22.111      864.388
07/21/2014  23:30:00     -239.192     -139.861       -9.018       92.573       70.693       46.869     8569.702     4997.436     2196.732        4.631        0.788      277.081       36.505        0.017      344.949       22.127      864.403
07/21/2014  23:31:00     -178.732     -108.429       -7.893      147.296       90.305       59.045    21696.132     8155.062     3486.286        3.854        1.667      209.050       80.109        0.147      344.956       22.139      864.404
07/21/2014  23:32:00     -144.507      -39.479       -8.494      139.073       73.399       49.218    19341.370     5387.372     2422.433        2.483        1.358      149.803       53.691        0.128      344.924       22.087      864.394
07/21/2014  23:33:00     -362.204       22.739      -16.330      124.726      129.583       74.316    15556.532    16791.804     5522.893        8.492        1.894      362.917       67.656        0.035      344.926       22.086      864.416
07/21/2014  23:34:00     -134.973      -82.741       10.956      134.104       90.850       56.418    17983.873     8253.798     3182.940        2.730        1.471      158.315       68.447        0.187      344.924       22.086      864.453
07/21/2014  23:35:00     -277.881     -196.267       -0.974      107.284       95.413       64.570    11509.783     9103.702     4169.344        7.026        1.239      340.204       62.535        0.034      344.959       22.143      864.450
07/21/2014  23:36:00     -275.043     -169.831       -7.353      139.727      128.471       64.826    19523.719    16504.688     4202.368        7.238        2.012      323.251       54.511        0.028      344.922       22.081      864.432
07/21/2014  23:37:00     -245.717      -40.964        0.621      124.617      102.224       59.806    15529.484    10449.822     3576.793        4.580        1.478      249.108       49.100        0.039      344.919       22.076      864.451
07/21/2014  23:38:00     -177.156        1.157       11.236      112.356       91.643       51.976    12623.894     8398.373     2701.502        2.761        1.186      177.160       48.061        0.074      344.931       22.097      864.447
07/21/2014  23:39:00     -223.231     -157.702       -6.444      159.897      107.721       73.139    25566.975    11603.819     5349.310        5.862        2.126      273.317       83.360        0.093      344.911       22.064      864.469
07/21/2014  23:40:00      -93.232      -59.528       17.819      135.371       83.502       68.504    18325.219     6972.558     4692.862        2.127        1.500      110.616       74.845        0.458      344.932       22.099      864.512
07/21/2014  23:41:00     -162.477     -180.006      -10.214       85.717      104.488       44.616     7347.469    10917.662     1990.619        3.958        1.013      242.489       35.718        0.022      344.986       22.189      864.545
07/21/2014  23:42:00     -133.056     -103.296      -12.426       69.381       50.371       36.485     4813.721     2537.207     1331.129        1.860        0.434      168.446       39.015        0.054      344.986       22.192      864.550
07/21/2014  23:43:00     -172.989     -163.321       -1.250      117.513       80.356       60.040    13809.228     6457.140     3604.813        4.023        1.194      237.906       65.950        0.077      344.938       22.109      864.544
07/21/2014  23:44:00     -186.260      -68.551        2.021       81.497       73.416       39.959     6641.724     5389.925     1596.685        2.651        0.681      198.474       41.943        0.045      344.879       22.009      864.535
07/21/2014  23:45:00     -130.537     -154.597        3.942      116.234       88.543       62.935    13510.456     7839.865     3960.871        3.313        1.266      202.337       67.265        0.111      344.896       22.038      864.558
07/21/2014  23:46:00     -151.495     -106.352        3.088       89.455       64.596       49.575     8002.217     4172.643     2457.677        2.445        0.732      185.099       39.154        0.045      344.889       22.025      864.552
07/21/2014  23:47:00     -177.544      -60.911        4.317      109.201       99.831       47.093    11924.959     9966.284     2217.783        2.968        1.205      187.702       55.831        0.088      344.881       22.011      864.577
07/21/2014  23:48:00     -117.009     -146.591        9.141       89.551       78.967       50.983     8019.359     6235.857     2599.279        2.606        0.843      187.564       56.748        0.092      344.887       22.021      864.590
07/21/2014  23:49:00      -26.018      -15.467       23.142       55.157       59.221       38.427     3042.318     3507.177     1476.640        0.474        0.401       30.269       38.329        1.603      344.826       21.921      864.609
07/21/2014  23:50:00     -183.558      -35.954       -2.363       93.544       54.596       42.080     8750.506     2980.719     1770.757        2.424        0.675      187.046       39.318        0.044      344.852       21.963      864.621
07/21/2014  23:51:00     -152.041     -102.309        7.696      100.747      103.225       61.071    10149.866    10655.459     3729.719        2.908        1.227      183.258       60.212        0.108      344.863       21.981      864.623
07/21/2014  23:52:00      -96.920      -60.061       11.681       78.006       51.836       34.787     6084.901     2687.014     1210.124        1.156        0.499      114.021       26.555        0.054      344.843       21.950      864.641
07/21/2014  23:53:00      -71.156      -64.036        9.854       60.797       50.792       33.717     3696.242     2579.853     1136.827        0.834        0.371       95.728       25.994        0.074      344.831       21.930      864.644
07/21/2014  23:54:00      -51.721      -66.269       10.020       67.609       49.757       34.064     4570.973     2475.776     1160.334        0.769        0.410       84.063       35.087        0.174      344.853       21.966      864.650
07/21/2014  23:55:00      -55.422      -35.566       10.299       70.465       40.789       29.723     4965.318     1663.703      883.431        0.598        0.376       65.852       36.598        0.309      344.830       21.927      864.659
07/21/2014  23:56:00     -141.750     -135.000       -5.286       91.095       50.916       38.107     8298.366     2592.463     1452.122        2.534        0.617      195.750       34.981        0.032      344.866       21.988      864.673
07/21/2014  23:57:00      -74.662      -41.327        7.606       52.735       39.412       29.211     2780.955     1553.307      853.312        0.626        0.259       85.337       24.884        0.085      344.836       21.939      864.687
07/21/2014  23:58:00      -55.728      -78.911       -6.169       54.548       38.647       26.206     2975.476     1493.579      686.762        0.726        0.258       96.605       15.004        0.024      344.855       21.973      864.705
07/21/2014  23:59:00        0.066      -54.581        3.127       34.653       32.643       22.307     1200.835     1065.582      497.617        0.288        0.138       54.581       18.960        0.121      344.869       21.995      864.718
